GFSNE_prec_sndepth_036.txt.gz
Snowfall_Accumulation
0.0 0.0 0.0 0.0 0.0 0.0 0.0 0.0 0.8 1.5 0.1 0.0 0.0 0.0 0.0 0.0 0.0 0.0 0.0 nan nan nan nan nan nan nan nan nan nan nan nan nan nan nan nan nan nan nan
0.0 0.0 0.0 0.0 0.0 0.0 0.0 0.0 0.0 0.1 0.4 0.0 0.0 0.0 0.0 0.0 0.0 0.0 0.0 nan nan nan nan nan nan nan nan nan nan nan nan nan nan nan nan nan nan nan
0.0 0.0 0.0 0.0 0.0 0.0 0.0 0.0 0.0 0.0 0.0 0.0 0.0 0.0 0.0 0.0 0.0 0.0 0.0 0.0 0.0 nan nan nan nan nan nan nan nan nan nan nan nan nan nan nan nan nan
0.0 0.0 0.0 0.0 0.0 0.0 0.0 0.0 0.0 0.0 0.0 0.0 0.0 0.0 0.0 0.0 0.0 0.0 0.0 0.0 0.0 nan nan nan nan nan nan nan nan nan nan nan nan nan nan nan nan nan
0.0 0.0 0.0 0.0 0.0 0.0 0.0 0.0 0.0 0.0 0.0 0.1 0.0 0.0 0.0 0.0 0.0 0.0 0.0 0.0 0.0 nan nan nan nan nan nan nan nan nan nan nan nan nan nan nan nan nan
0.0 0.0 0.0 0.0 0.0 0.0 0.0 0.0 0.0 0.0 0.0 0.0 0.0 0.0 0.0 0.0 0.0 0.0 0.0 0.0 0.0 0.0 nan nan nan nan nan nan nan nan nan nan nan nan nan nan nan nan
0.0 0.0 0.0 nan nan nan 0.0 0.0 0.0 0.1 0.2 0.2 0.0 0.0 0.0 0.0 0.0 0.1 0.2 0.0 0.0 0.0 0.0 0.0 0.0 0.0 0.0 nan nan nan nan nan nan nan nan nan nan nan
0.0 0.0 0.0 0.0 0.0 nan nan nan nan 0.2 0.4 0.5 0.1 0.1 0.0 0.1 0.1 0.0 0.0 0.0 0.1 0.0 0.0 0.2 0.0 0.0 0.1 0.2 nan nan nan nan nan nan nan nan nan nan
0.0 0.0 0.0 0.0 nan 0.0 nan nan nan nan 0.0 0.2 0.2 0.2 0.3 0.0 0.0 0.0 0.1 0.2 0.1 0.0 0.2 0.3 0.3 0.2 0.0 0.0 nan nan nan nan nan nan nan nan nan nan
0.0 0.0 0.0 0.0 0.0 0.0 0.2 0.1 0.0 0.0 0.0 0.0 0.0 0.0 0.0 0.0 0.0 0.0 0.2 0.2 0.1 0.0 0.0 1.7 0.5 0.6 0.3 0.1 nan nan nan nan nan nan nan nan nan nan
0.0 0.0 0.0 0.0 nan nan 0.1 0.2 0.0 0.0 nan nan nan nan nan nan nan 1.0 1.3 1.8 3.4 0.2 0.1 0.5 0.7 0.8 0.5 0.5 0.3 nan nan nan nan nan nan nan nan nan
0.0 0.0 nan 0.0 nan nan 0.8 0.6 0.9 0.1 0.0 0.0 0.0 0.0 nan nan nan 0.0 0.5 2.9 2.3 1.7 0.2 1.8 0.2 0.7 1.5 0.7 0.5 0.4 0.4 nan nan nan nan nan nan 0.1
0.8 0.6 0.4 nan nan nan nan 0.9 1.3 0.1 0.1 0.3 0.1 0.0 0.0 0.0 0.0 0.0 0.0 0.5 1.6 0.9 0.0 2.1 0.9 0.6 0.9 1.0 0.9 0.7 0.5 0.8 0.7 0.4 nan nan nan 0.1
0.8 0.9 1.3 nan nan nan 0.7 nan nan 0.4 3.8 3.6 2.5 1.5 1.1 0.9 0.1 0.2 0.1 0.0 0.0 0.5 0.5 0.3 2.5 0.6 0.6 1.1 1.0 0.8 0.8 1.0 1.0 1.0 1.1 nan nan nan
2.4 1.9 nan nan nan 1.2 nan nan 0.5 3.1 4.5 5.6 3.1 1.7 1.2 0.4 0.1 0.5 0.1 0.1 0.1 0.3 0.0 0.4 1.3 0.2 0.7 1.2 1.1 1.2 1.2 1.0 1.3 1.6 2.7 1.6 1.4 0.9
0.3 1.8 0.5 1.7 0.8 1.1 1.2 1.5 2.1 3.1 3.7 4.1 2.6 1.3 1.1 1.6 1.9 1.3 2.1 2.0 2.8 2.7 0.5 0.7 0.5 0.6 1.9 0.8 0.7 1.4 1.0 2.1 1.4 1.3 2.0 3.5 2.6 2.1
3.0 5.1 3.0 2.2 2.3 1.6 1.8 1.9 1.7 1.7 2.7 4.1 4.0 2.9 2.1 1.7 2.1 1.9 2.1 2.1 3.7 2.1 1.6 1.8 0.6 0.6 0.8 0.5 3.4 0.9 1.0 1.0 0.9 4.3 1.9 1.7 2.1 2.7
3.2 4.6 9.6 10.6 6.0 2.6 3.7 3.1 2.7 2.3 2.2 2.8 4.5 3.1 3.1 3.5 3.1 2.6 2.2 2.6 3.0 2.1 1.9 1.1 2.7 2.6 2.2 2.4 1.7 1.7 0.7 0.9 0.9 0.9 1.7 2.6 1.6 1.7
5.4 4.8 10.9 13.0 6.9 2.2 2.4 2.5 3.9 3.6 2.1 3.0 4.1 5.3 5.6 4.2 4.9 3.8 4.4 3.7 3.7 2.0 1.4 2.1 2.4 3.6 4.0 6.1 2.7 nan 2.9 1.2 2.5 3.0 1.9 2.5 3.7 2.3
2.7 4.5 6.7 6.9 3.2 2.1 2.2 2.9 3.5 5.5 5.5 4.5 6.5 10.0 11.6 7.8 6.6 4.3 3.7 5.8 3.6 1.9 1.6 0.9 1.4 1.9 4.0 10.2 10.8 7.5 nan 8.0 4.1 4.4 3.1 2.4 2.0 nan
2.6 2.1 4.7 3.1 3.3 2.5 8.8 10.6 14.5 13.0 13.3 17.5 9.3 9.6 20.8 5.6 6.2 4.3 5.1 4.0 3.2 1.4 1.7 1.6 1.5 0.0 1.7 3.7 16.8 8.0 7.3 nan 2.7 2.6 2.0 2.9 2.1 1.4
4.8 2.8 2.7 2.8 4.8 4.6 11.3 19.3 17.6 17.2 12.5 9.0 18.7 25.9 23.4 10.8 9.6 8.2 10.0 9.0 3.0 3.7 1.9 1.4 0.8 0.7 2.6 2.5 3.4 10.5 4.3 4.6 nan nan nan nan 3.3 4.8
9.0 3.5 5.2 6.8 5.8 7.3 4.0 9.8 4.3 21.8 9.1 9.6 9.1 9.6 40.8 14.0 6.9 7.7 8.5 5.1 3.1 3.7 2.4 2.5 1.3 1.0 1.8 1.4 2.3 4.4 3.4 6.3 2.7 2.7 5.9 nan nan nan

GFSNE_prec_sndepth_039.txt.gz
Snowfall_Accumulation
0.0 0.0 0.0 0.0 0.0 0.0 0.0 0.0 0.9 1.7 0.2 0.0 0.0 0.0 0.0 0.0 0.0 0.0 0.0 nan nan nan nan nan nan nan nan nan nan nan nan nan nan nan nan nan nan nan
0.0 0.0 0.0 0.0 0.0 0.0 0.0 0.0 0.0 0.2 0.4 0.0 0.0 0.0 0.0 0.0 0.0 0.0 0.0 nan nan nan nan nan nan nan nan nan nan nan nan nan nan nan nan nan nan nan
0.0 0.0 0.0 0.0 0.0 0.0 0.0 0.0 0.0 0.0 0.0 0.0 0.0 0.0 0.0 0.0 0.0 0.0 0.0 0.0 0.0 nan nan nan nan nan nan nan nan nan nan nan nan nan nan nan nan nan
0.0 0.0 0.0 0.0 0.0 0.0 0.0 0.0 0.0 0.0 0.0 0.0 0.0 0.0 0.0 0.0 0.0 0.0 0.0 0.0 0.0 nan nan nan nan nan nan nan nan nan nan nan nan nan nan nan nan nan
0.0 0.0 0.0 0.0 0.0 0.0 0.0 0.0 0.0 0.0 0.0 0.1 0.0 0.0 0.0 0.0 0.0 0.0 0.0 0.0 0.0 nan nan nan nan nan nan nan nan nan nan nan nan nan nan nan nan nan
0.0 0.0 0.0 0.0 0.0 0.0 0.0 0.0 0.0 0.0 0.0 0.0 0.0 0.0 0.0 0.0 0.0 0.0 0.0 0.0 0.0 0.0 nan nan nan nan nan nan nan nan nan nan nan nan nan nan nan nan
0.0 0.0 0.0 nan nan nan 0.0 0.0 0.0 0.1 0.2 0.2 0.0 0.0 0.0 0.0 0.0 0.1 0.2 0.0 0.0 0.0 0.0 0.0 0.0 0.0 0.0 nan nan nan nan nan nan nan nan nan nan nan
0.0 0.0 0.0 0.0 0.0 nan nan nan nan 0.2 0.4 0.5 0.1 0.1 0.0 0.1 0.1 0.0 0.0 0.0 0.2 0.0 0.0 0.2 0.0 0.0 0.1 0.2 nan nan nan nan nan nan nan nan nan nan
0.0 0.0 0.0 0.0 nan 0.0 nan nan nan nan 0.0 0.2 0.2 0.2 0.3 0.0 0.0 0.0 0.1 0.2 0.2 0.0 0.2 0.3 0.3 0.2 0.0 0.0 nan nan nan nan nan nan nan nan nan nan
0.0 0.0 0.0 0.0 0.0 0.0 0.2 0.1 0.0 0.0 0.0 0.0 0.0 0.0 0.0 0.0 0.0 0.0 0.5 0.4 0.1 0.0 0.0 1.7 0.5 0.6 0.3 0.1 nan nan nan nan nan nan nan nan nan nan
0.0 0.0 0.0 0.0 nan nan 0.1 0.2 0.0 0.0 nan nan nan nan nan nan nan 1.0 1.3 1.8 3.4 0.2 0.1 0.6 0.7 0.8 0.5 0.5 0.3 nan nan nan nan nan nan nan nan nan
0.0 0.0 nan 0.0 nan nan 0.7 0.6 0.9 0.1 0.0 0.0 0.0 0.0 nan nan nan 0.0 0.5 2.9 2.4 1.7 0.2 1.8 0.2 0.9 1.7 0.7 0.5 0.4 0.4 nan nan nan nan nan nan 0.1
0.8 0.6 0.4 nan nan nan nan 0.9 1.3 0.1 0.1 0.3 0.1 0.0 0.0 0.0 0.0 0.0 0.0 0.5 1.6 0.9 0.0 2.2 0.9 0.6 1.2 1.1 0.9 0.7 0.5 0.8 0.7 0.4 nan nan nan 0.1
0.8 0.9 1.3 nan nan nan 0.7 nan nan 0.4 3.8 3.6 2.5 1.5 1.1 0.9 0.1 0.2 0.1 0.0 0.0 0.5 0.5 0.3 2.8 0.9 0.9 1.1 1.1 0.8 0.8 1.0 1.0 1.0 1.0 nan nan nan
2.4 1.9 nan nan nan 1.2 nan nan 0.5 3.1 4.5 5.6 3.1 1.7 1.2 0.4 0.1 0.5 0.1 0.1 0.1 0.3 0.0 0.4 1.3 0.2 0.7 1.2 1.3 1.2 1.2 1.0 1.3 1.7 2.7 1.8 1.4 0.8
0.3 1.8 0.5 1.7 0.8 1.1 1.2 1.5 2.1 3.1 3.7 4.1 2.6 1.3 1.1 1.6 1.9 1.3 2.1 2.0 2.8 2.7 0.5 0.7 0.5 0.6 1.9 0.8 0.8 1.4 1.0 2.1 1.4 1.3 2.1 3.7 2.5 2.1
3.0 5.3 3.2 2.3 2.3 1.6 1.8 1.9 1.7 1.7 2.7 4.1 4.0 2.9 2.1 1.7 2.1 1.9 2.1 2.1 3.7 2.1 1.6 1.7 0.6 0.6 0.8 0.7 3.5 0.9 1.0 1.0 0.9 4.4 2.0 2.5 2.6 2.8
3.7 4.9 9.7 10.6 6.0 2.6 3.7 3.1 2.7 2.3 2.2 2.8 4.5 3.1 3.1 3.5 3.1 2.6 2.2 2.6 3.0 2.1 1.9 1.1 2.7 2.6 2.2 2.4 1.9 1.8 0.7 0.9 0.9 0.9 1.7 3.3 2.2 3.3
5.8 4.8 10.9 13.0 6.9 2.2 2.4 2.5 3.9 3.6 2.1 3.0 4.1 5.3 5.6 4.2 4.9 3.8 4.4 3.7 3.7 2.0 1.4 2.1 2.4 3.6 4.0 6.2 2.7 nan 2.9 1.2 2.5 3.0 1.9 2.8 4.3 2.8
2.9 4.5 6.8 7.0 3.3 2.3 2.2 2.9 3.5 5.5 5.5 4.5 6.5 9.9 11.6 7.8 6.6 4.3 3.7 5.9 3.6 1.9 1.6 0.9 1.4 1.9 4.2 10.3 10.9 7.5 nan 8.3 4.1 4.5 3.1 2.4 2.1 nan
2.6 2.2 4.8 3.2 3.4 2.6 8.8 10.5 14.5 13.0 13.3 17.4 9.2 9.5 20.7 5.6 6.2 4.3 5.1 4.0 3.2 1.4 1.7 1.6 1.5 0.0 1.8 3.9 17.0 8.1 7.3 nan 3.0 2.7 2.1 2.9 2.1 1.4
4.8 2.9 2.9 3.0 5.0 4.8 11.3 19.2 17.6 17.1 12.5 9.0 18.6 25.8 23.3 10.8 9.6 8.2 10.0 9.0 3.0 3.7 1.9 1.4 0.8 0.7 2.6 2.7 3.7 10.6 4.3 4.6 nan nan nan nan 3.3 4.8
9.0 3.6 5.3 7.0 5.9 7.4 4.2 9.9 4.3 21.7 9.1 9.6 9.0 9.6 40.5 14.0 6.9 7.7 8.4 5.1 3.1 3.7 2.4 2.5 1.3 1.0 1.7 1.5 2.4 4.6 3.5 6.3 2.7 2.7 5.9 nan nan nan

GFSNE_prec_sndepth_042.txt.gz
Snowfall_Accumulation
0.0 0.0 0.0 0.0 0.0 0.0 0.0 0.0 0.8 1.7 0.2 0.0 0.0 0.0 0.0 0.0 0.0 0.0 0.0 nan nan nan nan nan nan nan nan nan nan nan nan nan nan nan nan nan nan nan
0.0 0.0 0.0 0.0 0.0 0.0 0.0 0.0 0.0 0.2 0.4 0.0 0.0 0.0 0.0 0.0 0.0 0.0 0.0 nan nan nan nan nan nan nan nan nan nan nan nan nan nan nan nan nan nan nan
0.0 0.0 0.0 0.0 0.0 0.0 0.0 0.0 0.0 0.0 0.0 0.0 0.0 0.0 0.0 0.0 0.0 0.0 0.0 0.0 0.0 nan nan nan nan nan nan nan nan nan nan nan nan nan nan nan nan nan
0.0 0.0 0.0 0.0 0.0 0.0 0.0 0.0 0.0 0.0 0.0 0.0 0.0 0.0 0.0 0.0 0.0 0.0 0.0 0.0 0.0 nan nan nan nan nan nan nan nan nan nan nan nan nan nan nan nan nan
0.0 0.0 0.0 0.0 0.0 0.0 0.0 0.0 0.0 0.0 0.0 0.1 0.0 0.0 0.0 0.0 0.0 0.0 0.0 0.0 0.0 nan nan nan nan nan nan nan nan nan nan nan nan nan nan nan nan nan
0.0 0.0 0.0 0.0 0.0 0.0 0.0 0.0 0.0 0.0 0.0 0.0 0.0 0.0 0.0 0.0 0.0 0.0 0.0 0.0 0.0 0.0 nan nan nan nan nan nan nan nan nan nan nan nan nan nan nan nan
0.0 0.0 0.0 nan nan nan 0.0 0.0 0.0 0.1 0.2 0.2 0.0 0.0 0.0 0.0 0.0 0.1 0.2 0.0 0.0 0.0 0.0 0.0 0.0 0.0 0.0 nan nan nan nan nan nan nan nan nan nan nan
0.0 0.0 0.0 0.0 0.0 nan nan nan nan 0.2 0.4 0.5 0.1 0.1 0.0 0.1 0.1 0.0 0.0 0.0 0.2 0.0 0.0 0.2 0.0 0.0 0.1 0.2 nan nan nan nan nan nan nan nan nan nan
0.0 0.0 0.0 0.0 nan 0.0 nan nan nan nan 0.0 0.2 0.2 0.2 0.3 0.0 0.0 0.0 0.1 0.3 0.2 0.0 0.2 0.3 0.3 0.2 0.0 0.0 nan nan nan nan nan nan nan nan nan nan
0.0 0.0 0.0 0.0 0.0 0.0 0.2 0.1 0.0 0.0 0.0 0.0 0.0 0.0 0.0 0.0 0.0 0.0 0.5 0.4 0.1 0.0 0.0 1.7 0.5 0.6 0.3 0.1 nan nan nan nan nan nan nan nan nan nan
0.0 0.0 0.0 0.0 nan nan 0.1 0.2 0.0 0.0 nan nan nan nan nan nan nan 1.0 1.3 1.8 3.4 0.2 0.1 0.6 0.7 0.8 0.5 0.5 0.3 nan nan nan nan nan nan nan nan nan
0.0 0.0 nan 0.0 nan nan 0.7 0.6 0.9 0.1 0.0 0.0 0.0 0.0 nan nan nan 0.0 0.5 2.9 2.4 1.7 0.2 1.8 0.2 0.9 1.8 0.7 0.5 0.4 0.4 nan nan nan nan nan nan 0.1
0.7 0.6 0.4 nan nan nan nan 0.9 1.3 0.1 0.1 0.3 0.1 0.0 0.0 0.0 0.0 0.0 0.0 0.5 1.6 0.9 0.0 2.3 0.9 0.7 1.4 1.2 0.9 0.7 0.5 0.8 0.7 0.4 nan nan nan 0.1
0.8 0.9 1.3 nan nan nan 0.7 nan nan 0.4 3.8 3.6 2.5 1.5 1.1 0.9 0.1 0.2 0.1 0.0 0.0 0.5 0.5 0.3 3.0 1.0 1.0 1.2 1.1 0.8 0.8 1.0 1.0 1.0 1.0 nan nan nan
2.4 1.9 nan nan nan 1.2 nan nan 0.5 3.1 4.5 5.6 3.1 1.7 1.2 0.4 0.1 0.5 0.1 0.1 0.1 0.3 0.0 0.4 1.4 0.3 0.7 1.3 1.3 1.2 1.4 1.0 1.3 1.7 2.7 2.0 2.0 1.0
0.3 1.8 0.5 1.8 0.9 1.2 1.4 1.7 2.2 3.1 3.7 4.1 2.6 1.3 1.1 1.6 1.9 1.3 2.1 2.0 2.8 2.7 0.5 0.7 0.4 0.5 1.9 0.8 0.8 1.4 1.1 2.3 1.4 1.3 2.1 4.2 2.6 2.1
3.0 5.3 3.3 2.4 2.4 1.7 1.9 1.9 1.8 1.7 2.7 4.1 4.0 2.9 2.1 1.7 2.1 1.9 2.1 2.1 3.7 2.1 1.6 1.7 0.6 0.6 0.8 0.6 3.5 1.0 1.0 1.0 0.9 4.4 2.2 3.2 2.8 3.0
3.9 5.0 9.7 10.6 6.1 2.6 3.9 3.3 2.9 2.3 2.2 2.8 4.5 3.1 3.1 3.5 3.1 2.6 2.2 2.6 3.1 2.1 1.9 1.1 2.6 2.6 2.2 2.4 2.0 1.8 0.7 0.9 0.9 0.9 1.7 4.0 3.1 5.1
6.4 4.9 10.9 12.9 6.9 2.3 2.7 2.7 4.2 3.7 2.1 3.0 4.1 5.3 5.6 4.2 4.9 3.8 4.4 3.7 3.7 2.0 1.4 2.0 2.4 3.6 4.0 6.2 2.7 nan 3.0 1.2 2.5 3.0 1.9 3.0 5.2 3.6
3.0 4.6 6.7 6.9 3.3 2.4 2.5 3.1 3.7 5.5 5.5 4.5 6.5 9.9 11.6 7.7 6.6 4.3 3.7 5.9 3.6 1.9 1.6 0.8 1.4 1.9 4.5 10.4 11.0 7.5 nan 8.6 4.2 4.5 3.1 2.4 2.1 nan
2.8 2.3 4.7 3.3 3.5 2.7 9.0 10.8 14.5 13.0 13.3 17.4 9.2 9.5 20.7 5.6 6.2 4.3 5.1 4.0 3.2 1.4 1.7 1.6 1.5 0.0 1.8 4.3 17.2 8.2 7.3 nan 3.2 2.8 2.1 2.9 2.1 1.4
5.2 2.9 2.9 3.0 5.0 4.9 11.5 19.4 17.6 17.1 12.5 9.0 18.6 25.6 23.2 10.8 9.6 8.2 10.0 9.0 3.0 3.7 1.9 1.4 0.8 0.7 2.6 2.8 3.8 10.8 4.4 4.6 nan nan nan nan 3.3 4.8
9.2 3.7 5.4 7.1 6.0 7.5 4.5 10.2 4.4 21.6 9.1 9.5 9.0 9.6 40.2 14.1 6.9 7.6 8.4 5.1 3.1 3.7 2.4 2.5 1.3 1.0 1.7 1.5 2.4 4.7 3.6 6.5 2.7 2.7 5.9 nan nan nan

GFSNE_prec_sndepth_045.txt.gz
Snowfall_Accumulation
0.0 0.0 0.0 0.0 0.0 0.0 0.0 0.0 0.7 1.6 0.1 0.0 0.0 0.0 0.0 0.0 0.0 0.0 0.0 nan nan nan nan nan nan nan nan nan nan nan nan nan nan nan nan nan nan nan
0.0 0.0 0.0 0.0 0.0 0.0 0.0 0.0 0.0 0.1 0.3 0.0 0.0 0.0 0.0 0.0 0.0 0.0 0.0 nan nan nan nan nan nan nan nan nan nan nan nan nan nan nan nan nan nan nan
0.0 0.0 0.0 0.0 0.0 0.0 0.0 0.0 0.0 0.0 0.0 0.0 0.0 0.0 0.0 0.0 0.0 0.0 0.0 0.0 0.0 nan nan nan nan nan nan nan nan nan nan nan nan nan nan nan nan nan
0.0 0.0 0.0 0.0 0.0 0.0 0.0 0.0 0.0 0.0 0.0 0.0 0.0 0.0 0.0 0.0 0.0 0.0 0.0 0.0 0.0 nan nan nan nan nan nan nan nan nan nan nan nan nan nan nan nan nan
0.0 0.0 0.0 0.0 0.0 0.0 0.0 0.0 0.0 0.0 0.0 0.1 0.0 0.0 0.0 0.0 0.0 0.0 0.0 0.0 0.0 nan nan nan nan nan nan nan nan nan nan nan nan nan nan nan nan nan
0.0 0.0 0.0 0.0 0.0 0.0 0.0 0.0 0.0 0.0 0.0 0.0 0.0 0.0 0.0 0.0 0.0 0.0 0.0 0.0 0.0 0.0 nan nan nan nan nan nan nan nan nan nan nan nan nan nan nan nan
0.0 0.0 0.0 nan nan nan 0.0 0.0 0.0 0.1 0.1 0.1 0.0 0.0 0.0 0.0 0.0 0.1 0.2 0.0 0.0 0.0 0.0 0.0 0.0 0.0 0.0 nan nan nan nan nan nan nan nan nan nan nan
0.0 0.0 0.0 0.0 0.0 nan nan nan nan 0.1 0.3 0.5 0.1 0.1 0.0 0.0 0.1 0.0 0.0 0.0 0.2 0.0 0.0 0.2 0.0 0.0 0.0 0.1 nan nan nan nan nan nan nan nan nan nan
0.0 0.0 0.0 0.0 nan 0.0 nan nan nan nan 0.0 0.1 0.1 0.1 0.2 0.0 0.0 0.0 0.1 0.3 0.2 0.0 0.1 0.3 0.2 0.2 0.0 0.0 nan nan nan nan nan nan nan nan nan nan
0.0 0.0 0.0 0.0 0.0 0.0 0.2 0.1 0.0 0.0 0.0 0.0 0.0 0.0 0.0 0.0 0.0 0.0 0.3 0.3 0.1 0.0 0.0 1.7 0.4 0.5 0.3 0.1 nan nan nan nan nan nan nan nan nan nan
0.0 0.0 0.0 0.0 nan nan 0.1 0.2 0.0 0.0 nan nan nan nan nan nan nan 0.8 1.2 1.7 3.3 0.2 0.1 0.6 0.6 0.7 0.5 0.4 0.3 nan nan nan nan nan nan nan nan nan
0.0 0.0 nan 0.0 nan nan 0.6 0.5 0.8 0.1 0.0 0.0 0.0 0.0 nan nan nan 0.0 0.5 2.8 2.3 1.7 0.2 1.7 0.2 0.9 1.7 0.6 0.4 0.4 0.3 nan nan nan nan nan nan 0.1
0.7 0.5 0.4 nan nan nan nan 0.8 1.1 0.1 0.1 0.3 0.1 0.0 0.0 0.0 0.0 0.0 0.0 0.4 1.5 0.9 0.0 2.1 0.9 0.6 1.4 1.1 0.7 0.6 0.5 0.6 0.6 0.4 nan nan nan 0.1
0.7 0.8 1.0 nan nan nan 0.7 nan nan 0.4 3.5 3.3 2.3 1.4 1.1 0.8 0.0 0.2 0.1 0.0 0.0 0.4 0.4 0.2 2.9 1.0 1.1 1.2 1.0 0.7 0.7 0.8 0.9 0.8 0.8 nan nan nan
2.0 1.6 nan nan nan 1.2 nan nan 0.5 3.1 4.3 5.5 2.9 1.6 1.1 0.4 0.1 0.5 0.1 0.1 0.1 0.2 0.0 0.3 1.2 0.2 0.7 1.3 1.3 1.1 1.2 0.9 1.1 1.4 2.2 1.6 1.9 1.0
0.2 1.7 0.4 1.5 0.7 1.1 1.4 1.9 2.5 3.0 3.6 3.9 2.5 1.2 1.0 1.5 1.7 1.2 1.9 1.9 2.6 2.5 0.4 0.5 0.3 0.4 1.8 0.7 0.7 1.3 1.0 2.6 1.2 1.1 1.8 3.8 2.6 1.9
2.8 5.1 3.1 2.4 2.4 1.7 1.9 1.9 1.8 2.0 2.9 3.9 3.8 2.7 2.0 1.6 2.0 1.7 1.9 2.0 3.5 2.0 1.5 1.5 0.4 0.4 0.7 0.5 3.4 0.9 1.0 0.9 0.8 4.2 2.1 3.3 3.1 3.0
4.2 5.4 9.4 10.3 6.2 2.5 3.6 3.1 2.9 2.5 2.4 2.9 4.4 3.0 3.0 3.3 2.8 2.5 2.0 2.4 2.9 2.0 1.8 1.0 2.5 2.4 1.9 2.1 1.8 1.8 0.7 0.9 0.9 0.8 1.6 4.4 3.6 6.4
6.6 5.2 10.5 12.3 6.7 2.3 2.7 2.7 4.1 3.7 2.3 3.4 4.1 5.1 5.5 4.0 4.7 3.6 4.1 3.5 3.5 1.9 1.3 1.9 2.3 3.4 3.9 6.1 2.4 nan 2.9 1.1 2.5 2.8 1.7 3.1 5.5 4.0
2.8 4.4 6.2 6.4 3.2 2.4 2.5 3.1 3.6 5.5 5.7 4.4 6.4 9.6 11.3 7.5 6.3 4.1 3.5 5.7 3.4 1.8 1.5 0.8 1.3 1.8 4.5 10.4 11.0 7.1 nan 8.2 4.2 4.3 2.9 2.1 1.8 nan
2.7 2.3 4.6 3.4 3.7 2.6 8.6 10.5 14.5 12.5 12.9 17.2 9.1 9.4 20.5 5.4 6.0 4.1 4.8 3.9 3.1 1.4 1.6 1.5 1.4 0.0 1.7 4.1 17.2 7.9 6.6 nan 2.9 2.7 2.1 2.8 2.0 1.3
5.4 3.6 3.4 3.2 4.9 4.7 11.1 19.2 17.2 16.7 12.3 9.0 18.4 25.4 23.0 10.7 9.5 8.0 9.7 8.7 2.9 3.6 1.8 1.3 0.8 0.6 2.3 2.7 3.8 10.6 4.1 4.1 nan nan nan nan 3.4 4.8
9.7 4.2 6.2 7.6 6.2 7.3 4.3 9.8 4.4 21.0 8.9 9.6 8.9 9.5 39.8 14.0 6.8 7.4 8.1 5.0 3.0 3.6 2.3 2.4 1.2 0.9 1.6 1.4 2.3 4.6 3.5 6.1 2.4 2.4 5.3 nan nan nan

GFSNE_prec_sndepth_048.txt.gz
Snowfall_Accumulation
0.0 0.0 0.0 0.0 0.0 0.0 0.0 0.0 0.5 1.1 0.1 0.0 0.0 0.0 0.0 0.0 0.0 0.0 0.0 nan nan nan nan nan nan nan nan nan nan nan nan nan nan nan nan nan nan nan
0.0 0.0 0.0 0.0 0.0 0.0 0.0 0.0 0.0 0.1 0.2 0.0 0.0 0.0 0.0 0.0 0.0 0.0 0.0 nan nan nan nan nan nan nan nan nan nan nan nan nan nan nan nan nan nan nan
0.0 0.0 0.0 0.0 0.0 0.0 0.0 0.0 0.0 0.0 0.0 0.0 0.0 0.0 0.0 0.0 0.0 0.0 0.0 0.0 0.0 nan nan nan nan nan nan nan nan nan nan nan nan nan nan nan nan nan
0.0 0.0 0.0 0.0 0.0 0.0 0.0 0.0 0.0 0.0 0.0 0.0 0.0 0.0 0.0 0.0 0.0 0.0 0.0 0.0 0.0 nan nan nan nan nan nan nan nan nan nan nan nan nan nan nan nan nan
0.0 0.0 0.0 0.0 0.0 0.0 0.0 0.0 0.0 0.0 0.0 0.0 0.0 0.0 0.0 0.0 0.0 0.0 0.0 0.0 0.0 nan nan nan nan nan nan nan nan nan nan nan nan nan nan nan nan nan
0.0 0.0 0.0 0.0 0.0 0.0 0.0 0.0 0.0 0.0 0.0 0.0 0.0 0.0 0.0 0.0 0.0 0.0 0.0 0.0 0.0 0.0 nan nan nan nan nan nan nan nan nan nan nan nan nan nan nan nan
0.0 0.0 0.0 nan nan nan 0.0 0.0 0.0 0.0 0.1 0.0 0.0 0.0 0.0 0.0 0.0 0.0 0.1 0.0 0.0 0.0 0.0 0.0 0.0 0.0 0.0 nan nan nan nan nan nan nan nan nan nan nan
0.0 0.0 0.0 0.0 0.0 nan nan nan nan 0.0 0.1 0.4 0.0 0.0 0.0 0.0 0.0 0.0 0.0 0.0 0.2 0.0 0.0 0.1 0.0 0.0 0.0 0.1 nan nan nan nan nan nan nan nan nan nan
0.0 0.0 0.0 0.0 nan 0.0 nan nan nan nan 0.0 0.0 0.1 0.0 0.1 0.0 0.0 0.0 0.0 0.2 0.1 0.0 0.1 0.2 0.2 0.1 0.0 0.0 nan nan nan nan nan nan nan nan nan nan
0.0 0.0 0.0 0.0 0.0 0.0 0.1 0.0 0.0 0.0 0.0 0.0 0.0 0.0 0.0 0.0 0.0 0.0 0.1 0.1 0.1 0.0 0.0 1.3 0.3 0.4 0.2 0.0 nan nan nan nan nan nan nan nan nan nan
0.0 0.0 0.0 0.0 nan nan 0.1 0.1 0.0 0.0 nan nan nan nan nan nan nan 0.6 0.9 1.3 2.7 0.1 0.1 0.4 0.5 0.6 0.3 0.3 0.2 nan nan nan nan nan nan nan nan nan
0.0 0.0 nan 0.0 nan nan 0.2 0.2 0.4 0.0 0.0 0.0 0.0 0.0 nan nan nan 0.0 0.3 2.2 1.8 1.3 0.2 1.3 0.2 0.7 1.4 0.5 0.3 0.3 0.3 nan nan nan nan nan nan 0.0
0.5 0.4 0.3 nan nan nan nan 0.3 0.5 0.0 0.1 0.2 0.0 0.0 0.0 0.0 0.0 0.0 0.0 0.3 1.2 0.7 0.0 1.5 0.7 0.5 1.1 0.9 0.6 0.5 0.4 0.5 0.4 0.3 nan nan nan 0.1
0.5 0.5 0.7 nan nan nan 0.4 nan nan 0.3 3.1 2.7 1.9 1.1 0.8 0.6 0.0 0.1 0.0 0.0 0.0 0.2 0.2 0.1 2.4 0.8 0.9 1.1 0.8 0.5 0.5 0.7 0.7 0.7 0.7 nan nan nan
1.4 1.1 nan nan nan 0.6 nan nan 0.0 2.9 3.9 5.1 2.6 1.3 0.8 0.3 0.1 0.3 0.0 0.0 0.0 0.1 0.0 0.1 1.0 0.1 0.6 1.1 1.1 0.9 1.0 0.7 0.9 1.1 1.6 1.2 1.5 0.8
0.2 1.2 0.0 1.1 0.2 0.5 0.9 1.5 2.0 2.6 3.2 3.3 2.1 1.0 0.8 1.2 1.4 0.9 1.5 1.5 2.1 1.9 0.2 0.2 0.2 0.2 1.5 0.6 0.6 1.1 0.9 2.3 1.0 0.9 1.5 3.1 2.1 1.8
2.2 3.8 2.4 2.0 1.9 1.5 1.6 1.7 1.6 1.7 2.6 3.3 3.3 2.4 1.7 1.3 1.7 1.4 1.6 1.6 3.0 1.6 1.2 1.2 0.2 0.2 0.5 0.3 2.9 0.8 0.9 0.8 0.7 3.5 1.8 2.7 2.7 3.2
3.2 4.3 7.7 8.2 4.7 2.0 3.1 2.7 2.6 2.2 2.0 2.5 3.9 2.8 2.7 2.9 2.4 2.1 1.7 2.0 2.4 1.6 1.4 0.8 1.9 1.9 1.5 1.5 1.4 1.6 0.6 0.8 0.7 0.7 1.3 3.8 3.3 5.9
5.5 4.0 8.3 9.6 4.9 1.8 2.2 2.5 3.9 3.3 1.6 3.0 3.6 4.4 4.7 3.4 4.0 3.0 3.5 3.0 2.9 1.5 1.0 1.5 1.8 2.7 3.3 6.0 1.9 nan 2.7 1.0 2.1 2.4 1.4 2.6 5.1 3.8
2.3 3.8 5.1 5.1 2.5 1.9 2.0 2.7 3.2 4.8 5.1 3.9 5.5 8.3 9.9 6.5 5.7 3.7 3.0 4.9 2.8 1.5 1.2 0.6 1.0 1.4 3.7 10.2 10.9 5.8 nan 7.3 3.8 4.0 2.6 1.8 1.4 nan
2.6 2.2 4.3 3.0 3.2 2.7 7.6 9.1 12.1 11.0 11.1 14.8 7.8 8.3 18.2 4.7 5.3 3.6 4.0 3.3 2.6 1.1 1.3 1.2 1.1 0.0 1.3 3.3 17.0 6.8 5.3 nan 2.1 2.2 1.8 2.5 1.7 1.1
5.3 3.5 3.3 3.5 5.1 4.9 10.2 16.5 14.6 14.2 10.4 7.7 15.9 22.3 20.1 9.1 8.2 6.9 8.3 7.6 2.4 2.9 1.5 1.0 0.6 0.5 1.8 2.2 3.3 9.2 3.4 3.3 nan nan nan nan 3.3 4.8
9.6 4.2 6.1 7.7 6.4 7.7 4.6 9.1 4.0 18.2 7.5 8.1 7.8 8.3 36.0 12.5 5.8 6.3 7.0 4.3 2.6 3.0 1.9 1.9 1.0 0.7 1.3 1.1 1.8 4.0 2.9 5.2 2.1 2.0 4.6 nan nan nan

GFSNE_prec_sndepth_054.txt.gz
Snowfall_Accumulation
0.0 0.0 0.0 0.0 0.0 0.0 0.0 0.0 0.3 0.7 0.0 0.0 0.0 0.0 0.0 0.0 0.0 0.0 0.0 nan nan nan nan nan nan nan nan nan nan nan nan nan nan nan nan nan nan nan
0.0 0.0 0.0 0.0 0.0 0.0 0.0 0.0 0.0 0.0 0.1 0.0 0.0 0.0 0.0 0.0 0.0 0.0 0.0 nan nan nan nan nan nan nan nan nan nan nan nan nan nan nan nan nan nan nan
0.0 0.0 0.0 0.0 0.0 0.0 0.0 0.0 0.0 0.0 0.0 0.0 0.0 0.0 0.0 0.0 0.0 0.0 0.0 0.0 0.0 nan nan nan nan nan nan nan nan nan nan nan nan nan nan nan nan nan
0.0 0.0 0.0 0.0 0.0 0.0 0.0 0.0 0.0 0.0 0.0 0.0 0.0 0.0 0.0 0.0 0.0 0.0 0.0 0.0 0.0 nan nan nan nan nan nan nan nan nan nan nan nan nan nan nan nan nan
0.0 0.0 0.0 0.0 0.0 0.0 0.0 0.0 0.0 0.0 0.0 0.0 0.0 0.0 0.0 0.0 0.0 0.0 0.0 0.0 0.0 nan nan nan nan nan nan nan nan nan nan nan nan nan nan nan nan nan
0.0 0.0 0.0 0.0 0.0 0.0 0.0 0.0 0.0 0.0 0.0 0.0 0.0 0.0 0.0 0.0 0.0 0.0 0.0 0.0 0.0 0.0 nan nan nan nan nan nan nan nan nan nan nan nan nan nan nan nan
0.0 0.0 0.0 nan nan nan 0.0 0.0 0.0 0.0 0.0 0.0 0.0 0.0 0.0 0.0 0.0 0.0 0.0 0.0 0.0 0.0 0.0 0.0 0.0 0.0 0.0 nan nan nan nan nan nan nan nan nan nan nan
0.0 0.0 0.0 0.0 0.0 nan nan nan nan 0.0 0.0 0.2 0.0 0.0 0.0 0.0 0.0 0.0 0.0 0.0 0.1 0.0 0.0 0.1 0.0 0.0 0.0 0.0 nan nan nan nan nan nan nan nan nan nan
0.0 0.0 0.0 0.0 nan 0.0 nan nan nan nan 0.0 0.0 0.0 0.0 0.0 0.0 0.0 0.0 0.0 0.1 0.0 0.0 0.1 0.2 0.1 0.1 0.0 0.0 nan nan nan nan nan nan nan nan nan nan
0.0 0.0 0.0 0.0 0.0 0.0 0.0 0.0 0.0 0.0 0.0 0.0 0.0 0.0 0.0 0.0 0.0 0.0 0.0 0.0 0.1 0.0 0.0 1.0 0.2 0.3 0.1 0.0 nan nan nan nan nan nan nan nan nan nan
0.0 0.0 0.0 0.0 nan nan 0.0 0.0 0.0 0.0 nan nan nan nan nan nan nan 0.5 0.7 1.0 2.1 0.1 0.0 0.3 0.4 0.4 0.3 0.2 0.2 nan nan nan nan nan nan nan nan nan
0.0 0.0 nan 0.0 nan nan 0.1 0.1 0.1 0.0 0.0 0.0 0.0 0.0 nan nan nan 0.0 0.3 1.7 1.4 1.1 0.1 1.0 0.1 0.5 1.2 0.3 0.3 0.2 0.2 nan nan nan nan nan nan 0.0
0.4 0.3 0.2 nan nan nan nan 0.1 0.2 0.0 0.0 0.1 0.0 0.0 0.0 0.0 0.0 0.0 0.0 0.2 0.9 0.5 0.0 1.1 0.5 0.4 0.8 0.7 0.4 0.4 0.3 0.4 0.3 0.3 nan nan nan 0.0
0.3 0.4 0.5 nan nan nan 0.3 nan nan 0.2 2.2 2.1 1.6 1.0 0.8 0.7 0.1 0.1 0.0 0.0 0.0 0.1 0.1 0.0 1.8 0.6 0.7 0.9 0.7 0.4 0.4 0.5 0.5 0.5 0.6 nan nan nan
1.0 0.8 nan nan nan 0.2 nan nan 0.0 2.5 3.5 4.8 2.3 1.1 0.6 0.2 0.0 0.3 0.0 0.0 0.0 0.1 0.0 0.1 0.8 0.1 0.5 0.9 0.9 0.7 0.8 0.5 0.7 0.9 1.2 1.0 1.1 0.7
0.1 0.9 0.0 0.8 0.0 0.3 0.7 1.0 1.4 2.0 2.7 2.7 1.6 0.7 0.6 1.0 1.2 0.8 1.2 1.2 1.9 1.5 0.1 0.1 0.1 0.1 1.2 0.5 0.5 0.9 0.7 2.0 0.8 0.8 1.2 2.4 1.6 2.0
1.8 2.8 1.7 1.4 1.4 1.0 1.1 1.2 1.2 1.4 2.3 2.7 2.9 2.0 1.7 1.5 1.8 1.2 1.3 1.3 2.6 1.3 1.0 0.9 0.1 0.1 0.4 0.2 2.6 0.6 0.7 0.7 0.6 2.8 1.5 2.1 2.1 3.1
2.6 3.3 6.2 6.7 3.7 1.5 2.2 1.9 1.8 1.7 1.7 2.2 3.3 2.3 2.4 3.0 2.3 1.8 1.5 1.8 2.1 1.3 1.1 0.6 1.4 1.5 1.1 1.1 1.1 1.4 0.5 0.7 0.6 0.6 1.1 3.3 2.7 4.6
4.8 3.5 7.7 8.5 4.2 1.6 1.9 2.1 3.2 2.7 1.0 2.7 3.3 3.7 3.6 2.8 3.5 2.7 3.1 2.5 2.7 1.3 0.8 1.1 1.4 2.2 2.9 5.9 1.6 nan 2.4 0.9 1.9 2.2 1.3 2.4 4.5 3.1
1.9 3.4 4.9 5.0 2.3 1.8 1.7 2.3 2.8 4.2 4.3 3.2 4.6 6.6 7.7 5.3 5.0 3.3 2.7 4.4 2.5 1.2 1.0 0.5 0.8 1.1 3.1 9.5 10.7 4.9 nan 6.4 3.6 4.0 2.5 1.6 1.1 nan
2.4 2.1 4.1 3.0 3.2 2.6 7.7 9.3 12.4 11.1 11.1 14.1 8.1 8.0 15.0 4.0 4.7 3.2 3.6 2.9 2.4 1.1 1.1 1.0 0.9 0.0 1.0 2.7 16.5 6.2 4.4 nan 1.5 1.8 1.6 2.4 1.5 0.9
5.2 3.4 3.2 3.4 5.1 4.9 10.3 17.0 15.0 14.4 10.3 7.7 13.8 18.9 16.8 7.3 6.8 5.9 7.3 7.0 2.2 2.5 1.2 0.8 0.5 0.4 1.4 1.8 2.9 8.4 2.9 2.8 nan nan nan nan 3.1 4.8
9.4 4.1 6.0 7.6 6.4 7.6 4.6 9.3 4.3 18.2 7.6 8.0 7.5 7.5 31.4 11.1 5.1 5.4 6.3 4.0 2.5 2.6 1.6 1.6 0.8 0.6 1.0 0.9 1.5 3.5 2.4 4.6 1.8 1.7 4.0 nan nan nan

GFSNE_prec_sndepth_057.txt.gz
Snowfall_Accumulation
0.0 0.0 0.0 0.0 0.0 0.0 0.0 0.0 0.3 0.7 0.0 0.0 0.0 0.0 0.0 0.0 0.0 0.0 0.0 nan nan nan nan nan nan nan nan nan nan nan nan nan nan nan nan nan nan nan
0.0 0.0 0.0 0.0 0.0 0.0 0.0 0.0 0.0 0.0 0.1 0.0 0.0 0.0 0.0 0.0 0.0 0.0 0.0 nan nan nan nan nan nan nan nan nan nan nan nan nan nan nan nan nan nan nan
0.0 0.0 0.0 0.0 0.0 0.0 0.0 0.0 0.0 0.0 0.0 0.0 0.0 0.0 0.0 0.0 0.0 0.0 0.0 0.0 0.0 nan nan nan nan nan nan nan nan nan nan nan nan nan nan nan nan nan
0.0 0.0 0.0 0.0 0.0 0.0 0.0 0.0 0.0 0.0 0.0 0.0 0.0 0.0 0.0 0.0 0.0 0.0 0.0 0.0 0.0 nan nan nan nan nan nan nan nan nan nan nan nan nan nan nan nan nan
0.0 0.0 0.0 0.0 0.0 0.0 0.0 0.0 0.0 0.0 0.0 0.0 0.0 0.0 0.0 0.0 0.0 0.0 0.0 0.0 0.0 nan nan nan nan nan nan nan nan nan nan nan nan nan nan nan nan nan
0.0 0.0 0.0 0.0 0.0 0.0 0.0 0.0 0.0 0.0 0.0 0.0 0.0 0.0 0.0 0.0 0.0 0.0 0.0 0.0 0.0 0.0 nan nan nan nan nan nan nan nan nan nan nan nan nan nan nan nan
0.0 0.0 0.0 nan nan nan 0.0 0.0 0.0 0.0 0.0 0.0 0.0 0.0 0.0 0.0 0.0 0.0 0.1 0.0 0.0 0.0 0.0 0.0 0.0 0.0 0.0 nan nan nan nan nan nan nan nan nan nan nan
0.0 0.0 0.0 0.0 0.0 nan nan nan nan 0.0 0.0 0.2 0.0 0.0 0.0 0.0 0.0 0.0 0.1 0.1 0.2 0.0 0.0 0.1 0.0 0.0 0.0 0.0 nan nan nan nan nan nan nan nan nan nan
0.0 0.0 0.0 0.0 nan 0.0 nan nan nan nan 0.0 0.0 0.0 0.0 0.0 0.0 0.1 0.2 0.2 0.3 0.1 0.0 0.0 0.2 0.1 0.1 0.0 0.0 nan nan nan nan nan nan nan nan nan nan
0.0 0.0 0.0 0.0 0.0 0.0 0.0 0.0 0.0 0.0 0.0 0.0 0.0 0.0 0.0 0.0 0.0 0.0 0.1 0.1 0.1 0.0 0.0 1.0 0.2 0.3 0.1 0.0 nan nan nan nan nan nan nan nan nan nan
0.0 0.0 0.0 0.0 nan nan 0.0 0.0 0.0 0.0 nan nan nan nan nan nan nan 0.5 0.7 1.0 2.1 0.1 0.0 0.3 0.4 0.4 0.3 0.2 0.2 nan nan nan nan nan nan nan nan nan
0.0 0.0 nan 0.0 nan nan 0.1 0.1 0.1 0.0 0.0 0.0 0.0 0.0 nan nan nan 0.0 0.3 1.8 1.5 1.1 0.1 1.0 0.1 0.5 1.2 0.3 0.3 0.2 0.2 nan nan nan nan nan nan 0.0
0.4 0.3 0.2 nan nan nan nan 0.1 0.2 0.0 0.0 0.1 0.0 0.0 0.0 0.1 0.2 0.2 0.1 0.5 1.4 0.7 0.0 1.1 0.5 0.4 0.8 0.7 0.4 0.4 0.3 0.4 0.3 0.3 nan nan nan 0.0
0.3 0.4 0.5 nan nan nan 0.3 nan nan 0.2 2.2 2.1 1.6 1.0 0.8 0.7 0.1 0.1 0.1 0.0 0.1 0.2 0.1 0.0 1.8 0.6 0.7 0.9 0.7 0.4 0.4 0.5 0.5 0.5 0.6 nan nan nan
1.0 0.8 nan nan nan 0.2 nan nan 0.0 2.6 3.6 4.9 2.4 1.1 0.6 0.2 0.0 0.3 0.1 0.1 0.0 0.1 0.0 0.1 0.8 0.1 0.5 0.9 0.9 0.7 0.8 0.5 0.7 0.9 1.2 1.0 1.1 0.7
0.1 0.9 0.0 0.8 0.0 0.3 0.7 1.0 1.4 1.9 2.7 2.8 1.7 0.8 0.6 1.0 1.3 0.8 1.5 1.4 2.1 1.5 0.1 0.1 0.1 0.1 1.2 0.5 0.5 0.9 0.7 2.0 0.8 0.8 1.2 2.4 1.6 2.0
1.8 2.8 1.7 1.4 1.3 1.0 1.1 1.2 1.2 1.4 2.3 2.7 2.8 2.1 1.8 1.5 1.9 1.3 1.7 1.7 2.9 1.3 1.0 0.9 0.1 0.1 0.4 0.2 2.6 0.6 0.7 0.7 0.7 2.8 1.5 2.1 2.1 3.0
2.6 3.3 6.2 6.7 3.7 1.5 2.2 1.9 1.8 1.7 1.7 2.2 3.3 2.4 2.5 3.1 3.0 2.5 2.3 2.4 2.2 1.3 1.1 0.6 1.4 1.5 1.1 1.1 1.1 1.4 0.5 0.7 0.7 0.6 1.1 3.3 2.7 4.6
4.8 3.5 7.7 8.5 4.2 1.5 1.9 2.0 3.2 2.7 1.0 2.7 3.3 3.7 3.8 3.0 3.8 3.2 3.2 2.5 2.7 1.3 0.8 1.1 1.4 2.2 2.9 5.9 1.6 nan 2.4 0.9 1.9 2.2 1.3 2.4 4.5 3.1
1.9 3.4 4.9 5.0 2.3 1.8 1.7 2.3 2.8 4.2 4.3 3.2 4.7 6.8 8.0 5.6 5.3 3.5 2.8 4.5 2.6 1.3 1.0 0.5 0.8 1.1 3.1 9.5 10.7 4.9 nan 6.4 3.6 4.0 2.5 1.6 1.1 nan
2.4 2.1 4.1 2.9 3.2 2.6 7.7 9.3 12.4 11.1 11.1 14.2 8.3 8.8 16.9 6.4 6.3 4.2 3.9 2.9 2.4 1.3 1.2 1.0 0.9 0.0 1.0 2.7 16.5 6.2 4.4 nan 1.5 1.8 1.6 2.4 1.5 0.9
5.2 3.4 3.2 3.4 5.1 4.9 10.3 16.9 15.0 14.3 10.3 7.7 13.9 19.2 17.1 7.9 7.3 6.3 7.6 7.2 2.3 2.6 1.3 0.8 0.5 0.4 1.4 1.8 2.9 8.4 2.9 2.8 nan nan nan nan 3.1 4.8
9.4 4.1 6.0 7.6 6.4 7.6 4.6 9.3 4.3 18.2 7.5 8.0 7.6 8.0 32.1 11.8 5.7 6.0 6.7 4.3 2.6 2.8 1.7 1.9 0.8 0.6 1.0 0.9 1.5 3.5 2.4 4.6 1.8 1.7 4.0 nan nan nan

GFSNE_prec_sndepth_060.txt.gz
Snowfall_Accumulation
0.0 0.0 0.0 0.0 0.0 0.0 0.0 0.0 0.3 0.6 0.0 0.0 0.0 0.0 0.0 0.0 0.0 0.0 0.0 nan nan nan nan nan nan nan nan nan nan nan nan nan nan nan nan nan nan nan
0.0 0.0 0.0 0.0 0.0 0.0 0.0 0.0 0.0 0.0 0.1 0.0 0.0 0.0 0.0 0.0 0.0 0.0 0.0 nan nan nan nan nan nan nan nan nan nan nan nan nan nan nan nan nan nan nan
0.0 0.0 0.0 0.0 0.0 0.0 0.0 0.0 0.0 0.0 0.0 0.0 0.0 0.0 0.0 0.0 0.0 0.0 0.0 0.0 0.0 nan nan nan nan nan nan nan nan nan nan nan nan nan nan nan nan nan
0.0 0.0 0.0 0.0 0.0 0.0 0.0 0.0 0.0 0.0 0.0 0.0 0.0 0.0 0.0 0.0 0.0 0.0 0.0 0.0 0.0 nan nan nan nan nan nan nan nan nan nan nan nan nan nan nan nan nan
0.0 0.0 0.0 0.0 0.0 0.0 0.0 0.0 0.0 0.0 0.0 0.0 0.0 0.0 0.0 0.0 0.0 0.0 0.0 0.0 0.0 nan nan nan nan nan nan nan nan nan nan nan nan nan nan nan nan nan
0.0 0.0 0.0 0.0 0.0 0.0 0.0 0.0 0.0 0.0 0.0 0.0 0.0 0.0 0.0 0.0 0.0 0.0 0.0 0.0 0.0 0.0 nan nan nan nan nan nan nan nan nan nan nan nan nan nan nan nan
0.0 0.0 0.0 nan nan nan 0.0 0.0 0.0 0.0 0.0 0.0 0.0 0.0 0.0 0.0 0.0 0.0 0.1 0.0 0.0 0.0 0.0 0.0 0.0 0.0 0.0 nan nan nan nan nan nan nan nan nan nan nan
0.0 0.0 0.0 0.0 0.0 nan nan nan nan 0.0 0.0 0.2 0.0 0.0 0.0 0.0 0.0 0.0 0.1 0.1 0.3 0.0 0.0 0.1 0.0 0.0 0.0 0.0 nan nan nan nan nan nan nan nan nan nan
0.0 0.0 0.0 0.0 nan 0.0 nan nan nan nan 0.0 0.0 0.0 0.0 0.0 0.0 0.1 0.2 0.2 0.4 0.1 0.0 0.1 0.3 0.1 0.1 0.0 0.0 nan nan nan nan nan nan nan nan nan nan
0.0 0.0 0.0 0.0 0.0 0.0 0.0 0.0 0.0 0.0 0.0 0.0 0.0 0.0 0.0 0.0 0.0 0.0 0.1 0.1 0.1 0.0 0.1 1.1 0.2 0.3 0.1 0.0 nan nan nan nan nan nan nan nan nan nan
0.0 0.0 0.0 0.0 nan nan 0.0 0.0 0.0 0.0 nan nan nan nan nan nan nan 0.5 0.8 1.2 2.2 0.1 0.1 0.4 0.4 0.4 0.3 0.2 0.2 nan nan nan nan nan nan nan nan nan
0.0 0.0 nan 0.0 nan nan 0.1 0.1 0.1 0.0 0.0 0.0 0.0 0.0 nan nan nan 0.0 0.3 2.0 1.8 1.2 0.1 1.1 0.1 0.5 1.4 0.3 0.3 0.2 0.2 nan nan nan nan nan nan 0.0
0.4 0.3 0.2 nan nan nan nan 0.1 0.2 0.0 0.0 0.1 0.0 0.0 0.0 0.1 0.2 0.2 0.1 0.6 2.0 1.4 0.2 1.7 1.0 0.6 0.9 0.7 0.4 0.4 0.3 0.4 0.3 0.3 nan nan nan 0.0
0.3 0.4 0.5 nan nan nan 0.3 nan nan 0.2 2.2 2.1 1.6 1.0 0.8 0.7 0.1 0.1 0.1 0.1 0.1 0.3 0.2 0.5 2.2 0.6 0.7 0.9 0.7 0.4 0.4 0.5 0.5 0.5 0.6 nan nan nan
1.0 0.8 nan nan nan 0.2 nan nan 0.0 2.6 3.6 4.9 2.4 1.1 0.6 0.2 0.0 0.3 0.1 0.1 0.0 0.1 0.1 0.2 0.8 0.1 0.5 0.9 0.9 0.7 0.8 0.5 0.7 0.9 1.2 1.0 1.2 0.7
0.1 0.9 0.0 0.8 0.0 0.3 0.7 1.0 1.4 1.9 2.7 2.8 1.8 0.8 0.6 1.0 1.3 0.8 1.5 1.5 2.4 1.6 0.2 0.4 0.1 0.1 1.2 0.5 0.5 0.9 0.7 2.0 0.8 0.8 1.2 2.4 1.6 2.0
1.8 2.8 1.7 1.4 1.3 1.0 1.1 1.2 1.2 1.4 2.3 2.7 2.8 2.1 1.8 1.5 1.9 1.3 1.7 1.7 3.3 1.4 1.0 1.0 0.1 0.1 0.4 0.2 2.6 0.6 0.7 0.7 0.7 2.8 1.5 2.1 2.2 3.0
2.6 3.3 6.2 6.7 3.7 1.5 2.2 1.9 1.8 1.7 1.7 2.2 3.3 2.3 2.6 3.1 3.0 2.6 2.6 3.5 3.6 2.3 1.9 0.7 1.5 1.6 1.2 1.1 1.1 1.4 0.5 0.7 0.7 0.6 1.1 3.3 2.7 4.6
4.8 3.5 7.6 8.5 4.2 1.5 1.9 2.0 3.2 2.7 1.0 2.7 3.3 3.7 3.8 3.0 3.8 3.2 3.3 2.8 3.0 1.3 0.8 1.1 1.6 2.3 3.0 5.9 1.6 nan 2.4 0.9 1.9 2.2 1.3 2.4 4.5 3.1
1.9 3.4 4.9 5.0 2.3 1.8 1.7 2.3 2.8 4.2 4.3 3.2 4.6 6.8 8.1 5.7 5.4 3.7 3.1 5.1 3.2 1.3 1.0 0.5 0.9 1.1 3.1 9.5 10.7 4.9 nan 6.4 3.6 4.0 2.5 1.6 1.1 nan
2.4 2.1 4.1 3.0 3.2 2.6 7.7 9.3 12.4 11.1 11.0 14.2 8.3 8.8 16.9 6.9 6.8 5.3 5.7 4.0 3.1 1.3 1.3 1.0 0.9 0.0 1.0 2.7 16.5 6.2 4.4 nan 1.5 1.8 1.6 2.4 1.5 0.9
5.2 3.4 3.2 3.4 5.1 4.9 10.3 17.0 15.0 14.3 10.3 7.7 13.9 19.2 17.0 8.1 7.6 6.6 8.2 7.8 2.6 2.8 1.3 0.8 0.5 0.4 1.4 1.8 2.9 8.4 2.9 2.8 nan nan nan nan 3.1 4.8
9.4 4.1 6.0 7.6 6.4 7.6 4.6 9.3 4.3 18.2 7.6 8.1 7.6 8.0 32.0 11.9 6.0 6.4 7.1 4.6 2.9 3.0 1.9 2.1 1.0 0.6 1.0 0.9 1.5 3.5 2.4 4.6 1.8 1.7 4.0 nan nan nan

GFSNE_prec_sndepth_063.txt.gz
Snowfall_Accumulation
0.0 0.0 0.0 0.0 0.0 0.0 0.0 0.0 0.2 0.6 0.0 0.0 0.0 0.0 0.0 0.0 0.0 0.0 0.0 nan nan nan nan nan nan nan nan nan nan nan nan nan nan nan nan nan nan nan
0.0 0.0 0.0 0.0 0.0 0.0 0.0 0.0 0.0 0.0 0.1 0.0 0.0 0.0 0.0 0.0 0.0 0.0 0.0 nan nan nan nan nan nan nan nan nan nan nan nan nan nan nan nan nan nan nan
0.0 0.0 0.0 0.0 0.0 0.0 0.0 0.0 0.0 0.0 0.0 0.0 0.0 0.0 0.0 0.0 0.0 0.0 0.0 0.0 0.0 nan nan nan nan nan nan nan nan nan nan nan nan nan nan nan nan nan
0.0 0.0 0.0 0.0 0.0 0.0 0.0 0.0 0.0 0.0 0.0 0.0 0.0 0.0 0.0 0.0 0.0 0.0 0.0 0.0 0.0 nan nan nan nan nan nan nan nan nan nan nan nan nan nan nan nan nan
0.0 0.0 0.0 0.0 0.0 0.0 0.0 0.0 0.0 0.0 0.0 0.0 0.0 0.0 0.0 0.0 0.0 0.0 0.0 0.0 0.0 nan nan nan nan nan nan nan nan nan nan nan nan nan nan nan nan nan
0.0 0.0 0.0 0.0 0.0 0.0 0.0 0.0 0.0 0.0 0.0 0.0 0.0 0.0 0.0 0.0 0.0 0.0 0.0 0.0 0.0 0.0 nan nan nan nan nan nan nan nan nan nan nan nan nan nan nan nan
0.0 0.0 0.0 nan nan nan 0.0 0.0 0.0 0.0 0.0 0.0 0.0 0.0 0.0 0.0 0.0 0.0 0.1 0.0 0.0 0.0 0.0 0.0 0.0 0.0 0.0 nan nan nan nan nan nan nan nan nan nan nan
0.0 0.0 0.0 0.0 0.0 nan nan nan nan 0.0 0.0 0.2 0.0 0.0 0.0 0.0 0.0 0.0 0.1 0.1 0.3 0.0 0.0 0.1 0.0 0.0 0.0 0.0 nan nan nan nan nan nan nan nan nan nan
0.0 0.0 0.0 0.0 nan 0.0 nan nan nan nan 0.0 0.0 0.0 0.0 0.0 0.0 0.1 0.2 0.2 0.4 0.1 0.0 0.1 0.3 0.1 0.1 0.0 0.0 nan nan nan nan nan nan nan nan nan nan
0.0 0.0 0.0 0.0 0.0 0.0 0.0 0.0 0.0 0.0 0.0 0.0 0.0 0.0 0.0 0.0 0.0 0.0 0.1 0.1 0.1 0.0 0.0 1.3 0.2 0.3 0.2 0.0 nan nan nan nan nan nan nan nan nan nan
0.0 0.0 0.0 0.0 nan nan 0.0 0.0 0.0 0.0 nan nan nan nan nan nan nan 0.5 0.8 1.2 2.3 0.1 0.1 0.5 0.4 0.5 0.3 0.3 0.2 nan nan nan nan nan nan nan nan nan
0.0 0.0 nan 0.0 nan nan 0.1 0.1 0.1 0.0 0.0 0.0 0.0 0.0 nan nan nan 0.0 0.3 2.2 1.8 1.3 0.1 1.2 0.1 0.6 1.7 0.4 0.3 0.2 0.2 nan nan nan nan nan nan 0.0
0.3 0.3 0.2 nan nan nan nan 0.1 0.2 0.0 0.0 0.1 0.0 0.0 0.0 0.1 0.2 0.1 0.1 0.7 2.3 1.5 0.2 1.8 1.2 1.2 1.8 1.4 0.6 0.4 0.3 0.4 0.3 0.3 nan nan nan 0.0
0.3 0.4 0.5 nan nan nan 0.3 nan nan 0.2 2.2 2.1 1.6 1.0 0.8 0.7 0.1 0.1 0.1 0.1 0.1 0.4 0.2 0.8 3.4 1.3 1.4 1.4 0.7 0.4 0.4 0.5 0.5 0.5 0.6 nan nan nan
1.0 0.8 nan nan nan 0.2 nan nan 0.0 2.5 3.6 4.9 2.4 1.1 0.6 0.2 0.0 0.3 0.1 0.1 0.0 0.1 0.1 0.3 1.2 0.5 1.0 1.0 0.9 0.7 0.8 0.5 0.7 0.9 1.2 1.0 1.2 0.7
0.1 0.9 0.0 0.8 0.0 0.3 0.6 1.0 1.4 1.9 2.6 2.8 1.7 0.8 0.6 1.0 1.2 0.8 1.5 1.5 2.4 1.6 0.2 0.4 0.5 0.7 1.6 0.5 0.5 0.9 0.7 2.0 0.8 0.8 1.2 2.4 1.6 2.0
1.8 2.8 1.7 1.4 1.3 1.0 1.1 1.2 1.1 1.3 2.3 2.7 2.8 2.1 1.7 1.5 1.9 1.3 1.7 1.7 3.4 1.4 1.0 1.1 0.6 0.6 0.6 0.2 2.6 0.6 0.7 0.7 0.7 2.8 1.5 2.1 2.2 3.0
2.6 3.3 6.2 6.7 3.7 1.5 2.2 1.9 1.8 1.7 1.7 2.1 3.3 2.3 2.5 3.1 3.0 2.6 2.6 3.5 3.8 2.4 2.2 1.3 2.2 2.0 1.3 1.1 1.1 1.4 0.5 0.7 0.7 0.6 1.1 3.3 2.7 4.7
4.8 3.5 7.6 8.5 4.2 1.5 1.9 2.0 3.2 2.7 1.0 2.7 3.3 3.7 3.8 3.0 3.8 3.2 3.3 2.8 3.0 1.6 1.0 1.2 1.7 2.6 3.1 5.9 1.6 nan 2.4 0.9 1.9 2.2 1.3 2.4 4.5 3.1
1.8 3.4 4.9 5.0 2.3 1.7 1.7 2.3 2.8 4.2 4.3 3.2 4.7 6.8 8.1 5.7 5.4 3.7 3.1 5.2 3.4 2.1 1.5 0.7 0.9 1.1 3.1 9.5 10.7 4.9 nan 6.4 3.6 4.0 2.5 1.6 1.1 nan
2.3 2.0 4.1 3.0 3.2 2.6 7.7 9.3 12.4 11.1 11.0 14.2 8.3 8.8 16.9 6.9 6.8 5.3 5.7 4.2 3.5 2.5 2.0 1.3 0.9 0.0 1.1 2.7 16.5 6.2 4.4 nan 1.5 1.8 1.6 2.4 1.5 0.9
5.1 3.4 3.2 3.4 5.1 4.9 10.3 17.0 15.0 14.3 10.3 7.7 13.9 19.2 17.0 8.1 7.7 6.6 8.3 8.2 3.1 3.5 1.8 1.0 0.7 0.6 1.5 1.8 2.9 8.4 2.9 2.8 nan nan nan nan 3.1 4.8
9.5 4.1 6.0 7.6 6.4 7.6 4.6 9.3 4.3 18.2 7.6 8.1 7.6 8.0 31.9 12.0 6.0 6.4 7.2 4.8 3.4 3.4 2.3 2.3 1.3 0.8 1.0 0.9 1.5 3.5 2.4 4.6 1.8 1.7 4.0 nan nan nan

GFSNE_prec_sndepth_066.txt.gz
Snowfall_Accumulation
0.0 0.0 0.0 0.0 0.0 0.0 0.0 0.0 0.2 0.5 0.0 0.0 0.0 0.0 0.0 0.0 0.0 0.0 0.0 nan nan nan nan nan nan nan nan nan nan nan nan nan nan nan nan nan nan nan
0.0 0.0 0.0 0.0 0.0 0.0 0.0 0.0 0.0 0.0 0.1 0.0 0.0 0.0 0.0 0.0 0.0 0.0 0.0 nan nan nan nan nan nan nan nan nan nan nan nan nan nan nan nan nan nan nan
0.0 0.0 0.0 0.0 0.0 0.0 0.0 0.0 0.0 0.0 0.0 0.0 0.0 0.0 0.0 0.0 0.0 0.0 0.0 0.0 0.0 nan nan nan nan nan nan nan nan nan nan nan nan nan nan nan nan nan
0.0 0.0 0.0 0.0 0.0 0.0 0.0 0.0 0.0 0.0 0.0 0.0 0.0 0.0 0.0 0.0 0.0 0.0 0.0 0.0 0.0 nan nan nan nan nan nan nan nan nan nan nan nan nan nan nan nan nan
0.0 0.0 0.0 0.0 0.0 0.0 0.0 0.0 0.0 0.0 0.0 0.0 0.0 0.0 0.0 0.0 0.0 0.0 0.0 0.0 0.0 nan nan nan nan nan nan nan nan nan nan nan nan nan nan nan nan nan
0.0 0.0 0.0 0.0 0.0 0.0 0.0 0.0 0.0 0.0 0.0 0.0 0.0 0.0 0.0 0.0 0.0 0.0 0.0 0.0 0.0 0.0 nan nan nan nan nan nan nan nan nan nan nan nan nan nan nan nan
0.0 0.0 0.0 nan nan nan 0.0 0.0 0.0 0.0 0.0 0.0 0.0 0.0 0.0 0.0 0.0 0.0 0.1 0.0 0.0 0.0 0.0 0.0 0.0 0.0 0.0 nan nan nan nan nan nan nan nan nan nan nan
0.0 0.0 0.0 0.0 0.0 nan nan nan nan 0.0 0.0 0.2 0.0 0.0 0.0 0.0 0.0 0.0 0.1 0.1 0.3 0.0 0.1 0.1 0.0 0.0 0.0 0.0 nan nan nan nan nan nan nan nan nan nan
0.0 0.0 0.0 0.0 nan 0.0 nan nan nan nan 0.0 0.0 0.0 0.0 0.0 0.0 0.1 0.2 0.2 0.4 0.1 0.0 0.1 0.3 0.1 0.1 0.0 0.0 nan nan nan nan nan nan nan nan nan nan
0.0 0.0 0.0 0.0 0.0 0.0 0.0 0.0 0.0 0.0 0.0 0.0 0.0 0.0 0.0 0.0 0.0 0.1 0.1 0.1 0.1 0.0 0.0 1.3 0.2 0.3 0.2 0.0 nan nan nan nan nan nan nan nan nan nan
0.0 0.0 0.0 0.0 nan nan 0.0 0.0 0.0 0.0 nan nan nan nan nan nan nan 0.5 0.8 1.2 2.3 0.1 0.1 0.5 0.4 0.5 0.3 0.3 0.2 nan nan nan nan nan nan nan nan nan
0.0 0.0 nan 0.0 nan nan 0.1 0.1 0.1 0.0 0.0 0.0 0.0 0.0 nan nan nan 0.0 0.3 2.2 1.8 1.3 0.1 1.2 0.1 0.6 1.7 0.3 0.3 0.5 0.4 nan nan nan nan nan nan 0.0
0.3 0.3 0.2 nan nan nan nan 0.1 0.2 0.0 0.0 0.1 0.0 0.0 0.0 0.1 0.2 0.1 0.1 0.7 2.3 1.6 0.2 1.8 1.2 1.3 2.0 1.6 0.6 0.6 0.5 0.8 0.5 0.3 nan nan nan 0.0
0.3 0.4 0.5 nan nan nan 0.3 nan nan 0.2 2.2 2.1 1.6 1.0 0.8 0.7 0.1 0.1 0.1 0.1 0.1 0.4 0.2 0.8 3.8 1.4 1.6 1.9 1.2 0.4 0.5 0.5 0.5 0.5 0.6 nan nan nan
1.0 0.7 nan nan nan 0.2 nan nan 0.0 2.5 3.5 4.9 2.4 1.1 0.6 0.2 0.0 0.3 0.1 0.1 0.0 0.1 0.0 0.3 1.2 0.6 1.3 1.6 1.5 0.9 0.8 0.5 0.7 0.9 1.2 1.0 1.1 0.7
0.1 0.9 0.0 0.8 0.0 0.3 0.6 1.0 1.3 1.9 2.6 2.8 1.7 0.8 0.6 1.0 1.2 0.8 1.5 1.5 2.4 1.6 0.2 0.4 0.6 1.3 2.1 1.0 1.1 1.3 0.7 2.0 0.8 0.8 1.2 2.4 1.6 2.0
1.8 2.8 1.7 1.4 1.3 1.0 1.1 1.2 1.1 1.3 2.3 2.7 2.8 2.1 1.7 1.5 1.8 1.3 1.6 1.7 3.5 1.4 1.0 1.1 0.6 0.8 0.8 0.4 2.8 0.7 0.7 0.7 0.7 2.8 1.5 2.1 2.1 3.0
2.6 3.3 6.2 6.7 3.7 1.5 2.2 1.9 1.8 1.7 1.7 2.1 3.3 2.3 2.5 3.1 3.0 2.5 2.6 3.5 3.9 2.4 2.2 1.3 2.4 2.4 1.5 1.4 1.1 1.4 0.6 0.7 0.7 0.6 1.1 3.3 2.7 4.6
4.8 3.5 7.6 8.5 4.2 1.5 1.9 2.0 3.2 2.7 1.0 2.7 3.3 3.7 3.8 3.0 3.8 3.2 3.3 2.8 3.0 1.6 1.0 1.4 2.0 3.2 3.7 6.1 1.7 nan 2.4 0.9 1.9 2.2 1.3 2.4 4.5 3.1
1.8 3.4 4.9 5.0 2.3 1.7 1.7 2.3 2.7 4.2 4.3 3.2 4.6 6.8 8.1 5.8 5.4 3.7 3.1 5.2 3.4 2.1 1.5 0.9 1.3 1.5 3.4 9.5 10.7 4.9 nan 6.4 3.6 4.0 2.5 1.6 1.1 nan
2.5 2.1 4.3 3.2 3.3 2.6 7.8 9.3 12.4 11.1 11.0 14.1 8.3 8.8 16.9 6.9 6.8 5.3 5.8 4.2 3.5 2.5 2.0 1.4 1.4 0.2 1.5 2.9 16.6 6.2 4.4 nan 1.5 1.8 1.6 2.4 1.5 0.9
5.5 3.7 3.6 3.7 5.3 5.0 10.4 16.9 15.0 14.3 10.3 7.7 13.9 19.2 17.0 8.1 7.7 6.7 8.3 8.2 3.1 3.7 2.2 1.3 0.9 1.1 1.8 1.8 2.9 8.3 2.9 2.8 nan nan nan nan 3.1 4.8
9.7 4.5 6.3 7.7 6.5 7.6 4.6 9.3 4.3 18.2 7.6 8.1 7.7 8.1 31.9 12.0 6.0 6.4 7.2 4.8 3.5 3.5 2.8 2.8 1.9 1.5 1.3 1.0 1.5 3.5 2.4 4.6 1.8 1.7 4.0 nan nan nan

GFSNE_prec_sndepth_069.txt.gz
Snowfall_Accumulation
0.0 0.0 0.0 0.0 0.0 0.0 0.0 0.0 0.2 0.5 0.0 0.0 0.0 0.0 0.0 0.0 0.0 0.0 0.0 nan nan nan nan nan nan nan nan nan nan nan nan nan nan nan nan nan nan nan
0.0 0.0 0.0 0.0 0.0 0.0 0.0 0.0 0.0 0.0 0.1 0.0 0.0 0.0 0.0 0.0 0.0 0.0 0.0 nan nan nan nan nan nan nan nan nan nan nan nan nan nan nan nan nan nan nan
0.0 0.0 0.0 0.0 0.0 0.0 0.0 0.0 0.0 0.0 0.0 0.0 0.0 0.0 0.0 0.0 0.0 0.0 0.0 0.0 0.0 nan nan nan nan nan nan nan nan nan nan nan nan nan nan nan nan nan
0.0 0.0 0.0 0.0 0.0 0.0 0.0 0.0 0.0 0.0 0.0 0.0 0.0 0.0 0.0 0.0 0.0 0.0 0.0 0.0 0.0 nan nan nan nan nan nan nan nan nan nan nan nan nan nan nan nan nan
0.0 0.0 0.0 0.0 0.0 0.0 0.0 0.0 0.0 0.0 0.0 0.0 0.0 0.0 0.0 0.0 0.0 0.0 0.0 0.0 0.0 nan nan nan nan nan nan nan nan nan nan nan nan nan nan nan nan nan
0.0 0.0 0.0 0.0 0.0 0.0 0.0 0.0 0.0 0.0 0.0 0.0 0.0 0.0 0.0 0.0 0.0 0.0 0.0 0.0 0.0 0.0 nan nan nan nan nan nan nan nan nan nan nan nan nan nan nan nan
0.0 0.0 0.0 nan nan nan 0.0 0.0 0.0 0.0 0.0 0.0 0.0 0.0 0.0 0.0 0.0 0.0 0.0 0.0 0.0 0.0 0.0 0.0 0.0 0.0 0.0 nan nan nan nan nan nan nan nan nan nan nan
0.0 0.0 0.0 0.0 0.0 nan nan nan nan 0.0 0.0 0.2 0.0 0.0 0.0 0.0 0.0 0.0 0.1 0.1 0.2 0.0 0.0 0.1 0.0 0.0 0.0 0.0 nan nan nan nan nan nan nan nan nan nan
0.0 0.0 0.0 0.0 nan 0.0 nan nan nan nan 0.0 0.0 0.0 0.0 0.0 0.0 0.1 0.1 0.2 0.3 0.1 0.0 0.0 0.3 0.1 0.1 0.0 0.0 nan nan nan nan nan nan nan nan nan nan
0.0 0.0 0.0 0.0 0.0 0.0 0.0 0.0 0.0 0.0 0.0 0.0 0.0 0.0 0.0 0.0 0.0 0.0 0.1 0.1 0.1 0.0 0.0 1.2 0.2 0.3 0.1 0.0 nan nan nan nan nan nan nan nan nan nan
0.0 0.0 0.0 0.0 nan nan 0.0 0.0 0.0 0.0 nan nan nan nan nan nan nan 0.5 0.7 1.1 2.1 0.1 0.1 0.4 0.3 0.4 0.3 0.2 0.1 nan nan nan nan nan nan nan nan nan
0.1 0.0 nan 0.0 nan nan 0.1 0.0 0.1 0.0 0.0 0.0 0.0 0.0 nan nan nan 0.0 0.2 2.1 1.7 1.2 0.1 1.1 0.1 0.5 1.6 0.3 0.3 0.4 0.3 nan nan nan nan nan nan 0.0
0.3 0.3 0.2 nan nan nan nan 0.1 0.1 0.0 0.0 0.1 0.0 0.0 0.0 0.1 0.2 0.1 0.1 0.7 2.2 1.5 0.2 1.6 1.1 1.2 1.9 1.5 0.5 0.5 0.4 0.7 0.6 0.3 nan nan nan 0.0
0.3 0.4 0.4 nan nan nan 0.2 nan nan 0.2 2.1 2.0 1.5 1.0 0.8 0.6 0.1 0.1 0.1 0.0 0.1 0.4 0.1 0.6 3.8 1.3 1.6 1.9 1.1 0.4 0.5 0.5 0.5 0.5 0.5 nan nan nan
0.9 0.7 nan nan nan 0.2 nan nan 0.0 2.5 3.5 4.8 2.4 1.1 0.6 0.2 0.0 0.3 0.0 0.0 0.0 0.1 0.0 0.2 1.2 0.6 1.4 1.7 1.4 0.8 0.8 0.5 0.6 0.8 1.0 0.8 0.9 0.6
0.1 0.8 0.0 0.8 0.0 0.3 0.6 1.0 1.3 1.9 2.6 2.8 1.7 0.8 0.6 1.0 1.2 0.8 1.5 1.4 2.4 1.6 0.1 0.3 0.5 1.4 2.4 1.0 1.1 1.3 0.8 1.8 0.6 0.6 1.0 2.0 1.3 1.7
1.9 2.8 1.7 1.4 1.3 1.0 1.1 1.1 1.1 1.3 2.2 2.7 2.8 2.0 1.7 1.5 1.8 1.3 1.6 1.7 3.4 1.4 1.0 1.0 0.5 0.7 0.7 0.5 2.9 0.7 0.7 0.6 0.6 2.4 1.2 1.8 1.8 2.5
2.6 3.3 6.2 6.7 3.6 1.5 2.2 1.9 1.8 1.7 1.7 2.1 3.3 2.3 2.5 3.1 2.9 2.5 2.5 3.4 3.8 2.4 2.1 1.2 2.3 2.4 1.4 1.3 1.1 1.3 0.5 0.7 0.6 0.5 0.9 2.8 2.3 3.8
4.7 3.5 7.8 8.5 4.2 1.5 1.8 2.0 3.1 2.6 1.0 2.6 3.3 3.7 3.7 3.0 3.7 3.1 3.2 2.7 2.9 1.5 1.0 1.3 1.9 3.2 3.8 6.2 1.5 nan 2.4 0.8 1.7 1.9 1.1 2.1 3.9 2.5
1.8 3.4 4.9 5.0 2.3 1.8 1.7 2.3 2.7 4.1 4.2 3.2 4.6 6.7 8.0 5.7 5.4 3.6 3.0 5.2 3.3 2.1 1.5 0.8 1.3 1.8 4.3 10.1 11.4 4.6 nan 5.8 3.1 3.4 2.2 1.3 0.9 nan
2.6 2.3 4.3 3.2 3.4 2.7 7.8 9.3 12.4 11.1 11.0 14.1 8.2 8.8 16.8 6.9 6.8 5.3 5.7 4.1 3.5 2.5 2.0 1.4 1.3 0.3 1.8 3.4 16.9 5.9 3.9 nan 1.1 1.4 1.3 2.1 1.3 0.8
5.6 3.9 3.8 3.8 5.4 5.1 10.4 16.9 14.9 14.2 10.2 7.6 13.8 19.1 17.0 8.1 7.7 6.6 8.3 8.2 3.1 3.6 2.1 1.2 0.9 1.3 2.1 2.2 3.0 8.0 2.6 2.5 nan nan nan nan 2.7 4.3
9.8 4.5 6.4 7.8 6.5 7.6 4.6 9.2 4.3 18.1 7.5 8.1 7.6 8.0 31.7 12.0 6.0 6.4 7.2 4.8 3.5 3.5 2.8 2.8 2.0 1.9 1.5 1.3 1.7 3.4 2.2 4.4 1.6 1.6 3.5 nan nan nan

GFSNE_prec_sndepth_072.txt.gz
Snowfall_Accumulation
0.0 0.0 0.0 0.0 0.0 0.0 0.0 0.0 0.2 0.4 0.0 0.0 0.0 0.0 0.0 0.0 0.0 0.0 0.0 nan nan nan nan nan nan nan nan nan nan nan nan nan nan nan nan nan nan nan
0.0 0.0 0.0 0.0 0.0 0.0 0.0 0.0 0.0 0.0 0.0 0.0 0.0 0.0 0.0 0.0 0.0 0.0 0.0 nan nan nan nan nan nan nan nan nan nan nan nan nan nan nan nan nan nan nan
0.0 0.0 0.0 0.0 0.0 0.0 0.0 0.0 0.0 0.0 0.0 0.0 0.0 0.0 0.0 0.0 0.0 0.0 0.0 0.0 0.0 nan nan nan nan nan nan nan nan nan nan nan nan nan nan nan nan nan
0.0 0.0 0.0 0.0 0.0 0.0 0.0 0.0 0.0 0.0 0.0 0.0 0.0 0.0 0.0 0.0 0.0 0.0 0.0 0.0 0.0 nan nan nan nan nan nan nan nan nan nan nan nan nan nan nan nan nan
0.0 0.0 0.0 0.0 0.0 0.0 0.0 0.0 0.0 0.0 0.0 0.0 0.0 0.0 0.0 0.0 0.0 0.0 0.0 0.0 0.0 nan nan nan nan nan nan nan nan nan nan nan nan nan nan nan nan nan
0.0 0.0 0.0 0.0 0.0 0.0 0.0 0.0 0.0 0.0 0.0 0.0 0.0 0.0 0.0 0.0 0.0 0.0 0.0 0.0 0.0 0.0 nan nan nan nan nan nan nan nan nan nan nan nan nan nan nan nan
0.0 0.0 0.0 nan nan nan 0.0 0.0 0.0 0.0 0.0 0.0 0.0 0.0 0.0 0.0 0.0 0.0 0.0 0.0 0.0 0.0 0.0 0.0 0.0 0.0 0.0 nan nan nan nan nan nan nan nan nan nan nan
0.0 0.0 0.0 0.0 0.0 nan nan nan nan 0.0 0.0 0.1 0.0 0.0 0.0 0.0 0.0 0.0 0.0 0.0 0.2 0.0 0.0 0.0 0.0 0.0 0.0 0.0 nan nan nan nan nan nan nan nan nan nan
0.0 0.0 0.0 0.0 nan 0.0 nan nan nan nan 0.0 0.0 0.0 0.0 0.0 0.0 0.0 0.0 0.1 0.2 0.0 0.0 0.0 0.2 0.1 0.0 0.0 0.0 nan nan nan nan nan nan nan nan nan nan
0.0 0.0 0.0 0.0 0.0 0.0 0.0 0.0 0.0 0.0 0.0 0.0 0.0 0.0 0.0 0.0 0.0 0.0 0.0 0.0 0.0 0.0 0.0 0.9 0.1 0.2 0.1 0.0 nan nan nan nan nan nan nan nan nan nan
0.0 0.0 0.0 0.1 nan nan 0.0 0.1 0.0 0.0 nan nan nan nan nan nan nan 0.4 0.6 0.9 1.7 0.0 0.0 0.3 0.3 0.3 0.2 0.2 0.1 nan nan nan nan nan nan nan nan nan
0.1 0.1 nan 0.0 nan nan 0.1 0.0 0.1 0.0 0.0 0.0 0.0 0.0 nan nan nan 0.0 0.2 1.6 1.3 1.0 0.1 0.9 0.1 0.4 1.2 0.2 0.2 0.3 0.2 nan nan nan nan nan nan 0.0
0.5 0.6 0.5 nan nan nan nan 0.1 0.1 0.0 0.0 0.1 0.0 0.0 0.0 0.0 0.1 0.1 0.0 0.6 1.8 1.2 0.1 1.3 0.9 0.9 1.5 1.1 0.4 0.3 0.3 0.5 0.5 0.2 nan nan nan 0.0
0.7 0.6 0.7 nan nan nan 0.2 nan nan 0.2 1.7 1.7 1.3 0.8 0.6 0.6 0.0 0.1 0.0 0.0 0.0 0.2 0.1 0.3 3.2 1.1 1.3 1.6 0.9 0.3 0.4 0.4 0.4 0.4 0.4 nan nan nan
1.3 1.1 nan nan nan 0.2 nan nan 0.0 2.1 3.0 4.0 2.0 0.9 0.5 0.1 0.0 0.2 0.0 0.0 0.0 0.0 0.0 0.1 1.0 0.3 1.2 1.6 1.3 0.7 0.6 0.4 0.4 0.6 0.8 0.6 0.7 0.5
0.4 1.0 0.0 0.7 0.0 0.2 0.6 0.8 1.1 1.6 2.3 2.3 1.5 0.7 0.5 0.9 1.1 0.7 1.4 1.3 2.2 1.4 0.1 0.2 0.3 0.9 2.2 0.9 1.0 1.1 0.6 1.6 0.5 0.5 0.8 1.5 1.0 1.2
1.7 2.6 1.6 1.3 1.1 0.9 1.0 1.0 1.0 1.1 1.9 2.3 2.6 1.9 1.6 1.4 1.7 1.2 1.5 1.5 3.3 1.3 0.9 0.8 0.3 0.3 0.5 0.3 2.7 0.6 0.6 0.5 0.5 1.8 1.0 1.4 1.3 1.8
2.4 3.1 6.0 6.7 3.4 1.3 2.0 1.7 1.6 1.5 1.5 2.0 3.2 2.2 2.4 3.0 2.8 2.4 2.5 3.3 3.7 2.2 1.9 1.0 1.9 1.9 1.1 1.0 0.9 1.1 0.4 0.6 0.5 0.4 0.7 2.3 1.7 2.7
4.6 3.6 8.0 8.5 4.1 1.4 1.6 1.8 2.8 2.6 0.9 2.6 3.2 3.6 3.6 2.9 3.6 3.0 3.1 2.6 2.8 1.4 0.9 1.1 1.7 2.8 3.6 6.0 1.2 nan 2.3 0.8 1.4 1.7 0.9 1.7 3.0 1.9
1.9 3.5 4.9 5.0 2.3 1.7 1.6 2.1 2.6 4.1 4.2 3.2 4.5 6.6 7.9 5.6 5.3 3.5 2.9 5.0 3.2 2.0 1.4 0.7 1.1 1.5 4.2 10.1 11.5 4.2 nan 5.6 2.9 2.8 1.8 1.1 0.7 nan
2.5 2.2 4.2 3.2 3.2 2.6 7.8 9.3 12.4 11.0 10.9 14.0 8.2 8.7 16.7 6.8 6.7 5.2 5.6 4.1 3.5 2.4 1.9 1.3 1.1 0.3 1.6 3.4 17.1 5.6 3.2 nan 1.1 1.2 0.9 1.7 1.1 0.7
5.5 3.9 3.7 3.8 5.3 5.0 10.3 16.8 14.8 14.1 10.1 7.6 13.7 19.0 16.8 8.0 7.6 6.6 8.2 8.1 3.1 3.6 2.1 1.2 0.7 1.1 2.0 2.3 3.0 8.0 2.9 2.4 nan nan nan nan 2.2 3.6
9.7 4.5 6.3 7.7 6.5 7.5 4.5 9.1 4.3 17.9 7.4 8.0 7.5 7.9 31.5 11.9 5.9 6.4 7.2 4.8 3.5 3.5 2.8 2.7 1.9 1.8 1.5 1.4 1.9 3.6 2.5 4.6 1.4 1.3 2.9 nan nan nan

GFSNE_prec_sndepth_075.txt.gz
Snowfall_Accumulation
0.0 0.0 0.0 0.0 0.0 0.0 0.0 0.0 0.1 0.3 0.0 0.0 0.0 0.0 0.0 0.0 0.0 0.0 0.0 nan nan nan nan nan nan nan nan nan nan nan nan nan nan nan nan nan nan nan
0.0 0.0 0.0 0.0 0.0 0.0 0.0 0.0 0.0 0.0 0.0 0.0 0.0 0.0 0.0 0.0 0.0 0.0 0.0 nan nan nan nan nan nan nan nan nan nan nan nan nan nan nan nan nan nan nan
0.0 0.0 0.0 0.0 0.0 0.0 0.0 0.0 0.0 0.0 0.0 0.0 0.0 0.0 0.0 0.0 0.0 0.0 0.0 0.0 0.0 nan nan nan nan nan nan nan nan nan nan nan nan nan nan nan nan nan
0.0 0.0 0.0 0.0 0.0 0.0 0.0 0.0 0.0 0.0 0.0 0.0 0.0 0.0 0.0 0.0 0.0 0.0 0.0 0.0 0.0 nan nan nan nan nan nan nan nan nan nan nan nan nan nan nan nan nan
0.0 0.0 0.0 0.0 0.0 0.0 0.0 0.0 0.0 0.0 0.0 0.0 0.0 0.0 0.0 0.0 0.0 0.0 0.0 0.0 0.0 nan nan nan nan nan nan nan nan nan nan nan nan nan nan nan nan nan
0.0 0.0 0.0 0.0 0.0 0.0 0.0 0.0 0.0 0.0 0.0 0.0 0.0 0.0 0.0 0.0 0.0 0.0 0.0 0.0 0.0 0.0 nan nan nan nan nan nan nan nan nan nan nan nan nan nan nan nan
0.0 0.0 0.0 nan nan nan 0.0 0.0 0.0 0.0 0.0 0.0 0.0 0.0 0.0 0.0 0.0 0.0 0.0 0.0 0.0 0.0 0.0 0.0 0.0 0.0 0.0 nan nan nan nan nan nan nan nan nan nan nan
0.0 0.0 0.0 0.0 0.0 nan nan nan nan 0.0 0.0 0.1 0.0 0.0 0.0 0.0 0.0 0.0 0.0 0.0 0.1 0.0 0.0 0.0 0.0 0.0 0.0 0.0 nan nan nan nan nan nan nan nan nan nan
0.0 0.0 0.0 0.0 nan 0.0 nan nan nan nan 0.0 0.0 0.0 0.0 0.0 0.0 0.0 0.0 0.0 0.1 0.0 0.0 0.0 0.1 0.0 0.0 0.0 0.0 nan nan nan nan nan nan nan nan nan nan
0.0 0.0 0.0 0.0 0.0 0.0 0.0 0.0 0.0 0.1 0.1 0.0 0.0 0.0 0.0 0.0 0.0 0.0 0.0 0.0 0.0 0.0 0.0 0.7 0.1 0.1 0.0 0.0 nan nan nan nan nan nan nan nan nan nan
0.0 0.0 0.0 0.0 nan nan 0.0 0.3 0.9 1.2 nan nan nan nan nan nan nan 0.3 0.5 0.7 1.3 0.0 0.0 0.3 0.2 0.2 0.1 0.1 0.0 nan nan nan nan nan nan nan nan nan
0.1 0.1 nan 0.0 nan nan 0.1 0.1 0.2 0.2 0.2 0.3 0.2 0.1 nan nan nan 0.0 0.1 1.3 1.1 0.8 0.0 0.7 0.0 0.3 1.0 0.2 0.2 0.2 0.2 nan nan nan nan nan nan 0.0
0.6 0.6 0.6 nan nan nan nan 0.2 0.3 0.2 0.3 0.2 0.0 0.0 0.0 0.0 0.1 0.0 0.0 0.5 1.5 1.0 0.1 1.0 0.7 0.7 1.2 0.9 0.3 0.3 0.3 0.4 0.4 0.2 nan nan nan 0.0
0.9 0.9 1.3 nan nan nan 0.9 nan nan 0.4 1.7 1.5 1.1 0.7 0.5 0.5 0.0 0.1 0.0 0.0 0.0 0.2 0.1 0.2 2.8 0.9 1.1 1.4 0.7 0.2 0.3 0.3 0.3 0.3 0.4 nan nan nan
1.4 1.3 nan nan nan 0.8 nan nan 0.2 2.1 2.7 3.5 1.8 0.8 0.4 0.1 0.0 0.2 0.0 0.0 0.0 0.0 0.0 0.1 0.9 0.2 1.0 1.4 1.1 0.6 0.5 0.3 0.4 0.5 0.6 0.5 0.6 0.4
0.7 1.7 0.4 1.1 0.2 0.5 0.9 0.9 1.1 1.5 2.0 2.1 1.4 0.6 0.4 0.8 1.0 0.6 1.2 1.2 2.0 1.3 0.1 0.1 0.2 0.6 2.0 0.8 0.8 1.0 0.5 1.4 0.4 0.4 0.7 1.2 0.8 1.0
2.1 3.1 2.2 1.8 1.2 0.9 1.0 1.0 0.9 1.0 1.8 2.1 2.4 1.7 1.5 1.3 1.7 1.1 1.4 1.5 3.2 1.3 0.8 0.7 0.2 0.2 0.4 0.2 2.4 0.5 0.5 0.4 0.4 1.4 0.9 1.2 1.1 1.5
2.6 3.2 5.9 6.7 3.3 1.4 1.9 1.7 1.5 1.3 1.3 1.8 3.1 2.2 2.4 2.9 2.8 2.3 2.4 3.2 3.6 2.1 1.8 0.9 1.7 1.7 0.9 0.8 0.8 0.9 0.4 0.5 0.4 0.3 0.6 1.9 1.4 2.1
4.3 3.4 7.5 7.9 4.0 1.3 1.5 1.7 2.7 2.5 0.9 2.6 3.2 3.6 3.6 2.8 3.6 3.0 3.1 2.6 2.8 1.3 0.8 1.0 1.5 2.6 3.5 5.9 1.0 nan 2.2 0.9 1.6 2.0 0.9 1.4 2.5 1.5
2.0 3.5 5.0 4.9 2.2 1.6 1.5 1.9 2.5 4.1 4.2 3.1 4.5 6.6 7.9 5.5 5.2 3.5 2.9 5.0 3.2 1.9 1.3 0.6 1.0 1.4 4.1 10.0 11.4 4.0 nan 5.5 3.0 3.1 2.1 1.1 0.6 nan
2.3 2.2 4.2 3.1 3.2 2.5 7.7 9.2 12.3 10.9 10.8 13.9 8.1 8.7 16.6 6.7 6.6 5.1 5.5 4.1 3.4 2.3 1.9 1.3 1.0 0.3 1.5 3.2 17.0 5.5 2.8 nan 1.2 2.0 1.4 2.4 1.1 0.6
5.5 3.8 3.7 3.7 5.3 4.9 10.2 16.7 14.6 13.9 10.0 7.4 13.6 18.8 16.7 7.9 7.6 6.5 8.1 8.1 3.0 3.5 2.0 1.1 0.7 1.1 1.9 2.3 3.0 7.9 2.7 2.1 nan nan nan nan 2.0 3.4
9.6 4.4 6.2 7.6 6.4 7.4 4.4 9.0 4.2 17.8 7.4 7.9 7.4 7.8 31.3 11.8 5.9 6.3 7.1 4.8 3.4 3.5 2.7 2.7 1.9 1.8 1.5 1.4 1.9 3.6 2.4 4.7 2.0 1.9 3.1 nan nan nan

GFSNE_prec_sndepth_078.txt.gz
Snowfall_Accumulation
0.0 0.0 0.0 0.0 0.0 0.0 0.0 0.0 0.1 0.3 0.0 0.0 0.0 0.0 0.0 0.0 0.0 0.0 0.0 nan nan nan nan nan nan nan nan nan nan nan nan nan nan nan nan nan nan nan
0.0 0.0 0.0 0.0 0.0 0.0 0.0 0.0 0.0 0.0 0.0 0.0 0.0 0.0 0.0 0.0 0.0 0.0 0.0 nan nan nan nan nan nan nan nan nan nan nan nan nan nan nan nan nan nan nan
0.0 0.0 0.0 0.0 0.0 0.0 0.0 0.0 0.0 0.0 0.0 0.0 0.0 0.0 0.0 0.0 0.0 0.0 0.0 0.0 0.0 nan nan nan nan nan nan nan nan nan nan nan nan nan nan nan nan nan
0.0 0.0 0.0 0.0 0.0 0.0 0.0 0.0 0.0 0.0 0.0 0.0 0.0 0.0 0.0 0.0 0.0 0.0 0.0 0.0 0.0 nan nan nan nan nan nan nan nan nan nan nan nan nan nan nan nan nan
0.0 0.0 0.0 0.0 0.0 0.0 0.0 0.0 0.0 0.0 0.0 0.0 0.0 0.0 0.0 0.0 0.0 0.0 0.0 0.0 0.0 nan nan nan nan nan nan nan nan nan nan nan nan nan nan nan nan nan
0.0 0.0 0.0 0.0 0.0 0.0 0.0 0.0 0.0 0.0 0.0 0.0 0.0 0.0 0.0 0.0 0.0 0.0 0.0 0.0 0.0 0.0 nan nan nan nan nan nan nan nan nan nan nan nan nan nan nan nan
0.0 0.0 0.0 nan nan nan 0.0 0.0 0.0 0.0 0.0 0.0 0.0 0.0 0.0 0.0 0.0 0.0 0.0 0.0 0.0 0.0 0.0 0.0 0.0 0.0 0.0 nan nan nan nan nan nan nan nan nan nan nan
0.0 0.0 0.0 0.0 0.0 nan nan nan nan 0.0 0.0 0.1 0.0 0.0 0.0 0.0 0.0 0.0 0.0 0.0 0.1 0.0 0.0 0.0 0.0 0.0 0.0 0.0 nan nan nan nan nan nan nan nan nan nan
0.0 0.0 0.0 0.0 nan 0.0 nan nan nan nan 0.0 0.0 0.0 0.0 0.0 0.0 0.0 0.0 0.0 0.2 0.0 0.0 0.0 0.1 0.0 0.0 0.0 0.0 nan nan nan nan nan nan nan nan nan nan
0.0 0.0 0.0 0.0 0.0 0.0 0.0 0.0 0.4 0.3 0.2 0.0 0.1 0.1 0.1 0.0 0.1 0.1 0.2 0.1 0.0 0.0 0.0 0.7 0.1 0.1 0.0 0.0 nan nan nan nan nan nan nan nan nan nan
0.0 0.0 0.0 0.0 nan nan 0.0 0.3 1.1 1.8 nan nan nan nan nan nan nan 0.3 0.6 0.8 1.4 0.1 0.0 0.3 0.2 0.2 0.1 0.1 0.0 nan nan nan nan nan nan nan nan nan
0.1 0.1 nan 0.0 nan nan 0.1 0.1 0.4 0.3 0.3 0.4 0.5 0.5 nan nan nan 0.2 0.3 1.4 1.1 0.8 0.0 0.7 0.0 0.3 1.0 0.2 0.1 0.2 0.2 nan nan nan nan nan nan 0.0
0.8 0.9 0.8 nan nan nan nan 0.2 0.4 0.3 0.7 0.5 0.4 0.3 0.3 0.3 0.3 0.2 0.1 0.7 1.5 1.0 0.1 1.0 0.7 0.7 1.1 0.9 0.3 0.3 0.2 0.4 0.3 0.2 nan nan nan 0.0
1.0 1.1 2.0 nan nan nan 1.1 nan nan 0.7 2.1 2.0 1.7 1.2 0.9 0.6 0.1 0.1 0.1 0.0 0.0 0.2 0.1 0.2 2.8 0.9 1.1 1.4 0.7 0.2 0.3 0.3 0.3 0.3 0.3 nan nan nan
1.5 1.7 nan nan nan 0.9 nan nan 0.4 2.7 3.3 3.8 1.9 0.9 0.5 0.2 0.1 0.2 0.0 0.0 0.0 0.0 0.0 0.1 0.9 0.2 1.0 1.4 1.1 0.6 0.5 0.3 0.3 0.5 0.6 0.5 0.6 0.4
1.1 2.2 0.6 1.3 0.3 0.6 1.1 1.1 1.1 1.5 2.1 2.3 1.7 0.8 0.4 0.8 1.0 0.6 1.2 1.1 2.0 1.3 0.1 0.1 0.2 0.6 2.0 0.7 0.8 0.9 0.5 1.4 0.4 0.4 0.6 1.1 0.8 0.9
2.4 3.5 2.7 2.3 1.9 1.5 1.5 1.5 1.6 1.5 2.0 2.2 2.5 1.8 1.5 1.3 1.6 1.1 1.4 1.5 3.2 1.3 0.8 0.7 0.2 0.2 0.4 0.2 2.4 0.5 0.5 0.4 0.4 1.4 0.9 1.2 1.0 1.4
3.4 4.0 6.7 7.5 4.1 2.2 2.6 2.1 1.7 1.4 1.3 1.8 3.0 2.2 2.4 2.9 2.8 2.3 2.4 3.2 3.6 2.1 1.8 0.9 1.7 1.7 0.9 0.8 0.7 0.9 0.4 0.5 0.5 0.4 0.6 2.2 1.5 2.0
5.5 4.6 8.6 8.9 4.7 1.9 1.9 1.9 2.8 2.5 0.9 2.5 3.2 3.6 3.6 2.8 3.5 3.0 3.1 2.6 2.8 1.3 0.8 1.0 1.5 2.6 3.5 5.8 1.0 nan 2.1 0.9 1.6 1.9 0.9 1.5 2.7 1.7
2.6 4.0 5.5 5.2 2.5 1.8 1.6 2.0 2.5 4.0 4.2 3.1 4.5 6.6 7.9 5.6 5.2 3.5 2.9 5.0 3.2 1.9 1.3 0.6 1.0 1.4 4.7 10.3 11.4 4.0 nan 5.4 3.0 3.0 2.1 1.3 0.9 nan
3.0 2.7 4.6 3.3 3.3 2.5 7.7 9.2 12.2 10.9 10.7 13.9 8.1 8.7 16.6 6.7 6.6 5.1 5.5 4.1 3.4 2.3 1.9 1.3 1.0 0.3 1.4 3.1 17.0 5.5 2.8 nan 1.2 1.9 1.5 2.9 2.2 1.5
5.7 3.9 3.8 3.7 5.3 4.9 10.2 16.6 14.6 13.9 9.9 7.4 13.5 18.7 16.7 7.9 7.6 6.5 8.1 8.1 3.0 3.5 2.1 1.1 0.7 1.1 1.9 2.4 3.1 7.9 2.7 2.1 nan nan nan nan 3.4 5.2
9.8 4.5 6.2 7.6 6.3 7.4 4.4 8.9 4.2 17.7 7.3 7.8 7.4 7.8 31.2 11.8 5.8 6.3 7.2 4.8 3.5 3.5 2.8 2.8 2.0 1.8 1.5 1.4 2.0 3.7 2.4 4.7 2.0 2.0 3.2 nan nan nan

GFSNE_prec_sndepth_081.txt.gz
Snowfall_Accumulation
0.0 0.0 0.0 0.0 0.0 0.0 0.0 0.0 0.1 0.3 0.0 0.0 0.0 0.0 0.0 0.0 0.0 0.0 0.0 nan nan nan nan nan nan nan nan nan nan nan nan nan nan nan nan nan nan nan
0.0 0.0 0.0 0.0 0.0 0.0 0.0 0.0 0.0 0.0 0.0 0.0 0.0 0.0 0.0 0.0 0.0 0.0 0.0 nan nan nan nan nan nan nan nan nan nan nan nan nan nan nan nan nan nan nan
0.0 0.0 0.0 0.0 0.0 0.0 0.0 0.0 0.0 0.0 0.0 0.0 0.0 0.0 0.0 0.0 0.0 0.0 0.0 0.0 0.0 nan nan nan nan nan nan nan nan nan nan nan nan nan nan nan nan nan
0.0 0.0 0.0 0.0 0.0 0.0 0.0 0.0 0.0 0.0 0.0 0.0 0.0 0.0 0.0 0.0 0.0 0.0 0.0 0.0 0.0 nan nan nan nan nan nan nan nan nan nan nan nan nan nan nan nan nan
0.0 0.0 0.0 0.0 0.0 0.0 0.0 0.0 0.0 0.0 0.0 0.0 0.0 0.0 0.0 0.0 0.0 0.0 0.0 0.0 0.0 nan nan nan nan nan nan nan nan nan nan nan nan nan nan nan nan nan
0.0 0.0 0.0 0.0 0.0 0.0 0.0 0.0 0.0 0.0 0.0 0.0 0.0 0.0 0.0 0.0 0.0 0.0 0.0 0.0 0.0 0.0 nan nan nan nan nan nan nan nan nan nan nan nan nan nan nan nan
0.0 0.0 0.0 nan nan nan 0.0 0.0 0.0 0.0 0.0 0.0 0.0 0.0 0.0 0.0 0.0 0.0 0.0 0.0 0.0 0.0 0.0 0.0 0.0 0.0 0.0 nan nan nan nan nan nan nan nan nan nan nan
0.0 0.0 0.0 0.0 0.0 nan nan nan nan 0.0 0.0 0.1 0.0 0.0 0.0 0.0 0.0 0.0 0.0 0.0 0.1 0.0 0.0 0.0 0.0 0.0 0.0 0.0 nan nan nan nan nan nan nan nan nan nan
0.0 0.0 0.0 0.0 nan 0.0 nan nan nan nan 0.0 0.0 0.0 0.0 0.0 0.0 0.0 0.0 0.0 0.2 0.3 0.0 0.0 0.2 0.0 0.0 0.0 0.0 nan nan nan nan nan nan nan nan nan nan
0.0 0.0 0.0 0.0 0.0 0.0 0.0 0.0 0.4 0.3 0.2 0.0 0.0 0.1 0.1 0.0 0.1 0.1 0.1 0.1 0.1 0.1 0.0 1.0 0.1 0.1 0.0 0.0 nan nan nan nan nan nan nan nan nan nan
0.0 0.0 0.0 0.0 nan nan 0.0 0.3 1.2 2.2 nan nan nan nan nan nan nan 0.5 1.2 1.3 2.0 0.4 0.1 0.4 0.3 0.3 0.2 0.1 0.0 nan nan nan nan nan nan nan nan nan
0.1 0.1 nan 0.0 nan nan 0.1 0.2 0.6 0.9 0.9 0.9 0.9 0.9 nan nan nan 0.4 0.6 1.9 1.7 1.3 0.4 0.9 0.2 0.4 1.0 0.2 0.1 0.2 0.2 nan nan nan nan nan nan 0.0
0.7 0.9 0.7 nan nan nan nan 0.2 0.4 0.7 1.6 1.0 0.7 0.5 0.4 0.4 0.4 0.5 0.5 1.1 1.8 1.1 0.1 1.0 0.7 0.7 1.1 0.9 0.3 0.3 0.2 0.4 0.3 0.2 nan nan nan 0.0
1.1 1.3 2.2 nan nan nan 1.3 nan nan 0.8 2.2 2.1 1.9 1.5 1.2 0.9 0.3 0.2 0.1 0.1 0.1 0.2 0.1 0.2 2.8 0.9 1.1 1.3 0.7 0.2 0.3 0.3 0.3 0.3 0.3 nan nan nan
2.6 3.1 nan nan nan 1.4 nan nan 0.8 3.2 3.9 4.7 2.6 1.5 0.8 0.3 0.1 0.2 0.0 0.0 0.0 0.0 0.0 0.1 0.9 0.2 1.0 1.4 1.0 0.5 0.5 0.3 0.3 0.5 0.6 0.5 0.6 0.4
2.2 4.6 1.8 2.7 1.3 1.6 2.2 2.4 2.1 2.3 2.8 2.9 2.4 1.4 0.7 0.9 1.0 0.6 1.2 1.1 2.0 1.3 0.1 0.1 0.2 0.6 2.0 0.7 0.8 0.9 0.5 1.4 0.4 0.4 0.6 1.1 0.7 0.9
4.4 5.7 4.7 4.2 3.8 3.0 2.9 2.5 2.6 2.5 3.1 3.0 3.1 2.2 1.8 1.4 1.7 1.1 1.4 1.4 3.2 1.3 0.8 0.7 0.1 0.2 0.4 0.2 2.4 0.5 0.5 0.4 0.4 1.4 1.0 1.3 1.0 1.3
5.2 6.1 9.1 9.7 6.2 4.3 4.5 3.9 3.1 2.3 2.1 2.3 3.4 2.4 2.5 3.0 2.7 2.3 2.3 3.2 3.6 2.1 1.8 0.9 1.6 1.7 0.9 0.8 0.7 0.9 0.4 0.5 0.6 0.4 0.6 2.1 1.4 2.0
7.4 6.6 10.5 10.5 6.3 3.3 2.9 2.6 3.5 3.0 1.1 2.7 3.2 3.5 3.6 2.8 3.5 3.0 3.1 2.6 2.8 1.3 0.8 1.0 1.5 2.6 3.5 5.9 1.0 nan 2.1 0.8 1.6 1.9 0.9 1.5 2.7 1.7
3.7 5.0 6.5 6.0 3.1 2.4 2.0 2.3 2.6 4.1 4.1 3.1 4.5 6.5 7.9 5.5 5.2 3.5 2.9 5.0 3.2 1.9 1.3 0.6 1.0 1.4 4.8 10.3 11.4 4.0 nan 5.4 2.9 3.1 2.2 1.3 0.9 nan
3.6 3.4 5.2 3.8 3.7 2.8 7.7 9.2 12.2 10.9 10.7 13.8 8.1 8.6 16.6 6.7 6.6 5.1 5.5 4.1 3.4 2.3 1.9 1.3 1.0 0.3 1.4 3.1 16.9 5.5 2.7 nan 1.1 1.9 1.6 3.0 2.2 1.4
6.2 4.3 4.1 3.9 5.3 4.9 10.2 16.6 14.5 13.8 9.9 7.4 13.5 18.7 16.6 7.9 7.6 6.5 8.1 8.1 3.0 3.5 2.1 1.1 0.7 1.1 1.9 2.4 3.1 7.9 2.7 2.1 nan nan nan nan 3.7 5.5
10.0 4.6 6.2 7.6 6.3 7.4 4.4 8.9 4.2 17.7 7.3 7.8 7.4 7.8 31.2 11.8 5.8 6.3 7.2 4.8 3.5 3.5 2.8 2.8 1.9 1.8 1.5 1.4 2.0 3.6 2.4 4.7 1.9 2.0 3.2 nan nan nan

GFSNE_prec_sndepth_084.txt.gz
Snowfall_Accumulation
0.0 0.0 0.0 0.0 0.0 0.0 0.0 0.0 0.1 0.2 0.0 0.0 0.0 0.0 0.0 0.0 0.0 0.0 0.0 nan nan nan nan nan nan nan nan nan nan nan nan nan nan nan nan nan nan nan
0.0 0.0 0.0 0.0 0.0 0.0 0.0 0.0 0.0 0.0 0.0 0.0 0.0 0.0 0.0 0.0 0.0 0.0 0.0 nan nan nan nan nan nan nan nan nan nan nan nan nan nan nan nan nan nan nan
0.0 0.0 0.0 0.0 0.0 0.0 0.0 0.0 0.0 0.0 0.0 0.0 0.0 0.0 0.0 0.0 0.0 0.0 0.0 0.0 0.0 nan nan nan nan nan nan nan nan nan nan nan nan nan nan nan nan nan
0.0 0.0 0.0 0.0 0.0 0.0 0.0 0.0 0.0 0.0 0.0 0.0 0.0 0.0 0.0 0.0 0.0 0.0 0.0 0.0 0.0 nan nan nan nan nan nan nan nan nan nan nan nan nan nan nan nan nan
0.0 0.0 0.0 0.0 0.0 0.0 0.0 0.0 0.0 0.0 0.0 0.0 0.0 0.0 0.0 0.0 0.0 0.0 0.0 0.0 0.0 nan nan nan nan nan nan nan nan nan nan nan nan nan nan nan nan nan
0.0 0.0 0.0 0.0 0.0 0.0 0.0 0.0 0.0 0.0 0.0 0.0 0.0 0.0 0.0 0.0 0.0 0.0 0.0 0.0 0.0 0.0 nan nan nan nan nan nan nan nan nan nan nan nan nan nan nan nan
0.0 0.0 0.0 nan nan nan 0.0 0.0 0.0 0.0 0.0 0.0 0.0 0.0 0.0 0.0 0.0 0.0 0.0 0.0 0.0 0.0 0.0 0.0 0.0 0.0 0.0 nan nan nan nan nan nan nan nan nan nan nan
0.0 0.0 0.0 0.0 0.0 nan nan nan nan 0.0 0.0 0.0 0.0 0.0 0.0 0.0 0.0 0.0 0.0 0.0 0.1 0.0 0.0 0.0 0.0 0.0 0.0 0.0 nan nan nan nan nan nan nan nan nan nan
0.0 0.0 0.0 0.0 nan 0.0 nan nan nan nan 0.0 0.0 0.0 0.0 0.0 0.0 0.0 0.0 0.0 0.1 0.3 0.0 0.0 0.2 0.0 0.0 0.0 0.0 nan nan nan nan nan nan nan nan nan nan
0.0 0.0 0.0 0.0 0.0 0.0 0.0 0.0 0.3 0.3 0.2 0.0 0.0 0.1 0.1 0.0 0.1 0.1 0.1 0.1 0.1 0.1 0.0 1.2 0.4 0.4 0.0 0.0 nan nan nan nan nan nan nan nan nan nan
0.0 0.0 0.0 0.0 nan nan 0.0 0.3 1.2 2.1 nan nan nan nan nan nan nan 0.4 1.2 1.4 2.3 0.8 0.5 0.7 0.6 0.6 0.4 0.2 0.0 nan nan nan nan nan nan nan nan nan
0.1 0.1 nan 0.0 nan nan 0.1 0.1 0.6 0.9 0.9 1.0 1.1 1.2 nan nan nan 0.4 0.8 2.4 2.3 1.9 0.6 1.0 0.2 0.4 1.1 0.2 0.2 0.2 0.2 nan nan nan nan nan nan 0.0
0.7 0.9 0.7 nan nan nan nan 0.2 0.6 1.7 2.7 1.6 1.0 0.9 0.5 0.5 0.5 0.5 0.5 1.2 2.0 1.3 0.1 1.0 0.7 0.7 1.1 0.9 0.3 0.3 0.2 0.4 0.3 0.2 nan nan nan 0.0
1.1 1.3 2.3 nan nan nan 1.6 nan nan 1.3 2.5 2.6 2.4 2.2 1.8 1.7 1.0 0.8 0.3 0.1 0.1 0.2 0.1 0.2 2.8 0.9 1.1 1.3 0.7 0.2 0.3 0.3 0.3 0.3 0.3 nan nan nan
2.7 3.9 nan nan nan 1.5 nan nan 1.5 4.4 5.4 6.6 4.9 3.9 2.7 1.8 1.1 0.9 0.3 0.2 0.1 0.1 0.0 0.1 0.9 0.2 1.0 1.4 1.0 0.5 0.5 0.3 0.3 0.5 0.6 0.5 0.6 0.4
2.4 5.5 2.3 3.1 1.7 2.6 3.8 4.3 3.9 4.2 4.9 5.3 4.9 3.7 2.7 2.5 2.4 1.7 1.9 1.4 2.3 1.4 0.1 0.1 0.2 0.6 1.9 0.7 0.8 0.9 0.5 1.4 0.4 0.4 0.6 1.1 0.7 0.9
5.8 7.5 6.6 6.1 5.8 5.4 5.2 4.9 4.9 4.7 5.3 5.3 5.2 4.0 3.1 2.3 2.5 1.5 1.6 1.5 3.2 1.3 0.8 0.7 0.1 0.2 0.4 0.2 2.4 0.5 0.5 0.4 0.4 1.4 1.0 1.3 1.0 1.3
7.0 8.1 11.4 12.0 8.5 6.7 6.8 6.0 4.8 3.6 3.5 3.5 4.4 3.2 3.0 3.3 2.8 2.3 2.3 3.2 3.6 2.1 1.8 0.9 1.6 1.7 0.9 0.8 0.7 0.9 0.4 0.5 0.6 0.4 0.6 2.1 1.4 2.0
8.8 8.2 12.1 12.3 8.3 5.3 4.7 4.2 5.2 4.5 2.3 3.6 3.7 3.7 3.6 2.8 3.5 3.0 3.0 2.5 2.8 1.3 0.8 1.0 1.5 2.6 3.5 5.9 1.0 nan 2.1 0.8 1.6 1.9 0.9 1.5 2.7 1.7
5.2 6.4 8.2 7.5 4.4 3.5 2.9 3.0 3.3 4.5 4.3 3.1 4.5 6.5 7.8 5.5 5.2 3.5 2.8 5.0 3.2 1.9 1.3 0.6 1.0 1.4 4.8 10.4 11.4 4.0 nan 5.4 2.9 3.0 2.2 1.3 0.9 nan
4.5 4.1 5.9 4.3 4.2 3.0 7.9 9.2 12.2 10.9 10.7 13.8 8.1 8.6 16.5 6.7 6.6 5.1 5.5 4.0 3.4 2.3 1.9 1.3 1.0 0.3 1.4 3.1 16.9 5.5 2.7 nan 1.1 1.9 1.5 3.0 2.2 1.4
6.8 4.7 4.5 4.2 5.4 4.9 10.1 16.5 14.5 13.8 9.9 7.4 13.4 18.7 16.6 7.9 7.6 6.5 8.1 8.1 3.0 3.5 2.1 1.1 0.7 1.0 1.9 2.4 3.1 7.9 2.7 2.1 nan nan nan nan 4.2 6.2
10.2 4.7 6.2 7.5 6.3 7.3 4.4 8.9 4.2 17.6 7.3 7.8 7.4 7.8 31.1 11.8 5.8 6.3 7.2 4.8 3.5 3.5 2.8 2.8 1.9 1.8 1.5 1.4 2.0 3.6 2.4 4.7 1.9 1.9 3.1 nan nan nan

GFSNE_prec_sndepth_087.txt.gz
Snowfall_Accumulation
0.0 0.0 0.0 0.0 0.0 0.0 0.0 0.0 0.1 0.2 0.0 0.0 0.0 0.0 0.0 0.0 0.0 0.0 0.0 nan nan nan nan nan nan nan nan nan nan nan nan nan nan nan nan nan nan nan
0.0 0.0 0.0 0.0 0.0 0.0 0.0 0.0 0.0 0.0 0.0 0.0 0.0 0.0 0.0 0.0 0.0 0.0 0.0 nan nan nan nan nan nan nan nan nan nan nan nan nan nan nan nan nan nan nan
0.0 0.0 0.0 0.0 0.0 0.0 0.0 0.0 0.0 0.0 0.0 0.0 0.0 0.0 0.0 0.0 0.0 0.0 0.0 0.0 0.0 nan nan nan nan nan nan nan nan nan nan nan nan nan nan nan nan nan
0.0 0.0 0.0 0.0 0.0 0.0 0.0 0.0 0.0 0.0 0.0 0.0 0.0 0.0 0.0 0.0 0.0 0.0 0.0 0.0 0.0 nan nan nan nan nan nan nan nan nan nan nan nan nan nan nan nan nan
0.0 0.0 0.0 0.0 0.0 0.0 0.0 0.0 0.0 0.0 0.0 0.0 0.0 0.0 0.0 0.0 0.0 0.0 0.0 0.0 0.0 nan nan nan nan nan nan nan nan nan nan nan nan nan nan nan nan nan
0.0 0.0 0.0 0.0 0.0 0.0 0.0 0.0 0.0 0.0 0.0 0.0 0.0 0.0 0.0 0.0 0.0 0.0 0.0 0.0 0.0 0.0 nan nan nan nan nan nan nan nan nan nan nan nan nan nan nan nan
0.0 0.0 0.0 nan nan nan 0.0 0.0 0.0 0.0 0.0 0.0 0.0 0.0 0.0 0.0 0.0 0.0 0.0 0.0 0.0 0.0 0.0 0.0 0.0 0.0 0.0 nan nan nan nan nan nan nan nan nan nan nan
0.0 0.0 0.0 0.0 0.0 nan nan nan nan 0.0 0.0 0.0 0.0 0.0 0.0 0.0 0.0 0.0 0.0 0.0 0.1 0.0 0.0 0.0 0.0 0.0 0.0 0.0 nan nan nan nan nan nan nan nan nan nan
0.0 0.0 0.0 0.0 nan 0.0 nan nan nan nan 0.0 0.0 0.0 0.0 0.0 0.0 0.0 0.0 0.0 0.1 0.2 0.0 0.0 0.2 0.0 0.0 0.0 0.0 nan nan nan nan nan nan nan nan nan nan
0.0 0.0 0.0 0.0 0.0 0.0 0.0 0.0 0.2 0.1 0.1 0.0 0.0 0.1 0.1 0.0 0.0 0.1 0.1 0.1 0.1 0.1 0.0 1.3 0.4 0.6 0.0 0.0 nan nan nan nan nan nan nan nan nan nan
0.0 0.0 0.0 0.0 nan nan 0.0 0.2 0.8 1.9 nan nan nan nan nan nan nan 0.4 1.1 1.2 2.8 1.4 1.0 0.8 0.8 0.9 0.8 0.7 0.3 nan nan nan nan nan nan nan nan nan
0.1 0.1 nan 0.0 nan nan 0.1 0.1 0.4 0.8 0.9 1.1 1.2 1.4 nan nan nan 0.6 0.7 2.3 2.9 3.0 1.4 1.6 0.9 1.1 1.8 0.6 0.4 0.3 0.2 nan nan nan nan nan nan 0.0
0.6 0.8 0.6 nan nan nan nan 0.1 0.4 1.9 3.2 2.3 1.5 1.6 1.4 1.3 1.2 1.0 1.1 1.8 2.8 2.2 1.0 1.9 1.6 1.4 1.8 1.1 0.4 0.3 0.3 0.4 0.4 0.2 nan nan nan 0.0
1.4 1.4 2.7 nan nan nan 1.8 nan nan 1.6 2.6 2.7 2.7 2.7 2.4 2.4 2.0 1.8 1.5 1.4 1.5 1.7 1.4 1.2 3.8 1.6 1.7 1.8 1.0 0.3 0.3 0.3 0.3 0.3 0.3 nan nan nan
3.4 5.0 nan nan nan 1.5 nan nan 2.0 5.1 6.7 8.2 6.3 5.1 4.1 3.3 2.8 2.7 2.1 1.9 1.7 1.6 1.4 1.3 1.9 1.0 1.4 1.7 1.2 0.5 0.5 0.3 0.3 0.5 0.6 0.5 0.6 0.4
2.8 7.7 3.8 4.5 2.6 3.6 5.0 5.6 5.0 5.4 6.2 6.9 6.6 5.5 4.5 4.4 4.4 3.8 4.2 3.4 3.7 2.5 0.7 0.3 0.3 0.6 2.0 0.7 0.8 0.9 0.5 1.4 0.4 0.4 0.6 1.1 0.7 0.9
6.8 8.8 8.0 7.7 7.4 7.3 7.3 7.1 7.3 7.4 8.1 8.1 7.9 6.7 5.8 4.8 4.7 3.2 3.1 2.8 4.3 2.0 0.9 0.7 0.1 0.2 0.4 0.2 2.4 0.5 0.5 0.4 0.4 1.4 1.0 1.3 1.0 1.3
7.5 9.0 12.7 13.6 10.1 8.4 8.6 7.9 6.7 5.1 5.2 5.0 5.7 4.5 4.2 4.4 3.8 2.7 2.6 3.4 3.8 2.2 1.8 0.9 1.6 1.6 0.9 0.7 0.7 0.9 0.4 0.5 0.6 0.4 0.6 2.1 1.4 2.0
9.7 9.4 13.4 13.8 9.8 6.7 6.1 5.6 6.6 5.7 3.2 4.4 4.6 4.5 4.0 2.9 3.6 3.0 3.0 2.5 2.7 1.3 0.8 1.0 1.5 2.6 3.5 5.9 1.0 nan 2.1 0.8 1.6 1.9 0.9 1.5 2.7 1.7
5.7 6.9 8.8 8.1 5.0 4.2 3.7 3.8 4.1 5.2 4.8 3.2 4.5 6.5 7.8 5.5 5.2 3.4 2.8 4.9 3.1 1.8 1.3 0.6 1.0 1.4 4.8 10.4 11.4 4.0 nan 5.4 2.9 3.0 2.2 1.3 0.9 nan
5.0 4.8 6.6 5.2 5.1 3.9 8.7 9.7 12.2 10.9 10.7 13.8 8.1 8.6 16.5 6.6 6.6 5.1 5.5 4.0 3.4 2.3 1.9 1.3 1.0 0.3 1.4 3.1 16.9 5.5 2.7 nan 1.1 1.9 1.5 3.0 2.2 1.4
7.4 5.3 5.1 4.8 5.8 5.1 10.3 16.6 14.5 13.8 9.9 7.4 13.4 18.6 16.6 7.9 7.6 6.5 8.1 8.0 3.0 3.5 2.1 1.1 0.6 1.0 1.9 2.4 3.1 7.9 2.6 2.1 nan nan nan nan 4.3 6.8
10.2 4.6 6.2 7.5 6.3 7.3 4.4 8.9 4.1 17.6 7.3 7.8 7.4 7.8 31.0 11.8 5.8 6.3 7.2 4.8 3.5 3.5 2.8 2.8 1.9 1.8 1.5 1.4 1.9 3.6 2.4 4.6 1.9 1.9 3.1 nan nan nan

GFSNE_prec_sndepth_093.txt.gz
Snowfall_Accumulation
0.0 0.0 0.0 0.0 0.0 0.0 0.0 0.0 0.0 0.1 0.0 0.0 0.0 0.0 0.0 0.0 0.0 0.0 0.0 nan nan nan nan nan nan nan nan nan nan nan nan nan nan nan nan nan nan nan
0.0 0.0 0.0 0.0 0.0 0.0 0.0 0.0 0.0 0.0 0.0 0.0 0.0 0.0 0.0 0.0 0.0 0.0 0.0 nan nan nan nan nan nan nan nan nan nan nan nan nan nan nan nan nan nan nan
0.0 0.0 0.0 0.0 0.0 0.0 0.0 0.0 0.0 0.0 0.0 0.0 0.0 0.0 0.0 0.0 0.0 0.0 0.0 0.0 0.0 nan nan nan nan nan nan nan nan nan nan nan nan nan nan nan nan nan
0.0 0.0 0.0 0.0 0.0 0.0 0.0 0.0 0.0 0.0 0.0 0.0 0.0 0.0 0.0 0.0 0.0 0.0 0.0 0.0 0.0 nan nan nan nan nan nan nan nan nan nan nan nan nan nan nan nan nan
0.0 0.0 0.0 0.0 0.0 0.0 0.0 0.0 0.0 0.0 0.0 0.0 0.0 0.0 0.0 0.0 0.0 0.0 0.0 0.0 0.0 nan nan nan nan nan nan nan nan nan nan nan nan nan nan nan nan nan
0.0 0.0 0.0 0.0 0.0 0.0 0.0 0.0 0.0 0.0 0.0 0.0 0.0 0.0 0.0 0.0 0.0 0.0 0.0 0.0 0.0 0.0 nan nan nan nan nan nan nan nan nan nan nan nan nan nan nan nan
0.0 0.0 0.0 nan nan nan 0.0 0.0 0.0 0.0 0.0 0.0 0.0 0.0 0.0 0.0 0.0 0.0 0.0 0.0 0.0 0.0 0.0 0.0 0.0 0.0 0.0 nan nan nan nan nan nan nan nan nan nan nan
0.0 0.0 0.0 0.0 0.0 nan nan nan nan 0.0 0.0 0.0 0.0 0.0 0.0 0.0 0.0 0.0 0.0 0.0 0.0 0.0 0.0 0.0 0.0 0.0 0.0 0.0 nan nan nan nan nan nan nan nan nan nan
0.0 0.0 0.0 0.0 nan 0.0 nan nan nan nan 0.0 0.0 0.0 0.0 0.0 0.0 0.0 0.0 0.0 0.0 0.1 0.0 0.0 0.1 0.0 0.0 0.0 0.0 nan nan nan nan nan nan nan nan nan nan
0.0 0.0 0.0 0.0 0.0 0.0 0.0 0.0 0.1 0.0 0.0 0.0 0.0 0.0 0.0 0.0 0.0 0.0 0.0 0.0 0.1 0.1 0.0 1.0 0.4 0.7 0.0 0.0 nan nan nan nan nan nan nan nan nan nan
0.0 0.0 0.0 0.0 nan nan 0.0 0.1 0.2 0.3 nan nan nan nan nan nan nan 0.3 0.9 1.0 2.2 1.5 1.8 0.9 1.4 1.9 1.6 1.5 1.1 nan nan nan nan nan nan nan nan nan
0.1 0.1 nan 0.0 nan nan 0.1 0.1 0.1 0.2 0.8 1.3 1.6 2.0 nan nan nan 1.3 0.9 1.6 3.2 4.8 4.2 4.4 3.2 2.9 4.0 2.6 2.7 2.5 2.2 nan nan nan nan nan nan 0.9
0.6 0.9 0.7 nan nan nan nan 0.1 0.2 2.1 4.8 4.4 4.0 4.5 3.8 3.1 2.9 2.8 2.8 3.9 5.5 6.1 4.1 4.3 4.7 5.0 5.5 5.1 3.9 3.6 3.1 2.9 2.2 1.7 nan nan nan 0.5
1.7 2.0 3.3 nan nan nan 2.6 nan nan 3.0 6.0 6.4 6.3 6.1 5.3 4.9 4.3 3.8 3.4 3.5 3.8 4.7 4.4 4.2 7.4 5.3 5.7 6.1 4.9 3.1 3.0 2.6 2.2 1.9 1.5 nan nan nan
3.6 6.0 nan nan nan 1.5 nan nan 3.2 8.1 10.2 12.0 10.4 8.8 7.6 6.7 5.7 5.3 4.7 4.3 4.3 4.5 4.5 4.6 5.3 4.6 4.9 5.5 4.8 3.3 2.5 1.8 1.2 1.1 0.7 0.5 0.6 0.3
2.7 7.8 4.1 4.9 3.2 4.5 6.0 6.9 6.7 7.5 8.7 9.8 10.1 9.1 7.9 7.5 7.3 6.5 6.7 6.1 6.4 5.6 3.1 2.3 2.1 1.9 3.6 2.1 1.5 1.5 0.8 1.6 0.4 0.4 0.6 1.1 0.7 0.9
6.9 8.9 8.3 8.2 8.2 7.9 8.0 7.8 8.1 8.1 9.0 9.4 9.3 8.4 7.6 6.4 6.4 4.7 4.5 4.0 5.4 3.0 1.4 0.9 0.2 0.3 0.5 0.3 2.5 0.5 0.5 0.4 0.4 1.3 1.0 1.2 1.0 1.3
7.5 9.0 12.9 13.7 10.2 8.7 9.0 8.3 7.1 5.5 6.0 5.8 6.6 5.4 5.2 5.4 4.6 3.1 2.8 3.6 4.0 2.3 1.9 0.9 1.6 1.6 0.8 0.7 0.7 0.8 0.3 0.5 0.5 0.4 0.6 2.1 1.4 1.9
9.6 9.3 13.3 13.7 9.8 6.8 6.3 5.8 7.0 6.3 3.8 5.0 5.1 4.9 4.2 3.0 3.7 3.0 3.1 2.5 2.7 1.3 0.7 0.9 1.4 2.5 3.4 5.8 0.9 nan 2.0 0.8 1.5 1.8 0.9 1.4 2.6 1.6
5.7 6.9 8.9 8.1 5.1 4.3 3.8 3.9 4.2 5.3 4.8 3.2 4.5 6.5 7.8 5.4 5.1 3.4 2.8 4.9 3.1 1.8 1.2 0.6 0.9 1.4 4.7 10.3 11.3 3.9 nan 5.3 2.9 3.0 2.1 1.2 0.8 nan
5.0 4.8 6.7 5.3 5.2 4.0 8.8 9.6 12.2 10.8 10.7 13.7 8.0 8.5 16.4 6.6 6.5 5.0 5.4 4.0 3.4 2.3 1.9 1.2 1.0 0.3 1.4 3.0 16.8 5.4 2.7 nan 1.0 1.8 1.5 3.0 2.1 1.4
7.4 5.4 5.2 4.9 5.8 5.0 10.2 16.4 14.4 13.7 9.8 7.3 13.3 18.5 16.5 7.8 7.5 6.4 8.0 8.0 3.0 3.5 2.0 1.1 0.6 1.0 1.8 2.3 3.0 7.9 2.6 2.0 nan nan nan nan 4.5 7.2
10.1 4.6 6.2 7.5 6.2 7.3 4.3 8.8 4.1 17.5 7.2 7.8 7.3 7.7 30.8 11.7 5.8 6.3 7.1 4.7 3.4 3.5 2.7 2.7 1.9 1.8 1.4 1.4 1.9 3.6 2.3 4.6 1.8 1.9 3.0 nan nan nan

GFSNE_prec_sndepth_096.txt.gz
Snowfall_Accumulation
0.0 0.0 0.0 0.0 0.0 0.0 0.0 0.0 0.0 0.1 0.0 0.0 0.0 0.0 0.0 0.0 0.0 0.0 0.0 nan nan nan nan nan nan nan nan nan nan nan nan nan nan nan nan nan nan nan
0.0 0.0 0.0 0.0 0.0 0.0 0.0 0.0 0.0 0.0 0.0 0.0 0.0 0.0 0.0 0.0 0.0 0.0 0.0 nan nan nan nan nan nan nan nan nan nan nan nan nan nan nan nan nan nan nan
0.0 0.0 0.0 0.0 0.0 0.0 0.0 0.0 0.0 0.0 0.0 0.0 0.0 0.0 0.0 0.0 0.0 0.0 0.0 0.0 0.0 nan nan nan nan nan nan nan nan nan nan nan nan nan nan nan nan nan
0.0 0.0 0.0 0.0 0.0 0.0 0.0 0.0 0.0 0.0 0.0 0.0 0.0 0.0 0.0 0.0 0.0 0.0 0.0 0.0 0.0 nan nan nan nan nan nan nan nan nan nan nan nan nan nan nan nan nan
0.0 0.0 0.0 0.0 0.0 0.0 0.0 0.0 0.0 0.0 0.0 0.0 0.0 0.0 0.0 0.0 0.0 0.0 0.0 0.0 0.0 nan nan nan nan nan nan nan nan nan nan nan nan nan nan nan nan nan
0.0 0.0 0.0 0.0 0.0 0.0 0.0 0.0 0.0 0.0 0.0 0.0 0.0 0.0 0.0 0.0 0.0 0.0 0.0 0.0 0.0 0.0 nan nan nan nan nan nan nan nan nan nan nan nan nan nan nan nan
0.0 0.0 0.0 nan nan nan 0.0 0.0 0.0 0.0 0.0 0.0 0.0 0.0 0.0 0.0 0.0 0.0 0.0 0.0 0.0 0.0 0.0 0.0 0.0 0.0 0.0 nan nan nan nan nan nan nan nan nan nan nan
0.0 0.0 0.0 0.0 0.0 nan nan nan nan 0.0 0.0 0.0 0.0 0.0 0.0 0.0 0.0 0.0 0.0 0.0 0.0 0.0 0.0 0.0 0.0 0.0 0.0 0.0 nan nan nan nan nan nan nan nan nan nan
0.0 0.0 0.0 0.0 nan 0.0 nan nan nan nan 0.0 0.0 0.0 0.0 0.0 0.0 0.0 0.0 0.0 0.0 0.1 0.0 0.0 0.1 0.0 0.0 0.0 0.0 nan nan nan nan nan nan nan nan nan nan
0.0 0.0 0.0 0.0 0.0 0.0 0.0 0.0 0.0 0.0 0.0 0.0 0.0 0.0 0.0 0.0 0.0 0.0 0.0 0.0 0.1 0.1 0.0 0.9 0.5 1.1 0.3 0.1 nan nan nan nan nan nan nan nan nan nan
0.0 0.0 0.0 0.0 nan nan 0.0 0.1 0.1 0.2 nan nan nan nan nan nan nan 0.3 0.8 1.0 1.9 1.8 2.3 0.8 2.5 3.0 2.6 2.4 1.9 nan nan nan nan nan nan nan nan nan
0.1 0.1 nan 0.0 nan nan 0.0 0.1 0.1 0.2 0.9 1.4 1.9 2.4 nan nan nan 1.6 1.4 1.5 2.9 4.6 6.2 5.4 4.4 4.4 5.6 3.8 3.7 3.2 2.6 nan nan nan nan nan nan 1.5
0.5 0.8 0.7 nan nan nan nan 0.1 0.2 2.0 4.9 4.9 4.2 5.0 4.3 3.5 3.1 3.0 3.1 4.4 6.3 7.2 5.4 5.3 6.0 6.3 6.9 6.8 5.0 4.3 3.7 3.5 2.6 2.0 nan nan nan 1.0
1.6 1.9 3.1 nan nan nan 2.3 nan nan 3.0 6.0 6.5 6.4 6.2 5.5 5.1 4.5 4.0 3.6 3.5 3.6 4.7 4.3 3.8 7.3 5.4 6.0 6.5 5.5 3.6 3.5 3.0 2.5 2.2 1.8 nan nan nan
3.1 5.3 nan nan nan 1.3 nan nan 3.0 7.8 10.1 12.0 10.4 8.9 7.8 6.5 5.1 4.6 3.9 3.6 3.8 3.7 3.8 4.0 4.7 3.7 4.2 5.0 4.5 3.2 2.4 1.8 1.2 1.2 0.6 0.5 0.5 0.3
2.1 6.4 3.6 4.1 2.9 4.1 5.1 5.9 6.0 6.6 7.8 9.3 9.9 9.0 7.1 6.5 6.4 5.5 5.8 5.2 5.3 4.6 2.2 1.6 1.3 1.2 3.3 1.9 1.4 1.4 0.7 1.5 0.4 0.4 0.6 1.0 0.7 0.8
6.1 7.6 7.3 7.2 7.5 7.5 7.4 7.6 7.7 7.6 8.8 9.2 9.1 8.0 7.1 5.8 5.7 3.8 3.6 3.1 4.6 2.4 1.2 0.7 0.1 0.2 0.4 0.2 2.2 0.4 0.4 0.4 0.3 1.2 0.9 1.1 0.9 1.2
6.6 8.3 12.7 13.6 10.1 8.5 8.7 8.0 6.8 5.2 5.7 5.2 5.8 4.5 4.3 4.5 3.7 2.5 2.3 3.0 3.4 2.0 1.6 0.8 1.3 1.3 0.7 0.6 0.6 0.7 0.3 0.4 0.5 0.3 0.5 1.9 1.3 1.7
8.8 9.1 13.1 13.6 9.6 6.3 5.5 5.1 6.3 5.6 3.4 4.2 4.3 4.2 3.6 2.6 3.1 2.6 2.6 2.2 2.4 1.1 0.6 0.8 1.2 2.2 3.0 5.5 0.8 nan 1.9 0.7 1.4 1.7 0.8 1.3 2.5 1.4
5.1 6.8 8.7 7.7 4.4 3.7 3.2 3.4 3.7 4.7 4.3 2.8 4.1 6.2 7.4 4.9 4.7 3.1 2.5 4.7 2.7 1.6 1.1 0.5 0.8 1.3 4.6 10.1 11.1 3.7 nan 5.2 2.8 2.9 2.0 1.1 0.7 nan
4.6 4.3 6.3 4.8 4.8 3.6 8.6 9.4 12.0 10.6 10.5 13.5 7.8 8.3 16.2 6.1 6.3 4.7 5.0 3.9 3.2 2.0 1.7 1.1 0.9 0.3 1.2 2.7 16.6 5.1 2.3 nan 0.9 1.7 1.4 2.9 2.0 1.2
7.2 5.1 5.0 4.7 5.6 4.9 10.0 16.2 14.2 13.5 9.6 7.1 13.1 18.3 16.3 7.6 7.3 6.3 7.9 7.8 2.8 3.3 1.8 1.0 0.6 0.9 1.6 2.2 2.9 7.7 2.4 1.8 nan nan nan nan 4.4 7.1
9.9 4.5 6.0 7.4 6.1 7.1 4.2 8.6 4.0 17.3 7.1 7.6 7.2 7.6 30.5 11.5 5.6 5.9 6.7 4.4 3.3 3.4 2.5 2.6 1.7 1.5 1.3 1.3 1.8 3.5 2.2 4.5 1.6 1.6 2.6 nan nan nan

GFSNE_prec_sndepth_099.txt.gz
Snowfall_Accumulation
0.0 0.0 0.0 0.0 0.0 0.0 0.0 0.0 0.0 0.0 0.0 0.0 0.0 0.0 0.0 0.0 0.0 0.0 0.0 nan nan nan nan nan nan nan nan nan nan nan nan nan nan nan nan nan nan nan
0.0 0.0 0.0 0.0 0.0 0.0 0.0 0.0 0.0 0.0 0.0 0.0 0.0 0.0 0.0 0.0 0.0 0.0 0.0 nan nan nan nan nan nan nan nan nan nan nan nan nan nan nan nan nan nan nan
0.0 0.0 0.0 0.0 0.0 0.0 0.0 0.0 0.0 0.0 0.0 0.0 0.0 0.0 0.0 0.0 0.0 0.0 0.0 0.0 0.0 nan nan nan nan nan nan nan nan nan nan nan nan nan nan nan nan nan
0.0 0.0 0.0 0.0 0.0 0.0 0.0 0.0 0.0 0.0 0.0 0.0 0.0 0.0 0.0 0.0 0.0 0.0 0.0 0.0 0.0 nan nan nan nan nan nan nan nan nan nan nan nan nan nan nan nan nan
0.0 0.0 0.0 0.0 0.0 0.0 0.0 0.0 0.0 0.0 0.0 0.0 0.0 0.0 0.0 0.0 0.0 0.0 0.0 0.0 0.0 nan nan nan nan nan nan nan nan nan nan nan nan nan nan nan nan nan
0.0 0.0 0.0 0.0 0.0 0.0 0.0 0.0 0.0 0.0 0.0 0.0 0.0 0.0 0.0 0.0 0.0 0.0 0.0 0.0 0.0 0.0 nan nan nan nan nan nan nan nan nan nan nan nan nan nan nan nan
0.0 0.0 0.0 nan nan nan 0.0 0.0 0.0 0.0 0.0 0.0 0.0 0.0 0.0 0.0 0.0 0.0 0.0 0.0 0.0 0.0 0.0 0.0 0.0 0.0 0.0 nan nan nan nan nan nan nan nan nan nan nan
0.0 0.0 0.0 0.0 0.0 nan nan nan nan 0.0 0.0 0.0 0.0 0.0 0.0 0.0 0.0 0.0 0.0 0.0 0.0 0.0 0.0 0.0 0.0 0.0 0.0 0.0 nan nan nan nan nan nan nan nan nan nan
0.0 0.0 0.0 0.0 nan 0.0 nan nan nan nan 0.0 0.0 0.0 0.0 0.0 0.0 0.0 0.0 0.0 0.0 0.0 0.0 0.0 0.1 0.0 0.2 0.2 0.1 nan nan nan nan nan nan nan nan nan nan
0.0 0.0 0.0 0.0 0.0 0.0 0.0 0.0 0.0 0.0 0.0 0.0 0.1 0.2 0.3 0.2 0.0 0.0 0.0 0.0 0.1 0.1 0.0 0.8 0.6 1.8 1.1 0.7 nan nan nan nan nan nan nan nan nan nan
0.1 0.1 0.0 0.0 nan nan 0.0 0.0 0.1 0.3 nan nan nan nan nan nan nan 0.3 0.8 0.9 1.6 1.6 3.1 0.8 2.7 3.9 3.7 3.1 2.4 nan nan nan nan nan nan nan nan nan
0.0 0.1 nan 0.0 nan nan 0.0 0.1 0.1 0.2 0.9 1.4 2.0 2.6 nan nan nan 1.7 1.4 1.4 2.7 4.1 6.5 5.4 4.2 4.6 5.9 4.1 4.0 3.1 2.6 nan nan nan nan nan nan 1.5
0.5 0.8 0.6 nan nan nan nan 0.1 0.2 1.9 4.9 4.9 4.2 5.0 4.3 3.5 3.1 3.0 3.1 4.4 6.3 7.2 5.5 5.0 5.8 6.0 6.7 6.8 4.6 3.7 3.2 3.0 2.3 1.8 nan nan nan 1.0
1.3 1.7 2.7 nan nan nan 1.9 nan nan 2.7 5.7 6.4 6.3 6.2 5.4 5.0 4.4 3.9 3.4 3.3 3.3 4.6 3.6 3.0 6.4 4.6 5.0 5.5 4.7 3.0 3.0 2.6 2.2 1.9 1.6 nan nan nan
2.7 4.7 nan nan nan 1.0 nan nan 2.5 6.6 8.8 10.9 10.0 8.8 7.5 5.9 4.4 3.9 3.1 2.7 3.0 2.8 2.8 3.1 4.0 2.7 3.5 4.3 4.0 2.9 2.1 1.5 1.0 1.0 0.5 0.4 0.5 0.3
1.6 5.3 3.1 3.4 2.5 3.5 4.4 5.1 5.2 5.9 7.1 9.0 9.9 8.4 6.3 5.7 5.7 4.7 4.9 4.4 4.2 3.6 1.2 0.9 0.7 0.7 2.8 1.6 1.2 1.2 0.6 1.3 0.3 0.3 0.5 0.9 0.6 0.7
5.4 6.6 6.5 6.4 6.9 6.9 6.8 7.0 7.0 6.8 8.4 8.9 8.9 7.5 6.3 5.0 4.7 3.0 2.9 2.5 3.7 1.9 1.0 0.6 0.1 0.1 0.3 0.1 1.9 0.4 0.4 0.3 0.3 1.0 0.8 1.0 0.7 1.0
6.0 7.8 12.6 13.5 10.0 8.1 8.3 7.3 5.9 4.4 4.7 4.3 4.8 3.6 3.5 3.7 3.0 2.0 1.8 2.5 2.8 1.6 1.3 0.6 1.1 1.1 0.6 0.5 0.5 0.7 0.3 0.4 0.4 0.3 0.4 1.8 1.2 1.4
8.2 9.0 13.0 13.4 9.4 5.5 4.7 4.3 5.5 4.8 2.8 3.4 3.5 3.6 3.0 2.2 2.7 2.2 2.2 1.9 2.1 0.9 0.5 0.7 1.1 2.0 2.7 5.3 0.7 nan 1.9 0.7 1.3 1.6 0.7 1.2 2.4 1.3
4.6 6.6 8.5 7.2 3.7 3.0 2.7 2.9 3.2 4.2 3.8 2.4 3.7 5.8 7.0 4.4 4.3 2.8 2.3 4.5 2.4 1.4 0.9 0.4 0.7 1.2 4.5 9.9 11.0 3.5 nan 5.1 2.7 2.8 2.0 1.0 0.6 nan
3.9 3.6 5.6 4.2 4.2 3.1 8.4 9.2 11.8 10.5 10.3 13.3 7.7 8.1 16.0 5.7 6.1 4.4 4.6 3.9 3.1 1.8 1.6 1.0 0.8 0.3 1.1 2.5 16.4 5.0 2.1 nan 0.8 1.6 1.3 2.8 2.0 1.1
6.9 4.6 4.4 4.5 5.5 4.7 9.8 16.0 14.0 13.3 9.4 6.9 12.9 18.1 16.1 7.5 7.2 6.2 7.8 7.6 2.6 3.0 1.7 0.9 0.5 0.8 1.5 2.1 2.8 7.6 2.2 1.6 nan nan nan nan 4.4 7.1
9.8 4.3 5.9 7.2 5.9 7.0 4.1 8.5 3.9 17.1 7.0 7.5 7.0 7.4 30.3 11.3 5.4 5.7 6.4 4.2 3.1 3.2 2.3 2.4 1.5 1.3 1.1 1.1 1.7 3.4 2.1 4.4 1.5 1.5 2.4 nan nan nan

GFSNE_prec_sndepth_102.txt.gz
Snowfall_Accumulation
0.0 0.0 0.0 0.0 0.0 0.0 0.0 0.0 0.0 0.0 0.0 0.0 0.0 0.0 0.0 0.0 0.0 0.0 0.0 nan nan nan nan nan nan nan nan nan nan nan nan nan nan nan nan nan nan nan
0.0 0.0 0.0 0.0 0.0 0.0 0.0 0.0 0.0 0.0 0.0 0.0 0.0 0.0 0.0 0.0 0.0 0.0 0.0 nan nan nan nan nan nan nan nan nan nan nan nan nan nan nan nan nan nan nan
0.0 0.0 0.0 0.0 0.0 0.0 0.0 0.0 0.0 0.0 0.0 0.0 0.0 0.0 0.0 0.0 0.0 0.0 0.0 0.0 0.0 nan nan nan nan nan nan nan nan nan nan nan nan nan nan nan nan nan
0.0 0.0 0.0 0.0 0.0 0.0 0.0 0.0 0.0 0.0 0.0 0.0 0.0 0.0 0.0 0.0 0.0 0.0 0.0 0.0 0.0 nan nan nan nan nan nan nan nan nan nan nan nan nan nan nan nan nan
0.0 0.0 0.0 0.0 0.0 0.0 0.0 0.0 0.0 0.0 0.0 0.0 0.0 0.0 0.0 0.0 0.0 0.0 0.0 0.0 0.0 nan nan nan nan nan nan nan nan nan nan nan nan nan nan nan nan nan
0.0 0.0 0.0 0.0 0.0 0.0 0.0 0.0 0.0 0.0 0.0 0.0 0.0 0.0 0.0 0.0 0.0 0.0 0.0 0.0 0.0 0.0 nan nan nan nan nan nan nan nan nan nan nan nan nan nan nan nan
0.0 0.0 0.0 nan nan nan 0.0 0.0 0.0 0.0 0.0 0.0 0.0 0.0 0.0 0.0 0.0 0.0 0.0 0.0 0.0 0.0 0.0 0.0 0.0 0.0 0.0 nan nan nan nan nan nan nan nan nan nan nan
0.0 0.0 0.0 0.0 0.0 nan nan nan nan 0.0 0.0 0.0 0.0 0.0 0.0 0.0 0.0 0.0 0.0 0.0 0.0 0.0 0.0 0.0 0.0 0.0 0.0 0.0 nan nan nan nan nan nan nan nan nan nan
0.0 0.0 0.0 0.0 nan 0.0 nan nan nan nan 0.0 0.0 0.0 0.0 0.0 0.0 0.0 0.0 0.0 0.0 0.0 0.0 0.0 0.1 0.0 0.3 0.5 0.3 nan nan nan nan nan nan nan nan nan nan
0.0 0.0 0.0 0.0 0.0 0.0 0.0 0.0 0.0 0.0 0.0 0.0 0.4 1.0 1.0 0.4 0.0 0.0 0.0 0.0 0.1 0.1 0.0 0.8 0.6 2.0 1.4 0.8 nan nan nan nan nan nan nan nan nan nan
0.1 0.1 0.0 0.0 nan nan 0.0 0.0 0.1 0.4 nan nan nan nan nan nan nan 0.3 0.7 0.9 1.5 1.6 3.1 0.8 2.6 3.9 3.7 3.2 2.4 nan nan nan nan nan nan nan nan nan
0.6 0.4 nan 0.4 nan nan 0.0 0.3 0.3 0.3 0.9 1.4 2.0 2.6 nan nan nan 1.6 1.4 1.4 2.6 4.0 6.4 5.4 4.1 4.6 5.9 4.1 4.0 3.0 2.5 nan nan nan nan nan nan 1.4
0.7 0.8 0.6 nan nan nan nan 0.1 0.2 1.9 4.8 4.9 4.2 4.9 4.3 3.5 3.1 3.0 3.0 4.3 6.3 7.2 5.5 4.9 5.6 5.7 6.6 6.8 4.6 3.6 3.0 2.9 2.2 1.7 nan nan nan 1.0
1.2 1.6 2.6 nan nan nan 1.8 nan nan 2.6 5.5 6.3 6.3 6.2 5.4 5.0 4.3 3.7 3.3 3.3 3.3 4.6 3.5 2.9 6.2 4.5 4.8 5.4 4.7 2.9 2.9 2.5 2.1 1.9 1.5 nan nan nan
2.6 4.6 nan nan nan 1.0 nan nan 2.4 6.2 8.5 10.9 9.9 8.8 7.4 5.7 4.1 3.6 2.8 2.5 3.0 2.7 2.8 3.0 3.9 2.5 3.4 4.3 4.1 2.9 2.1 1.4 1.0 1.0 0.5 0.4 0.5 0.3
1.5 5.0 3.1 3.2 2.4 3.4 4.3 4.9 5.1 5.7 7.0 9.0 9.8 8.3 5.9 5.5 5.4 4.5 4.7 4.2 4.0 3.4 1.1 0.8 0.6 0.6 2.8 1.5 1.1 1.2 0.6 1.3 0.3 0.3 0.5 0.9 0.6 0.7
5.3 6.4 6.3 6.4 6.9 6.9 6.8 6.9 6.9 6.7 8.4 8.9 8.9 7.5 6.2 4.9 4.5 2.9 2.8 2.3 3.7 1.9 0.9 0.6 0.1 0.1 0.3 0.1 1.8 0.3 0.4 0.3 0.3 1.0 0.8 1.0 0.7 1.0
5.9 7.8 12.6 13.4 10.0 8.1 8.3 7.3 5.9 4.4 4.6 4.2 4.7 3.5 3.5 3.6 2.9 1.9 1.7 2.4 2.8 1.6 1.3 0.6 1.1 1.0 0.6 0.5 0.5 0.7 0.3 0.4 0.4 0.3 0.4 1.8 1.2 1.4
8.1 8.9 12.9 13.3 9.3 5.4 4.6 4.2 5.5 4.7 2.8 3.4 3.5 3.6 3.0 2.1 2.6 2.2 2.2 1.8 2.0 0.9 0.5 0.7 1.0 1.9 2.7 5.3 0.7 nan 1.9 0.7 1.3 1.5 0.7 1.2 2.4 1.3
4.6 6.5 8.4 7.2 3.6 3.0 2.6 2.9 3.2 4.2 3.7 2.4 3.7 5.8 6.9 4.4 4.2 2.7 2.2 4.5 2.3 1.3 0.9 0.4 0.7 1.2 4.4 9.9 10.9 3.5 nan 5.1 2.7 2.8 1.9 1.0 0.6 nan
3.8 3.6 5.5 4.1 4.1 3.1 8.3 9.1 11.7 10.4 10.2 13.3 7.6 8.1 16.0 5.7 6.0 4.3 4.5 3.9 3.1 1.7 1.6 1.0 0.8 0.3 1.1 2.4 16.4 4.9 2.1 nan 0.8 1.6 1.3 2.8 2.0 1.1
6.8 4.5 4.4 4.5 5.4 4.7 9.7 15.9 13.9 13.2 9.4 6.8 12.9 18.0 16.0 7.4 7.1 6.1 7.7 7.6 2.5 3.0 1.6 0.8 0.5 0.7 1.5 2.0 2.8 7.6 2.2 1.6 nan nan nan nan 4.3 7.2
9.7 4.3 5.8 7.2 5.9 6.9 4.1 8.4 3.9 17.0 6.9 7.5 7.0 7.4 30.2 11.3 5.4 5.7 6.4 4.2 3.1 3.2 2.3 2.4 1.5 1.3 1.1 1.1 1.7 3.4 2.1 4.4 1.5 1.5 2.4 nan nan nan

GFSNE_prec_sndepth_105.txt.gz
Snowfall_Accumulation
0.0 0.0 0.0 0.0 0.0 0.0 0.0 0.0 0.0 0.0 0.0 0.0 0.0 0.0 0.0 0.0 0.0 0.0 0.0 nan nan nan nan nan nan nan nan nan nan nan nan nan nan nan nan nan nan nan
0.0 0.0 0.0 0.0 0.0 0.0 0.0 0.0 0.0 0.0 0.0 0.0 0.0 0.0 0.0 0.0 0.0 0.0 0.0 nan nan nan nan nan nan nan nan nan nan nan nan nan nan nan nan nan nan nan
0.0 0.0 0.0 0.0 0.0 0.0 0.0 0.0 0.0 0.0 0.0 0.0 0.0 0.0 0.0 0.0 0.0 0.0 0.0 0.0 0.0 nan nan nan nan nan nan nan nan nan nan nan nan nan nan nan nan nan
0.0 0.0 0.0 0.0 0.0 0.0 0.0 0.0 0.0 0.0 0.0 0.0 0.0 0.0 0.0 0.0 0.0 0.0 0.0 0.0 0.0 nan nan nan nan nan nan nan nan nan nan nan nan nan nan nan nan nan
0.0 0.0 0.0 0.0 0.0 0.0 0.0 0.0 0.0 0.0 0.0 0.0 0.0 0.0 0.0 0.0 0.0 0.0 0.0 0.0 0.0 nan nan nan nan nan nan nan nan nan nan nan nan nan nan nan nan nan
0.0 0.0 0.0 0.0 0.0 0.0 0.0 0.0 0.0 0.0 0.0 0.0 0.0 0.0 0.0 0.0 0.0 0.0 0.0 0.0 0.0 0.0 nan nan nan nan nan nan nan nan nan nan nan nan nan nan nan nan
0.0 0.0 0.0 nan nan nan 0.0 0.0 0.0 0.0 0.0 0.0 0.0 0.0 0.0 0.0 0.0 0.0 0.0 0.0 0.0 0.0 0.0 0.0 0.0 0.0 0.0 nan nan nan nan nan nan nan nan nan nan nan
0.0 0.0 0.0 0.0 0.0 nan nan nan nan 0.0 0.0 0.0 0.0 0.0 0.0 0.0 0.0 0.0 0.0 0.0 0.0 0.0 0.0 0.0 0.0 0.0 0.0 0.0 nan nan nan nan nan nan nan nan nan nan
0.0 0.0 0.0 0.0 nan 0.0 nan nan nan nan 0.0 0.0 0.0 0.0 0.0 0.0 0.0 0.0 0.0 0.0 0.0 0.0 0.0 0.1 0.0 0.7 0.6 0.2 nan nan nan nan nan nan nan nan nan nan
0.0 0.0 0.0 0.0 0.0 0.0 0.0 0.0 0.0 0.0 0.0 0.0 0.5 1.1 1.2 0.5 0.0 0.0 0.0 0.0 0.1 0.1 0.0 0.7 0.6 2.2 1.4 0.8 nan nan nan nan nan nan nan nan nan nan
0.1 0.1 0.0 0.0 nan nan 0.0 0.0 0.2 0.7 nan nan nan nan nan nan nan 0.2 0.7 0.8 1.4 1.6 3.1 0.8 2.6 3.9 3.7 3.2 2.4 nan nan nan nan nan nan nan nan nan
0.6 0.6 nan 0.5 nan nan 0.0 0.4 1.7 2.3 2.5 2.6 2.9 3.1 nan nan nan 1.6 1.4 1.4 2.6 4.0 6.4 5.4 4.1 4.6 5.9 4.1 4.0 3.0 2.5 nan nan nan nan nan nan 1.4
1.7 2.0 1.7 nan nan nan nan 0.9 1.0 2.8 5.1 4.9 4.2 4.9 4.3 3.4 3.1 3.0 3.0 4.3 6.3 7.2 5.5 4.9 5.6 5.7 6.6 6.8 4.6 3.6 3.0 2.9 2.2 1.7 nan nan nan 1.0
2.0 2.3 2.9 nan nan nan 1.8 nan nan 2.6 5.5 6.2 6.3 6.2 5.4 5.0 4.3 3.7 3.3 3.3 3.3 4.6 3.5 2.9 6.2 4.5 4.8 5.5 4.7 2.9 2.9 2.5 2.1 1.9 1.5 nan nan nan
2.7 4.7 nan nan nan 1.0 nan nan 2.4 6.2 8.4 10.8 9.9 8.8 7.4 5.7 4.1 3.6 2.8 2.5 3.0 2.7 2.8 3.0 3.9 2.5 3.4 4.3 4.1 2.9 2.1 1.4 1.0 1.0 0.5 0.4 0.5 0.3
1.6 5.0 3.1 3.2 2.4 3.4 4.3 4.9 5.0 5.7 7.0 9.0 9.8 8.3 5.9 5.5 5.4 4.5 4.7 4.2 4.0 3.4 1.1 0.8 0.6 0.6 2.8 1.5 1.1 1.2 0.6 1.3 0.3 0.3 0.5 0.9 0.6 0.7
5.4 6.5 6.4 6.4 7.0 6.9 6.8 6.9 6.9 6.7 8.4 8.8 8.9 7.5 6.2 4.9 4.5 2.9 2.8 2.3 3.7 1.9 0.9 0.6 0.1 0.1 0.3 0.1 1.8 0.3 0.3 0.3 0.3 1.0 0.8 1.0 0.7 1.0
5.9 7.8 12.6 13.4 9.9 8.1 8.2 7.2 5.9 4.4 4.6 4.2 4.7 3.5 3.5 3.6 2.9 1.9 1.7 2.4 2.8 1.6 1.3 0.6 1.0 1.0 0.6 0.5 0.5 0.6 0.3 0.4 0.4 0.3 0.4 1.8 1.2 1.4
8.1 8.9 12.9 13.3 9.2 5.4 4.6 4.2 5.5 4.7 2.8 3.4 3.5 3.6 3.0 2.1 2.6 2.1 2.2 1.8 2.0 0.9 0.5 0.7 1.0 1.9 2.7 5.3 0.7 nan 1.9 0.7 1.3 1.5 0.7 1.2 2.4 1.3
4.6 6.5 8.4 7.1 3.6 3.0 2.6 2.9 3.1 4.2 3.7 2.4 3.7 5.7 6.9 4.3 4.2 2.7 2.2 4.5 2.3 1.3 0.9 0.4 0.7 1.2 4.4 9.9 10.9 3.5 nan 5.1 2.7 2.8 2.0 1.0 0.6 nan
3.8 3.5 5.5 4.1 4.1 3.1 8.3 9.1 11.7 10.4 10.2 13.2 7.6 8.1 16.0 5.7 6.0 4.3 4.5 3.9 3.1 1.7 1.5 1.0 0.8 0.3 1.1 2.4 16.3 4.9 2.1 nan 0.8 1.6 1.3 2.8 2.0 1.1
6.8 4.5 4.4 4.4 5.4 4.7 9.7 15.8 13.9 13.2 9.3 6.8 12.9 18.0 16.0 7.4 7.1 6.1 7.7 7.6 2.5 3.0 1.6 0.8 0.5 0.7 1.5 2.0 2.8 7.6 2.2 1.6 nan nan nan nan 4.4 7.2
9.7 4.3 5.8 7.2 5.9 6.9 4.1 8.4 3.9 17.0 6.9 7.5 7.0 7.4 30.1 11.3 5.4 5.7 6.4 4.2 3.1 3.2 2.3 2.4 1.5 1.3 1.1 1.1 1.7 3.4 2.1 4.4 1.5 1.5 2.4 nan nan nan

GFSNE_prec_sndepth_108.txt.gz
Snowfall_Accumulation
0.0 0.0 0.0 0.0 0.0 0.0 0.0 0.0 0.0 0.0 0.0 0.0 0.0 0.0 0.0 0.0 0.0 0.0 0.0 nan nan nan nan nan nan nan nan nan nan nan nan nan nan nan nan nan nan nan
0.0 0.0 0.0 0.0 0.0 0.0 0.0 0.0 0.0 0.0 0.0 0.0 0.0 0.0 0.0 0.0 0.0 0.0 0.0 nan nan nan nan nan nan nan nan nan nan nan nan nan nan nan nan nan nan nan
0.0 0.0 0.0 0.0 0.0 0.0 0.0 0.0 0.0 0.0 0.0 0.0 0.0 0.0 0.0 0.0 0.0 0.0 0.0 0.0 0.0 nan nan nan nan nan nan nan nan nan nan nan nan nan nan nan nan nan
0.0 0.0 0.0 0.0 0.0 0.0 0.0 0.0 0.0 0.0 0.0 0.0 0.0 0.0 0.0 0.0 0.0 0.0 0.0 0.0 0.0 nan nan nan nan nan nan nan nan nan nan nan nan nan nan nan nan nan
0.0 0.0 0.0 0.0 0.0 0.0 0.0 0.0 0.0 0.0 0.0 0.0 0.0 0.0 0.0 0.0 0.0 0.0 0.0 0.0 0.0 nan nan nan nan nan nan nan nan nan nan nan nan nan nan nan nan nan
0.0 0.0 0.0 0.0 0.0 0.0 0.0 0.0 0.0 0.0 0.0 0.0 0.0 0.0 0.0 0.0 0.0 0.0 0.0 0.0 0.0 0.0 nan nan nan nan nan nan nan nan nan nan nan nan nan nan nan nan
0.0 0.0 0.0 nan nan nan 0.0 0.0 0.0 0.0 0.0 0.0 0.0 0.0 0.0 0.0 0.0 0.0 0.0 0.0 0.0 0.0 0.0 0.0 0.0 0.0 0.0 nan nan nan nan nan nan nan nan nan nan nan
0.0 0.0 0.0 0.0 0.0 nan nan nan nan 0.0 0.0 0.0 0.0 0.0 0.0 0.0 0.0 0.0 0.0 0.0 0.0 0.0 0.0 0.0 0.0 0.0 0.0 0.0 nan nan nan nan nan nan nan nan nan nan
0.0 0.0 0.0 0.0 nan 0.0 nan nan nan nan 0.0 0.0 0.0 0.0 0.0 0.0 0.0 0.0 0.0 0.0 0.0 0.0 0.0 0.1 0.1 0.7 0.7 0.1 nan nan nan nan nan nan nan nan nan nan
0.0 0.0 0.0 0.0 0.0 0.0 0.0 0.0 0.0 0.0 0.0 0.0 0.4 1.0 1.1 0.5 0.0 0.0 0.0 0.0 0.1 0.1 0.1 0.7 1.0 2.5 1.4 0.7 nan nan nan nan nan nan nan nan nan nan
0.0 0.1 0.0 0.0 nan nan 0.0 0.2 0.6 0.9 nan nan nan nan nan nan nan 0.2 0.7 0.8 1.4 1.7 3.1 0.8 2.6 3.9 3.7 3.2 2.4 nan nan nan nan nan nan nan nan nan
0.6 0.6 nan 0.5 nan nan 0.0 0.4 1.8 2.3 2.6 2.6 2.9 3.1 nan nan nan 1.7 1.4 1.4 2.7 4.0 6.4 5.4 4.1 4.6 5.9 4.1 4.0 3.0 2.5 nan nan nan nan nan nan 1.4
2.3 2.3 1.8 nan nan nan nan 1.3 1.6 3.5 5.9 5.9 5.0 5.6 4.5 3.6 3.2 3.0 3.0 4.3 6.3 7.2 5.5 4.9 5.6 5.7 6.6 6.8 4.6 3.6 3.1 2.9 2.2 1.7 nan nan nan 1.0
2.8 3.0 3.5 nan nan nan 2.3 nan nan 3.0 6.1 6.6 6.5 6.2 5.4 5.0 4.3 3.7 3.3 3.3 3.3 4.6 3.5 2.9 6.2 4.5 4.8 5.5 4.7 2.9 2.9 2.5 2.1 1.9 1.5 nan nan nan
3.5 5.7 nan nan nan 1.2 nan nan 2.5 6.3 8.5 10.9 9.9 8.8 7.4 5.7 4.1 3.6 2.8 2.5 2.9 2.7 2.7 2.9 3.9 2.5 3.4 4.3 4.1 2.9 2.1 1.4 1.0 1.0 0.5 0.4 0.5 0.3
1.8 5.3 3.1 3.4 2.5 3.5 4.3 4.9 5.0 5.7 7.0 9.0 9.8 8.3 5.9 5.5 5.4 4.5 4.7 4.2 4.0 3.4 1.1 0.8 0.6 0.6 2.7 1.5 1.1 1.2 0.6 1.2 0.3 0.3 0.5 0.9 0.6 0.7
6.2 7.2 6.8 6.5 7.0 6.9 6.7 6.9 6.9 6.7 8.3 8.8 8.8 7.5 6.2 4.8 4.5 2.9 2.8 2.3 3.6 1.9 0.9 0.6 0.1 0.1 0.3 0.1 1.8 0.3 0.3 0.3 0.3 1.0 0.8 1.0 0.7 1.0
6.1 8.2 13.1 13.8 10.3 8.4 8.4 7.3 5.9 4.3 4.6 4.2 4.7 3.5 3.4 3.6 2.9 1.9 1.7 2.4 2.8 1.6 1.3 0.6 1.0 1.0 0.6 0.5 0.5 0.6 0.3 0.4 0.4 0.3 0.4 1.8 1.2 1.4
8.1 8.9 12.8 13.3 9.2 5.4 4.6 4.2 5.5 4.7 2.7 3.3 3.5 3.6 3.0 2.1 2.6 2.1 2.2 1.8 2.0 0.9 0.5 0.7 1.0 1.9 2.7 5.2 0.7 nan 1.9 0.7 1.3 1.5 0.7 1.2 2.4 1.3
4.5 6.5 8.4 7.1 3.6 3.0 2.6 2.9 3.1 4.1 3.7 2.4 3.7 5.7 6.9 4.3 4.2 2.7 2.2 4.5 2.3 1.3 0.9 0.4 0.7 1.2 4.4 9.9 10.9 3.5 nan 5.1 2.7 2.8 2.0 1.0 0.6 nan
3.8 3.5 5.5 4.1 4.1 3.1 8.3 9.1 11.7 10.4 10.2 13.2 7.6 8.0 15.9 5.7 6.0 4.3 4.5 3.8 3.1 1.7 1.5 1.0 0.8 0.3 1.1 2.4 16.3 4.9 2.1 nan 0.8 1.6 1.3 2.8 2.0 1.1
6.8 4.5 4.4 4.4 5.4 4.7 9.7 15.8 13.8 13.2 9.3 6.8 12.9 18.0 16.0 7.4 7.1 6.1 7.7 7.6 2.5 3.0 1.6 0.8 0.5 0.7 1.4 2.0 2.8 7.6 2.2 1.6 nan nan nan nan 4.5 7.3
9.7 4.3 5.8 7.2 5.9 6.9 4.1 8.4 3.9 17.0 6.9 7.4 7.0 7.4 30.0 11.2 5.4 5.7 6.4 4.2 3.1 3.2 2.3 2.4 1.4 1.3 1.1 1.1 1.7 3.4 2.1 4.4 1.5 1.5 2.4 nan nan nan

GFSNE_prec_sndepth_111.txt.gz
Snowfall_Accumulation
0.0 0.0 0.0 0.0 0.0 0.0 0.0 0.0 0.0 0.0 0.0 0.0 0.0 0.0 0.0 0.0 0.0 0.0 0.0 nan nan nan nan nan nan nan nan nan nan nan nan nan nan nan nan nan nan nan
0.0 0.0 0.0 0.0 0.0 0.0 0.0 0.0 0.0 0.0 0.0 0.0 0.0 0.0 0.0 0.0 0.0 0.0 0.0 nan nan nan nan nan nan nan nan nan nan nan nan nan nan nan nan nan nan nan
0.0 0.0 0.0 0.0 0.0 0.0 0.0 0.0 0.0 0.0 0.0 0.0 0.0 0.0 0.0 0.0 0.0 0.0 0.0 0.0 0.0 nan nan nan nan nan nan nan nan nan nan nan nan nan nan nan nan nan
0.0 0.0 0.0 0.0 0.0 0.0 0.0 0.0 0.0 0.0 0.0 0.0 0.0 0.0 0.0 0.0 0.0 0.0 0.0 0.0 0.0 nan nan nan nan nan nan nan nan nan nan nan nan nan nan nan nan nan
0.0 0.0 0.0 0.0 0.0 0.0 0.0 0.0 0.0 0.0 0.0 0.0 0.0 0.0 0.0 0.0 0.0 0.0 0.0 0.0 0.0 nan nan nan nan nan nan nan nan nan nan nan nan nan nan nan nan nan
0.0 0.0 0.0 0.0 0.0 0.0 0.0 0.0 0.0 0.0 0.0 0.0 0.0 0.0 0.0 0.0 0.0 0.0 0.0 0.0 0.0 0.0 nan nan nan nan nan nan nan nan nan nan nan nan nan nan nan nan
0.0 0.0 0.0 nan nan nan 0.0 0.0 0.0 0.0 0.0 0.0 0.0 0.0 0.0 0.0 0.0 0.0 0.0 0.0 0.0 0.0 0.0 0.0 0.0 0.0 0.0 nan nan nan nan nan nan nan nan nan nan nan
0.0 0.0 0.0 0.0 0.0 nan nan nan nan 0.0 0.0 0.0 0.0 0.0 0.0 0.0 0.0 0.0 0.0 0.0 0.0 0.0 0.0 0.0 0.0 0.0 0.0 0.0 nan nan nan nan nan nan nan nan nan nan
0.0 0.0 0.0 0.0 nan 0.0 nan nan nan nan 0.0 0.0 0.0 0.0 0.0 0.0 0.0 0.0 0.0 0.0 0.0 0.0 0.0 0.1 0.1 0.8 0.6 0.1 nan nan nan nan nan nan nan nan nan nan
0.0 0.0 0.0 0.0 0.0 0.0 0.0 0.0 0.0 0.0 0.0 0.0 0.4 0.9 0.9 0.4 0.0 0.0 0.0 0.0 0.0 0.1 0.1 0.9 1.5 3.2 2.0 1.1 nan nan nan nan nan nan nan nan nan nan
0.1 0.1 0.0 0.0 nan nan 0.0 0.2 0.7 1.0 nan nan nan nan nan nan nan 0.2 0.6 0.7 1.4 1.7 3.4 1.2 3.3 4.5 4.0 3.4 2.4 nan nan nan nan nan nan nan nan nan
0.6 0.6 nan 0.4 nan nan 0.0 0.3 2.1 2.8 2.7 2.7 2.9 3.1 nan nan nan 1.7 1.3 1.3 2.7 4.2 6.9 6.2 5.2 5.7 6.5 4.3 4.0 3.0 2.5 nan nan nan nan nan nan 1.4
2.3 2.4 1.9 nan nan nan nan 1.3 1.8 3.7 6.2 6.3 5.6 5.7 4.5 3.6 3.3 3.1 3.1 4.4 6.3 7.4 5.6 4.9 5.6 5.7 6.6 6.8 4.6 3.6 3.1 2.9 2.2 1.7 nan nan nan 1.0
3.4 4.4 4.9 nan nan nan 2.4 nan nan 3.0 6.3 6.9 6.7 6.5 5.6 5.2 4.3 3.7 3.4 3.3 3.3 4.6 3.4 2.9 6.2 4.5 4.8 5.5 4.7 2.9 2.9 2.5 2.1 1.9 1.5 nan nan nan
4.6 6.7 nan nan nan 1.6 nan nan 2.7 6.6 8.8 11.1 10.1 9.2 7.7 5.8 4.1 3.6 2.8 2.5 2.9 2.7 2.7 2.9 3.9 2.5 3.4 4.3 4.1 2.9 2.1 1.4 1.0 1.0 0.5 0.4 0.5 0.3
2.1 6.0 3.5 4.3 2.9 4.1 5.2 6.0 5.7 6.0 7.2 9.1 9.8 8.3 5.9 5.5 5.4 4.5 4.7 4.2 4.0 3.4 1.1 0.8 0.6 0.6 2.7 1.5 1.1 1.2 0.6 1.2 0.3 0.3 0.5 0.8 0.5 0.7
6.3 7.7 7.4 7.1 7.5 7.2 7.1 7.1 7.0 6.7 8.3 8.8 8.8 7.4 6.2 4.8 4.5 2.9 2.7 2.3 3.6 1.9 0.9 0.6 0.1 0.1 0.3 0.1 1.8 0.3 0.3 0.3 0.3 1.0 0.8 1.0 0.7 1.0
6.2 8.4 13.5 14.2 10.7 9.1 9.3 8.2 6.4 4.6 4.7 4.3 4.7 3.5 3.4 3.6 2.9 1.9 1.8 2.5 2.9 1.7 1.4 0.7 1.0 1.0 0.6 0.5 0.5 0.6 0.3 0.4 0.4 0.3 0.4 1.8 1.1 1.4
8.1 8.9 12.8 13.2 9.2 5.4 4.6 4.2 5.5 4.7 2.7 3.3 3.5 3.6 3.0 2.1 2.6 2.1 2.2 1.8 2.0 0.9 0.5 0.7 1.0 1.9 2.7 5.2 0.7 nan 1.9 0.7 1.3 1.5 0.7 1.2 2.4 1.3
4.5 6.5 8.4 7.1 3.6 3.0 2.6 2.8 3.1 4.1 3.7 2.4 3.7 5.7 6.9 4.3 4.2 2.7 2.2 4.5 2.3 1.3 0.9 0.4 0.7 1.2 4.4 9.8 10.9 3.5 nan 5.1 2.7 2.8 2.0 1.0 0.6 nan
3.8 3.6 5.5 4.1 4.1 3.1 8.3 9.1 11.7 10.4 10.2 13.2 7.6 8.0 15.9 5.7 6.0 4.3 4.5 3.8 3.1 1.7 1.5 1.0 0.8 0.3 1.1 2.4 16.3 4.9 2.1 nan 0.8 1.6 1.3 2.8 2.0 1.1
6.8 4.5 4.4 4.4 5.4 4.7 9.7 15.8 13.8 13.2 9.3 6.8 12.8 18.0 16.0 7.4 7.1 6.1 7.7 7.6 2.5 3.0 1.6 0.8 0.5 0.7 1.4 2.0 2.8 7.6 2.2 1.6 nan nan nan nan 4.6 7.4
9.7 4.3 5.8 7.2 5.9 6.9 4.0 8.4 3.8 17.0 6.9 7.4 7.0 7.4 30.0 11.2 5.4 5.7 6.4 4.2 3.1 3.2 2.3 2.4 1.4 1.3 1.1 1.1 1.7 3.4 2.1 4.4 1.5 1.5 2.4 nan nan nan

GFSNE_prec_sndepth_114.txt.gz
Snowfall_Accumulation
0.0 0.0 0.0 0.0 0.0 0.0 0.0 0.0 0.0 0.0 0.0 0.0 0.0 0.0 0.0 0.0 0.0 0.0 0.0 nan nan nan nan nan nan nan nan nan nan nan nan nan nan nan nan nan nan nan
0.0 0.0 0.0 0.0 0.0 0.0 0.0 0.0 0.0 0.0 0.0 0.0 0.0 0.0 0.0 0.0 0.0 0.0 0.0 nan nan nan nan nan nan nan nan nan nan nan nan nan nan nan nan nan nan nan
0.0 0.0 0.0 0.0 0.0 0.0 0.0 0.0 0.0 0.0 0.0 0.0 0.0 0.0 0.0 0.0 0.0 0.0 0.0 0.0 0.0 nan nan nan nan nan nan nan nan nan nan nan nan nan nan nan nan nan
0.0 0.0 0.0 0.0 0.0 0.0 0.0 0.0 0.0 0.0 0.0 0.0 0.0 0.0 0.0 0.0 0.0 0.0 0.0 0.0 0.0 nan nan nan nan nan nan nan nan nan nan nan nan nan nan nan nan nan
0.0 0.0 0.0 0.0 0.0 0.0 0.0 0.0 0.0 0.0 0.0 0.0 0.0 0.0 0.0 0.0 0.0 0.0 0.0 0.0 0.0 nan nan nan nan nan nan nan nan nan nan nan nan nan nan nan nan nan
0.0 0.0 0.0 0.0 0.0 0.0 0.0 0.0 0.0 0.0 0.0 0.0 0.0 0.0 0.0 0.0 0.0 0.0 0.0 0.0 0.0 0.0 nan nan nan nan nan nan nan nan nan nan nan nan nan nan nan nan
0.0 0.0 0.0 nan nan nan 0.0 0.0 0.0 0.0 0.0 0.0 0.0 0.0 0.0 0.0 0.0 0.0 0.0 0.0 0.0 0.0 0.0 0.0 0.0 0.0 0.0 nan nan nan nan nan nan nan nan nan nan nan
0.0 0.0 0.0 0.0 0.0 nan nan nan nan 0.0 0.0 0.0 0.0 0.0 0.0 0.0 0.0 0.0 0.0 0.0 0.0 0.0 0.0 0.0 0.0 0.0 0.0 0.0 nan nan nan nan nan nan nan nan nan nan
0.0 0.0 0.0 0.0 nan 0.0 nan nan nan nan 0.0 0.0 0.0 0.0 0.0 0.0 0.0 0.0 0.0 0.0 0.0 0.0 0.0 0.2 0.1 0.7 0.6 0.1 nan nan nan nan nan nan nan nan nan nan
0.0 0.0 0.0 0.0 0.0 0.0 0.0 0.0 0.0 0.1 0.1 0.0 0.3 0.8 0.8 0.3 0.0 0.0 0.0 0.0 0.0 0.1 0.1 0.9 1.7 3.3 1.9 1.0 nan nan nan nan nan nan nan nan nan nan
0.1 0.1 0.0 0.0 nan nan 0.0 0.2 1.1 1.5 nan nan nan nan nan nan nan 0.2 0.6 0.7 1.3 1.7 3.4 1.2 3.5 4.7 4.2 3.6 2.5 nan nan nan nan nan nan nan nan nan
0.6 0.6 nan 0.3 nan nan 0.0 0.4 2.2 2.9 2.7 2.9 3.3 3.6 nan nan nan 1.6 1.2 1.2 2.7 4.2 7.1 6.3 5.5 6.3 7.5 5.2 4.5 3.1 2.5 nan nan nan nan nan nan 1.4
3.3 2.8 2.1 nan nan nan nan 1.4 1.8 4.1 6.5 6.4 5.8 6.1 4.9 4.1 3.9 3.6 3.4 4.3 6.5 8.0 6.4 5.3 6.1 6.0 7.0 7.2 4.8 3.6 3.0 2.9 2.2 1.7 nan nan nan 0.9
4.3 5.7 6.4 nan nan nan 2.6 nan nan 3.1 6.3 6.9 6.7 6.5 5.7 5.4 4.6 4.2 3.7 3.8 3.8 4.9 3.8 3.2 6.7 5.0 5.3 5.9 4.9 2.9 2.9 2.5 2.1 1.9 1.5 nan nan nan
6.1 8.1 nan nan nan 1.6 nan nan 3.0 7.3 9.4 11.9 11.1 10.0 8.1 6.0 4.2 3.6 2.8 2.5 2.9 2.7 2.6 2.9 3.9 2.5 3.4 4.3 4.0 2.9 2.1 1.4 1.0 1.0 0.5 0.4 0.5 0.3
2.8 7.7 4.0 5.5 3.4 5.0 6.3 7.1 7.0 7.5 8.6 10.4 10.5 8.8 6.2 5.8 5.7 4.6 4.8 4.2 4.0 3.4 1.1 0.8 0.6 0.6 2.7 1.5 1.1 1.2 0.6 1.2 0.3 0.3 0.5 0.8 0.5 0.6
6.6 8.3 8.2 8.0 8.2 7.8 7.6 7.9 7.9 7.7 9.6 10.2 10.0 8.2 6.6 5.1 4.7 3.0 2.9 2.4 3.7 1.9 1.0 0.6 0.1 0.1 0.3 0.1 1.8 0.3 0.3 0.3 0.3 1.0 0.7 1.0 0.7 1.0
6.2 8.5 13.6 14.3 10.9 9.5 9.7 8.6 6.9 5.1 5.3 4.8 5.2 4.0 3.8 4.0 3.1 2.1 1.9 2.6 3.0 1.7 1.4 0.7 1.0 1.0 0.6 0.5 0.5 0.6 0.3 0.4 0.4 0.3 0.4 1.8 1.1 1.4
8.1 8.9 12.8 13.2 9.2 5.3 4.6 4.2 5.5 4.7 2.7 3.3 3.5 3.5 2.9 2.1 2.6 2.1 2.2 1.8 2.0 0.9 0.5 0.7 1.0 1.9 2.7 5.2 0.7 nan 1.9 0.7 1.3 1.5 0.7 1.2 2.4 1.2
4.5 6.5 8.4 7.1 3.6 3.0 2.6 2.8 3.1 4.1 3.7 2.4 3.6 5.7 6.9 4.3 4.2 2.7 2.2 4.5 2.3 1.3 0.9 0.4 0.7 1.2 4.4 9.8 10.9 3.5 nan 5.1 2.7 2.8 1.9 1.0 0.6 nan
3.8 3.6 5.5 4.1 4.1 3.1 8.3 9.1 11.7 10.4 10.2 13.2 7.6 8.0 15.9 5.6 6.0 4.3 4.5 3.8 3.1 1.7 1.5 1.0 0.8 0.3 1.1 2.4 16.3 4.9 2.1 nan 0.8 1.6 1.3 2.8 2.0 1.1
6.8 4.5 4.4 4.4 5.4 4.7 9.7 15.8 13.8 13.1 9.3 6.8 12.8 17.9 15.9 7.4 7.1 6.1 7.7 7.5 2.5 3.0 1.6 0.8 0.5 0.7 1.4 2.0 2.8 7.6 2.2 1.6 nan nan nan nan 4.7 7.4
9.7 4.3 5.9 7.2 5.9 6.9 4.0 8.4 3.8 16.9 6.9 7.4 7.0 7.4 29.9 11.2 5.4 5.7 6.4 4.2 3.0 3.2 2.3 2.4 1.4 1.3 1.1 1.1 1.7 3.3 2.1 4.4 1.5 1.5 2.3 nan nan nan

GFSNE_prec_sndepth_117.txt.gz
Snowfall_Accumulation
0.0 0.0 0.0 0.0 0.0 0.0 0.0 0.0 0.0 0.0 0.0 0.0 0.0 0.0 0.0 0.0 0.0 0.0 0.0 nan nan nan nan nan nan nan nan nan nan nan nan nan nan nan nan nan nan nan
0.0 0.0 0.0 0.0 0.0 0.0 0.0 0.0 0.0 0.0 0.0 0.0 0.0 0.0 0.0 0.0 0.0 0.0 0.0 nan nan nan nan nan nan nan nan nan nan nan nan nan nan nan nan nan nan nan
0.0 0.0 0.0 0.0 0.0 0.0 0.0 0.0 0.0 0.0 0.0 0.0 0.0 0.0 0.0 0.0 0.0 0.0 0.0 0.0 0.0 nan nan nan nan nan nan nan nan nan nan nan nan nan nan nan nan nan
0.0 0.0 0.0 0.0 0.0 0.0 0.0 0.0 0.0 0.0 0.0 0.0 0.0 0.0 0.0 0.0 0.0 0.0 0.0 0.0 0.0 nan nan nan nan nan nan nan nan nan nan nan nan nan nan nan nan nan
0.0 0.0 0.0 0.0 0.0 0.0 0.0 0.0 0.0 0.0 0.0 0.0 0.0 0.0 0.0 0.0 0.0 0.0 0.0 0.0 0.0 nan nan nan nan nan nan nan nan nan nan nan nan nan nan nan nan nan
0.0 0.0 0.0 0.0 0.0 0.0 0.0 0.0 0.0 0.0 0.0 0.0 0.0 0.0 0.0 0.0 0.0 0.0 0.0 0.0 0.0 0.0 nan nan nan nan nan nan nan nan nan nan nan nan nan nan nan nan
0.0 0.0 0.0 nan nan nan 0.0 0.0 0.0 0.0 0.0 0.0 0.0 0.0 0.0 0.0 0.0 0.0 0.0 0.0 0.0 0.0 0.0 0.0 0.0 0.0 0.0 nan nan nan nan nan nan nan nan nan nan nan
0.0 0.0 0.0 0.0 0.0 nan nan nan nan 0.0 0.0 0.0 0.0 0.0 0.0 0.0 0.0 0.0 0.0 0.0 0.0 0.0 0.0 0.0 0.0 0.0 0.0 0.0 nan nan nan nan nan nan nan nan nan nan
0.0 0.0 0.0 0.0 nan 0.0 nan nan nan nan 0.0 0.0 0.0 0.0 0.0 0.0 0.0 0.0 0.0 0.0 0.0 0.0 0.0 0.2 0.1 0.7 0.5 0.1 nan nan nan nan nan nan nan nan nan nan
0.0 0.0 0.0 0.0 0.0 0.0 0.0 0.0 0.0 0.1 0.0 0.0 0.3 0.6 0.6 0.2 0.0 0.0 0.0 0.0 0.0 0.1 0.1 1.1 1.7 3.3 1.8 0.9 nan nan nan nan nan nan nan nan nan nan
0.4 0.1 0.0 0.0 nan nan 0.0 0.2 1.0 1.7 nan nan nan nan nan nan nan 0.2 0.6 0.6 1.3 1.6 3.1 1.4 3.7 5.0 4.4 3.8 2.5 nan nan nan nan nan nan nan nan nan
1.5 0.7 nan 0.3 nan nan 0.0 0.3 2.2 3.3 3.0 3.1 3.6 3.9 nan nan nan 1.8 1.1 1.2 2.7 4.5 7.5 6.6 5.8 6.5 7.8 5.6 4.9 3.4 2.7 nan nan nan nan nan nan 1.2
4.6 4.2 2.8 nan nan nan nan 1.4 2.1 4.3 6.7 6.5 5.9 6.3 5.2 4.3 4.2 4.0 4.0 4.3 6.1 8.7 7.2 5.4 6.7 6.5 7.2 7.4 5.1 4.0 3.1 2.9 2.1 1.5 nan nan nan 0.8
5.5 6.4 7.1 nan nan nan 3.3 nan nan 3.2 6.5 7.2 6.9 6.7 5.7 5.5 4.8 4.7 4.6 5.2 5.0 6.1 4.7 3.6 7.0 5.4 6.1 6.9 5.9 3.8 3.4 2.5 1.9 1.7 1.4 nan nan nan
7.2 9.4 nan nan nan 1.6 nan nan 3.7 8.5 10.3 12.7 11.7 10.3 8.2 6.1 4.4 4.0 3.2 3.0 3.7 3.7 3.9 4.2 5.2 3.9 4.5 5.4 4.9 3.4 2.2 1.4 0.9 0.9 0.5 0.4 0.4 0.2
2.9 8.1 4.1 6.5 3.7 5.5 7.3 8.6 8.4 9.2 10.4 12.2 12.1 10.1 7.3 6.6 6.4 5.3 5.4 4.7 4.5 4.1 1.5 1.1 1.0 1.0 3.2 1.8 1.2 1.2 0.6 1.3 0.3 0.3 0.4 0.8 0.5 0.6
6.5 8.4 8.5 8.4 8.9 8.9 9.0 9.2 9.1 8.8 10.7 11.4 11.0 9.3 7.5 5.6 5.2 3.4 3.4 2.9 4.3 2.6 1.5 0.9 0.2 0.1 0.3 0.1 1.8 0.4 0.3 0.3 0.2 0.9 0.7 0.9 0.7 0.8
6.2 8.4 13.5 14.3 11.1 9.9 10.4 9.4 7.7 5.7 6.0 5.3 5.6 4.4 4.2 4.4 3.4 2.1 1.9 2.6 3.1 1.8 1.5 0.7 1.0 1.0 0.5 0.5 0.5 0.6 0.2 0.3 0.4 0.3 0.4 1.7 1.1 1.2
8.0 8.8 12.7 13.1 9.1 5.3 4.5 4.2 5.6 5.1 3.1 3.6 3.7 3.6 2.9 2.1 2.5 2.1 2.2 1.8 2.0 0.9 0.5 0.6 1.0 1.8 2.6 5.1 0.7 nan 1.8 0.6 1.2 1.4 0.6 1.1 2.3 1.2
4.5 6.4 8.3 7.1 3.5 2.9 2.6 2.8 3.1 4.1 3.7 2.3 3.6 5.7 6.8 4.3 4.1 2.6 2.2 4.4 2.3 1.3 0.9 0.4 0.7 1.1 4.2 9.7 10.7 3.5 nan 5.0 2.6 2.7 1.9 0.9 0.6 nan
3.8 3.5 5.5 4.1 4.1 3.0 8.2 9.1 11.6 10.3 10.2 13.1 7.6 8.0 15.8 5.6 6.0 4.3 4.4 3.8 3.1 1.7 1.5 1.0 0.8 0.3 1.0 2.3 16.1 4.8 2.0 nan 0.7 1.5 1.2 2.7 1.9 1.0
6.7 4.5 4.4 4.4 5.4 4.6 9.6 15.7 13.7 13.1 9.3 6.8 12.8 17.8 15.8 7.3 7.0 6.1 7.6 7.5 2.5 2.9 1.6 0.8 0.4 0.7 1.4 1.9 2.8 7.6 2.1 1.5 nan nan nan nan 4.6 7.3
9.7 4.3 5.8 7.1 5.9 6.9 4.0 8.4 3.8 16.9 6.9 7.4 6.9 7.3 29.8 11.1 5.3 5.6 6.3 4.1 3.0 3.2 2.2 2.3 1.4 1.2 1.1 1.1 1.6 3.3 2.1 4.3 1.4 1.4 2.2 nan nan nan

GFSNE_prec_sndepth_120.txt.gz
Snowfall_Accumulation
0.0 0.0 0.0 0.0 0.0 0.0 0.0 0.0 0.0 0.0 0.0 0.0 0.0 0.0 0.0 0.0 0.0 0.0 0.0 nan nan nan nan nan nan nan nan nan nan nan nan nan nan nan nan nan nan nan
0.0 0.0 0.0 0.0 0.0 0.0 0.0 0.0 0.0 0.0 0.0 0.0 0.0 0.0 0.0 0.0 0.0 0.0 0.0 nan nan nan nan nan nan nan nan nan nan nan nan nan nan nan nan nan nan nan
0.0 0.0 0.0 0.0 0.0 0.0 0.0 0.0 0.0 0.0 0.0 0.0 0.0 0.0 0.0 0.0 0.0 0.0 0.0 0.0 0.0 nan nan nan nan nan nan nan nan nan nan nan nan nan nan nan nan nan
0.0 0.0 0.0 0.0 0.0 0.0 0.0 0.0 0.0 0.0 0.0 0.0 0.0 0.0 0.0 0.0 0.0 0.0 0.0 0.0 0.0 nan nan nan nan nan nan nan nan nan nan nan nan nan nan nan nan nan
0.0 0.0 0.0 0.0 0.0 0.0 0.0 0.0 0.0 0.0 0.0 0.0 0.0 0.0 0.0 0.0 0.0 0.0 0.0 0.0 0.0 nan nan nan nan nan nan nan nan nan nan nan nan nan nan nan nan nan
0.0 0.0 0.0 0.0 0.0 0.0 0.0 0.0 0.0 0.0 0.0 0.0 0.0 0.0 0.0 0.0 0.0 0.0 0.0 0.0 0.0 0.0 nan nan nan nan nan nan nan nan nan nan nan nan nan nan nan nan
0.0 0.0 0.0 nan nan nan 0.0 0.0 0.0 0.0 0.0 0.0 0.0 0.0 0.0 0.0 0.0 0.0 0.0 0.0 0.0 0.0 0.0 0.0 0.0 0.0 0.0 nan nan nan nan nan nan nan nan nan nan nan
0.0 0.0 0.0 0.0 0.0 nan nan nan nan 0.0 0.0 0.0 0.0 0.0 0.0 0.0 0.0 0.0 0.0 0.0 0.0 0.0 0.0 0.0 0.0 0.0 0.0 0.0 nan nan nan nan nan nan nan nan nan nan
0.0 0.0 0.0 0.0 nan 0.0 nan nan nan nan 0.0 0.0 0.0 0.0 0.0 0.0 0.0 0.0 0.0 0.0 0.0 0.0 0.0 0.2 0.1 0.6 0.5 0.0 nan nan nan nan nan nan nan nan nan nan
0.0 0.0 0.0 0.0 0.0 0.0 0.0 0.0 0.0 0.0 0.0 0.0 0.2 0.5 0.5 0.2 0.0 0.0 0.0 0.0 0.0 0.1 0.0 1.2 1.7 3.4 1.6 0.8 nan nan nan nan nan nan nan nan nan nan
0.5 0.3 0.1 0.0 nan nan 0.0 0.2 0.9 1.6 nan nan nan nan nan nan nan 0.2 0.5 0.6 1.2 1.5 2.8 1.5 4.0 5.5 4.7 3.9 2.6 nan nan nan nan nan nan nan nan nan
2.1 1.5 nan 0.9 nan nan 0.0 0.3 2.4 3.8 3.0 3.1 3.6 4.1 nan nan nan 1.9 1.1 1.0 2.5 4.2 7.2 7.6 6.8 7.2 8.7 6.1 5.2 3.7 3.0 nan nan nan nan nan nan 1.0
4.9 4.9 4.1 nan nan nan nan 1.9 2.3 4.4 6.9 6.6 5.9 6.7 5.7 4.8 4.6 4.4 4.4 4.3 5.5 9.1 7.3 5.1 7.2 7.4 8.2 8.7 6.1 4.7 3.6 3.4 2.2 1.6 nan nan nan 0.7
5.9 7.4 8.5 nan nan nan 4.5 nan nan 3.3 6.6 7.3 6.9 6.8 6.3 6.0 5.2 5.1 5.5 5.4 5.1 6.3 4.9 3.4 7.2 6.0 6.7 7.6 6.5 4.5 4.1 3.2 2.3 1.9 1.4 nan nan nan
6.8 9.2 nan nan nan 1.7 nan nan 3.9 9.8 11.7 13.9 12.7 11.0 8.9 6.6 4.9 4.6 3.8 3.6 4.4 4.6 4.8 4.4 5.2 4.3 5.1 6.4 6.1 4.8 3.4 2.3 1.3 1.0 0.5 0.3 0.4 0.2
2.4 7.2 3.7 6.0 3.6 5.4 7.1 8.6 8.9 10.2 12.0 14.0 13.8 11.7 8.9 8.2 7.9 6.6 6.6 6.2 5.8 5.5 2.8 2.3 2.1 2.0 4.7 3.3 2.6 2.8 1.7 1.8 0.5 0.3 0.5 0.8 0.5 0.5
5.8 7.4 7.7 7.8 8.5 8.4 8.6 9.2 9.0 8.9 11.2 12.0 11.7 10.1 8.5 6.8 6.5 4.7 4.7 4.3 5.7 4.0 3.0 2.1 1.2 1.0 1.0 0.9 2.7 1.0 0.8 0.5 0.3 0.9 0.6 0.8 0.6 0.7
5.5 7.8 13.4 14.1 10.9 9.8 10.2 9.0 7.1 5.3 5.8 5.3 5.9 4.9 4.7 5.1 4.1 2.7 2.5 3.3 3.8 2.6 2.1 1.2 1.3 1.2 0.6 0.5 0.5 0.6 0.2 0.3 0.3 0.2 0.4 1.5 0.9 1.0
7.1 7.9 12.2 12.8 8.3 4.6 3.9 3.7 5.4 4.8 2.8 3.4 3.6 3.7 3.1 2.2 2.6 2.1 2.1 1.8 2.0 1.0 0.6 0.7 1.0 1.7 2.4 5.0 0.6 nan 1.6 0.5 1.0 1.2 0.6 0.9 1.9 1.0
3.9 5.6 7.5 6.3 3.0 2.5 2.2 2.4 2.6 3.5 3.2 2.0 3.2 5.1 6.4 4.0 3.9 2.5 2.1 4.3 2.2 1.3 0.9 0.4 0.7 1.0 3.7 9.2 10.5 3.3 nan 4.3 2.1 2.2 1.6 0.8 0.5 nan
3.3 3.1 5.1 3.7 3.7 2.7 7.9 8.6 11.3 9.8 9.4 12.3 6.9 7.6 15.0 4.9 5.6 4.0 4.3 3.7 3.0 1.6 1.4 0.9 0.7 0.2 0.9 1.9 15.8 4.6 1.8 nan 0.5 1.2 1.0 2.3 1.6 0.9
6.6 4.3 4.2 4.3 5.3 4.5 9.5 15.5 13.0 12.4 8.7 6.2 12.4 17.1 14.9 6.7 6.6 5.7 7.2 7.1 2.3 2.8 1.5 0.8 0.4 0.6 1.2 1.6 2.6 7.3 1.9 1.3 nan nan nan nan 4.2 6.4
9.6 4.2 5.7 7.0 5.7 6.7 3.9 8.2 3.6 16.7 6.8 7.3 6.5 6.8 29.5 10.6 4.8 5.1 5.9 3.8 2.7 3.0 2.0 2.1 1.2 1.0 0.9 1.0 1.4 3.0 2.0 4.0 1.2 1.2 1.9 nan nan nan

GFSNE_prec_sndepth_123.txt.gz
Snowfall_Accumulation
0.0 0.0 0.0 0.0 0.0 0.0 0.0 0.0 0.0 0.0 0.0 0.0 0.0 0.0 0.0 0.0 0.0 0.0 0.0 nan nan nan nan nan nan nan nan nan nan nan nan nan nan nan nan nan nan nan
0.0 0.0 0.0 0.0 0.0 0.0 0.0 0.0 0.0 0.0 0.0 0.0 0.0 0.0 0.0 0.0 0.0 0.0 0.0 nan nan nan nan nan nan nan nan nan nan nan nan nan nan nan nan nan nan nan
0.0 0.0 0.0 0.0 0.0 0.0 0.0 0.0 0.0 0.0 0.0 0.0 0.0 0.0 0.0 0.0 0.0 0.0 0.0 0.0 0.0 nan nan nan nan nan nan nan nan nan nan nan nan nan nan nan nan nan
0.0 0.0 0.0 0.0 0.0 0.0 0.0 0.0 0.0 0.0 0.0 0.0 0.0 0.0 0.0 0.0 0.0 0.0 0.0 0.0 0.0 nan nan nan nan nan nan nan nan nan nan nan nan nan nan nan nan nan
0.0 0.0 0.0 0.0 0.0 0.0 0.0 0.0 0.0 0.0 0.0 0.0 0.0 0.0 0.0 0.0 0.0 0.0 0.0 0.0 0.0 nan nan nan nan nan nan nan nan nan nan nan nan nan nan nan nan nan
0.0 0.0 0.0 0.0 0.0 0.0 0.0 0.0 0.0 0.0 0.0 0.0 0.0 0.0 0.0 0.0 0.0 0.0 0.0 0.0 0.0 0.0 nan nan nan nan nan nan nan nan nan nan nan nan nan nan nan nan
0.0 0.0 0.0 nan nan nan 0.0 0.0 0.0 0.0 0.0 0.0 0.0 0.0 0.0 0.0 0.0 0.0 0.0 0.0 0.0 0.0 0.0 0.0 0.0 0.0 0.0 nan nan nan nan nan nan nan nan nan nan nan
0.0 0.0 0.0 0.0 0.0 nan nan nan nan 0.0 0.0 0.0 0.0 0.0 0.0 0.0 0.0 0.0 0.0 0.0 0.0 0.0 0.0 0.0 0.0 0.0 0.0 0.0 nan nan nan nan nan nan nan nan nan nan
0.0 0.0 0.0 0.0 nan 0.0 nan nan nan nan 0.0 0.0 0.0 0.0 0.0 0.0 0.0 0.0 0.0 0.0 0.0 0.0 0.0 0.2 0.1 0.6 0.4 0.0 nan nan nan nan nan nan nan nan nan nan
0.0 0.0 0.0 0.0 0.0 0.0 0.0 0.0 0.0 0.0 0.0 0.0 0.2 0.4 0.4 0.1 0.0 0.0 0.0 0.0 0.0 0.1 0.0 1.1 1.6 3.7 1.6 0.7 nan nan nan nan nan nan nan nan nan nan
0.4 0.3 0.1 0.1 nan nan 0.0 0.1 1.0 1.6 nan nan nan nan nan nan nan 0.2 0.5 0.5 1.1 1.4 2.6 1.4 3.9 5.7 4.7 4.2 2.4 nan nan nan nan nan nan nan nan nan
2.0 1.6 nan 1.0 nan nan 0.0 0.2 2.9 4.4 3.6 3.5 3.7 4.1 nan nan nan 2.0 1.0 0.8 2.3 3.9 6.5 7.6 7.3 7.7 9.8 6.7 5.4 3.9 3.0 nan nan nan nan nan nan 1.0
4.5 4.7 4.1 nan nan nan nan 3.1 3.8 5.6 7.5 7.5 6.8 7.4 6.2 5.0 4.7 4.6 4.7 4.6 5.0 8.6 6.8 4.8 7.8 8.0 8.8 9.7 6.7 5.2 4.0 3.9 2.8 2.3 nan nan nan 0.6
5.5 6.7 7.6 nan nan nan 4.8 nan nan 3.7 8.0 8.3 7.5 7.3 7.2 7.1 6.0 5.9 6.2 6.1 6.0 7.2 5.7 3.7 7.2 6.3 7.0 8.2 7.1 5.1 4.7 3.8 3.0 2.6 2.1 nan nan nan
6.0 8.3 nan nan nan 1.6 nan nan 3.9 11.4 13.6 15.9 14.6 12.5 10.1 7.5 5.4 5.2 4.5 4.3 5.2 5.4 5.6 4.5 5.4 4.9 5.6 7.2 7.0 5.6 4.3 3.3 2.1 1.8 1.2 0.7 0.5 0.3
1.9 6.1 3.2 5.1 3.1 4.9 6.3 7.7 8.3 10.6 12.9 15.1 15.1 13.2 10.3 9.4 9.1 7.8 7.9 7.6 7.1 6.6 3.4 2.9 2.7 2.7 5.9 4.4 3.5 3.9 2.6 2.8 1.5 1.3 1.1 1.4 0.9 0.9
5.3 6.5 7.0 7.0 7.8 7.7 7.8 8.5 8.1 8.1 10.5 11.7 11.5 10.4 8.9 7.4 7.2 5.3 5.4 5.2 6.6 5.5 4.8 4.2 3.1 2.5 2.7 2.4 4.6 2.6 2.5 2.1 1.3 1.6 1.2 1.3 0.7 0.7
5.0 7.4 13.3 14.0 10.8 9.5 10.1 8.9 7.1 5.2 5.4 4.7 5.4 4.7 4.8 5.3 4.4 3.0 2.8 3.8 4.4 3.3 3.0 2.3 2.4 2.4 1.7 1.8 1.6 1.8 1.3 1.0 0.8 0.5 0.5 1.4 0.9 0.9
6.7 7.8 12.1 12.3 7.5 3.8 3.2 3.1 5.2 4.5 2.4 3.1 3.4 3.5 2.9 2.1 2.5 2.2 2.3 2.0 2.4 1.3 1.0 1.1 1.6 2.3 3.1 5.9 1.4 nan 1.9 0.8 1.1 1.2 0.6 0.9 1.8 0.8
3.2 4.9 6.7 5.6 2.5 2.0 1.8 2.1 2.3 3.1 2.7 1.7 2.9 4.8 6.0 3.5 3.5 2.3 1.9 4.2 2.1 1.2 0.9 0.4 0.7 1.2 3.8 9.3 10.7 3.5 nan 4.2 2.1 2.1 1.5 0.7 0.4 nan
2.9 2.7 4.7 3.4 3.3 2.4 7.8 8.4 11.0 9.4 8.9 11.7 6.3 7.1 14.1 4.2 5.0 3.6 4.0 3.5 2.6 1.3 1.3 0.9 0.7 0.1 0.8 1.9 15.7 4.6 1.8 nan 0.5 1.2 0.9 2.2 1.4 0.8
6.5 4.0 4.0 4.2 5.2 4.4 9.4 15.4 12.8 12.2 8.4 5.7 12.1 16.8 14.2 5.9 5.9 5.1 6.5 6.3 2.0 2.4 1.3 0.7 0.3 0.5 1.1 1.5 2.5 7.2 1.9 1.3 nan nan nan nan 4.0 6.2
9.5 4.1 5.6 6.9 5.6 6.6 3.7 8.1 3.5 16.6 6.7 7.2 6.4 6.6 29.3 10.1 4.3 4.5 5.2 3.4 2.4 2.6 1.7 1.8 1.0 0.9 0.8 0.8 1.3 2.9 1.9 4.0 1.1 1.2 1.8 nan nan nan

GFSNE_prec_sndepth_129.txt.gz
Snowfall_Accumulation
0.0 0.0 0.0 0.0 0.0 0.0 0.0 0.0 0.0 0.0 0.0 0.0 0.0 0.0 0.0 0.0 0.0 0.0 0.0 nan nan nan nan nan nan nan nan nan nan nan nan nan nan nan nan nan nan nan
0.0 0.0 0.0 0.0 0.0 0.0 0.0 0.0 0.0 0.0 0.0 0.0 0.0 0.0 0.0 0.0 0.0 0.0 0.0 nan nan nan nan nan nan nan nan nan nan nan nan nan nan nan nan nan nan nan
0.0 0.0 0.0 0.0 0.0 0.0 0.0 0.0 0.0 0.0 0.0 0.0 0.0 0.0 0.0 0.0 0.0 0.0 0.0 0.0 0.0 nan nan nan nan nan nan nan nan nan nan nan nan nan nan nan nan nan
0.0 0.0 0.0 0.0 0.0 0.0 0.0 0.0 0.0 0.0 0.0 0.0 0.0 0.0 0.0 0.0 0.0 0.0 0.0 0.0 0.0 nan nan nan nan nan nan nan nan nan nan nan nan nan nan nan nan nan
0.0 0.0 0.0 0.0 0.0 0.0 0.0 0.0 0.0 0.0 0.0 0.0 0.0 0.0 0.0 0.0 0.0 0.0 0.0 0.0 0.0 nan nan nan nan nan nan nan nan nan nan nan nan nan nan nan nan nan
0.0 0.0 0.0 0.0 0.0 0.0 0.0 0.0 0.0 0.0 0.0 0.0 0.0 0.0 0.0 0.0 0.0 0.0 0.0 0.0 0.0 0.0 nan nan nan nan nan nan nan nan nan nan nan nan nan nan nan nan
0.0 0.0 0.0 nan nan nan 0.0 0.0 0.0 0.0 0.0 0.0 0.0 0.0 0.0 0.0 0.0 0.0 0.0 0.0 0.0 0.0 0.0 0.0 0.0 0.0 0.0 nan nan nan nan nan nan nan nan nan nan nan
0.0 0.0 0.0 0.0 0.0 nan nan nan nan 0.0 0.0 0.0 0.0 0.0 0.0 0.0 0.0 0.0 0.0 0.0 0.0 0.0 0.0 0.0 0.0 0.0 0.0 0.0 nan nan nan nan nan nan nan nan nan nan
0.0 0.0 0.0 0.0 nan 0.0 nan nan nan nan 0.0 0.0 0.0 0.0 0.0 0.0 0.0 0.0 0.0 0.0 0.0 0.0 0.0 0.2 0.1 0.5 0.4 0.0 nan nan nan nan nan nan nan nan nan nan
0.0 0.0 0.0 0.0 0.0 0.0 0.0 0.0 0.0 0.1 0.2 0.1 0.3 0.5 0.4 0.2 0.0 0.0 0.0 0.0 0.0 0.1 0.0 1.0 1.4 3.6 1.3 0.6 nan nan nan nan nan nan nan nan nan nan
0.3 0.3 0.1 0.0 nan nan 0.0 0.1 0.9 1.7 nan nan nan nan nan nan nan 0.2 0.5 0.4 1.0 1.2 2.2 1.2 3.7 5.8 4.6 3.9 2.1 nan nan nan nan nan nan nan nan nan
1.8 1.5 nan 1.1 nan nan 0.0 0.2 2.8 4.9 4.2 3.8 4.2 4.6 nan nan nan 2.7 1.3 0.7 2.0 3.4 5.4 7.1 7.4 7.9 10.3 7.1 5.6 3.6 2.6 nan nan nan nan nan nan 1.4
4.3 4.5 3.8 nan nan nan nan 3.3 4.3 6.2 7.9 8.3 7.5 8.3 7.3 5.9 5.4 5.5 5.8 5.6 4.8 7.6 6.3 4.3 7.9 8.6 9.6 10.4 7.1 5.9 4.5 4.7 3.5 3.4 nan nan nan 1.4
5.5 6.3 7.2 nan nan nan 4.6 nan nan 3.8 8.5 8.9 8.2 8.4 8.4 8.4 7.4 7.7 8.5 7.9 8.2 9.2 6.3 3.1 7.5 7.5 8.1 9.0 7.9 6.1 5.8 5.1 4.2 4.3 4.1 nan nan nan
5.7 7.7 nan nan nan 1.5 nan nan 3.9 11.5 13.9 16.3 15.3 13.5 11.3 8.6 6.4 6.3 5.9 6.2 8.0 8.6 8.3 6.4 6.9 6.8 7.9 10.2 9.8 7.8 6.1 5.0 3.5 3.4 2.9 2.1 1.8 1.6
1.8 5.7 3.1 4.8 3.0 4.7 6.1 7.4 8.0 10.3 13.1 15.3 15.5 13.8 11.1 10.3 10.2 9.0 9.3 9.2 8.8 8.9 5.9 5.3 5.1 5.4 9.2 7.5 6.0 6.5 4.1 4.0 2.9 2.6 2.4 3.0 2.5 2.3
5.2 6.3 6.8 6.9 7.7 7.6 7.6 8.4 8.0 7.9 10.4 11.6 11.5 10.5 9.1 7.7 7.7 5.9 6.1 6.1 7.7 7.0 6.7 6.5 5.7 5.2 5.9 5.7 8.8 6.5 6.1 5.5 4.2 4.2 3.5 3.4 2.8 2.2
4.9 7.3 13.2 13.9 10.8 9.5 10.1 8.9 7.0 5.2 5.4 4.7 5.5 4.7 4.9 5.4 4.5 3.1 2.9 4.0 4.8 3.9 3.8 3.3 3.6 3.8 3.2 3.9 4.1 4.8 4.3 3.7 3.6 3.2 2.9 3.6 2.8 2.4
6.6 7.8 12.0 12.3 7.4 3.8 3.2 3.1 5.2 4.5 2.4 3.0 3.4 3.5 2.9 2.1 2.5 2.2 2.3 2.1 2.4 1.4 1.2 1.4 2.1 2.7 3.9 6.9 3.2 nan 3.6 2.6 2.8 2.8 1.9 2.2 3.1 2.1
3.1 4.9 6.7 5.6 2.5 2.0 1.8 2.1 2.4 3.1 2.8 1.7 2.9 4.8 6.0 3.5 3.5 2.2 1.9 4.2 2.1 1.2 0.9 0.4 0.7 1.4 3.9 9.5 11.2 4.6 nan 5.1 3.0 3.0 2.2 1.3 1.1 nan
2.8 2.7 4.7 3.3 3.3 2.4 7.9 8.4 11.1 9.4 9.0 11.7 6.4 7.1 14.1 4.2 5.0 3.6 3.9 3.4 2.6 1.3 1.3 0.9 0.7 0.2 0.8 1.9 15.7 4.9 1.8 nan 0.6 1.3 1.1 2.3 1.6 0.9
6.4 4.0 4.1 4.2 5.1 4.4 9.3 15.3 12.8 12.1 8.3 5.7 12.2 16.7 14.2 5.9 5.9 5.1 6.4 6.2 2.0 2.4 1.3 0.7 0.3 0.5 1.1 1.5 2.6 7.3 1.9 1.3 nan nan nan nan 4.0 6.2
9.4 4.1 5.6 6.9 5.6 6.5 3.7 8.1 3.5 16.6 6.6 7.2 6.4 6.6 29.2 10.1 4.2 4.4 5.1 3.4 2.3 2.5 1.7 1.8 1.0 0.9 0.8 0.8 1.3 2.9 1.9 4.0 1.1 1.1 1.8 nan nan nan

GFSNE_prec_sndepth_132.txt.gz
Snowfall_Accumulation
0.0 0.0 0.0 0.0 0.0 0.0 0.0 0.0 0.0 0.0 0.0 0.0 0.0 0.0 0.0 0.0 0.0 0.0 0.0 nan nan nan nan nan nan nan nan nan nan nan nan nan nan nan nan nan nan nan
0.0 0.0 0.0 0.0 0.0 0.0 0.0 0.0 0.0 0.0 0.0 0.0 0.0 0.0 0.0 0.0 0.0 0.0 0.0 nan nan nan nan nan nan nan nan nan nan nan nan nan nan nan nan nan nan nan
0.0 0.0 0.0 0.0 0.0 0.0 0.0 0.0 0.0 0.0 0.0 0.0 0.0 0.0 0.0 0.0 0.0 0.0 0.0 0.0 0.0 nan nan nan nan nan nan nan nan nan nan nan nan nan nan nan nan nan
0.0 0.0 0.0 0.0 0.0 0.0 0.0 0.0 0.0 0.0 0.0 0.0 0.0 0.0 0.0 0.0 0.0 0.0 0.0 0.0 0.0 nan nan nan nan nan nan nan nan nan nan nan nan nan nan nan nan nan
0.0 0.0 0.0 0.0 0.0 0.0 0.0 0.0 0.0 0.0 0.0 0.0 0.0 0.0 0.0 0.0 0.0 0.0 0.0 0.0 0.0 nan nan nan nan nan nan nan nan nan nan nan nan nan nan nan nan nan
0.0 0.0 0.0 0.0 0.0 0.0 0.0 0.0 0.0 0.0 0.0 0.0 0.0 0.0 0.0 0.0 0.0 0.0 0.0 0.0 0.0 0.0 nan nan nan nan nan nan nan nan nan nan nan nan nan nan nan nan
0.1 0.0 0.0 nan nan nan 0.0 0.0 0.0 0.0 0.0 0.0 0.0 0.0 0.0 0.0 0.0 0.0 0.0 0.0 0.0 0.0 0.0 0.0 0.0 0.0 0.0 nan nan nan nan nan nan nan nan nan nan nan
0.5 0.1 0.0 0.0 0.0 nan nan nan nan 0.0 0.0 0.0 0.0 0.0 0.0 0.0 0.0 0.0 0.0 0.0 0.0 0.0 0.0 0.0 0.0 0.0 0.0 0.0 nan nan nan nan nan nan nan nan nan nan
0.2 0.2 0.1 0.0 nan 0.0 nan nan nan nan 0.0 0.0 0.0 0.0 0.0 0.0 0.0 0.0 0.0 0.0 0.0 0.0 0.0 0.2 0.1 0.5 0.3 0.0 nan nan nan nan nan nan nan nan nan nan
0.0 0.0 0.0 0.0 0.0 0.0 0.0 0.0 0.0 0.1 0.2 0.1 0.3 0.4 0.4 0.3 0.1 0.0 0.0 0.0 0.0 0.1 0.0 0.9 1.3 3.3 1.3 0.6 nan nan nan nan nan nan nan nan nan nan
0.3 0.2 0.1 0.0 nan nan 0.0 0.1 0.9 1.7 nan nan nan nan nan nan nan 0.2 0.5 0.4 1.0 1.1 2.0 1.1 3.5 5.7 4.4 3.6 1.9 nan nan nan nan nan nan nan nan nan
1.8 1.5 nan 1.0 nan nan 0.0 0.2 2.8 4.9 4.2 3.8 4.2 4.6 nan nan nan 2.7 1.3 0.7 1.9 3.1 5.0 6.4 7.2 7.8 10.1 7.1 5.6 3.4 2.4 nan nan nan nan nan nan 1.3
4.3 4.5 3.8 nan nan nan nan 3.2 4.3 6.3 7.9 8.3 7.5 8.3 7.3 5.9 5.3 5.5 5.8 5.6 4.9 7.3 6.2 4.3 7.8 8.6 10.0 10.9 7.3 6.1 4.5 4.6 3.2 3.1 nan nan nan 1.3
5.5 6.3 7.2 nan nan nan 4.6 nan nan 3.8 8.5 8.8 8.1 8.3 8.4 8.4 7.4 7.8 8.5 7.9 8.2 9.3 6.5 3.4 7.2 7.5 8.4 9.7 8.4 6.7 6.3 5.6 4.8 4.9 4.4 nan nan nan
5.7 7.7 nan nan nan 1.5 nan nan 3.9 11.5 13.9 16.3 15.2 13.5 11.3 8.6 6.5 6.3 5.9 6.2 8.0 8.6 8.5 6.7 7.2 7.1 8.4 10.8 10.6 8.7 7.1 6.2 4.5 4.2 3.7 3.1 2.6 2.4
1.8 5.7 3.1 4.8 3.0 4.7 6.1 7.4 8.0 10.3 13.1 15.3 15.5 13.8 11.1 10.3 10.2 9.0 9.3 9.2 8.8 8.9 5.9 5.4 5.3 5.8 9.9 8.5 7.2 7.9 5.2 5.2 4.3 4.0 3.6 4.0 3.3 3.2
5.2 6.3 6.8 6.9 7.7 7.6 7.6 8.4 8.0 7.9 10.5 11.6 11.5 10.5 9.1 7.7 7.7 5.9 6.1 6.1 7.7 7.0 6.7 6.6 5.8 5.4 6.4 6.4 9.9 7.7 7.4 7.1 6.0 6.0 5.3 5.3 4.5 3.5
4.9 7.4 13.2 13.9 10.8 9.5 10.1 8.9 7.0 5.2 5.4 4.8 5.5 4.7 4.9 5.4 4.5 3.1 2.9 4.0 4.8 3.9 3.8 3.4 3.7 3.8 3.2 4.1 4.6 5.5 5.3 4.8 4.9 4.4 4.2 4.9 4.2 3.7
6.6 7.8 12.0 12.3 7.4 3.8 3.2 3.1 5.3 4.5 2.4 3.0 3.4 3.6 2.9 2.1 2.5 2.2 2.3 2.1 2.4 1.4 1.2 1.4 2.1 2.7 3.9 6.9 3.5 nan 4.0 3.1 3.6 3.8 2.7 3.1 4.2 3.4
3.1 4.9 6.8 5.6 2.5 2.0 1.8 2.1 2.4 3.1 2.8 1.8 2.9 4.8 6.1 3.5 3.5 2.2 1.9 4.2 2.1 1.2 0.9 0.4 0.7 1.4 3.9 9.5 11.2 4.8 nan 5.3 3.3 3.4 2.7 2.0 1.7 nan
2.8 2.7 4.8 3.4 3.3 2.4 7.9 8.4 11.1 9.5 9.0 11.8 6.4 7.2 14.2 4.3 5.0 3.6 3.9 3.4 2.6 1.3 1.3 0.9 0.8 0.2 0.8 1.9 15.7 5.0 1.9 nan 0.6 1.3 1.3 2.6 2.0 1.3
6.4 4.0 4.1 4.2 5.1 4.4 9.3 15.3 12.8 12.1 8.3 5.7 12.2 16.8 14.3 6.1 6.0 5.1 6.4 6.2 2.0 2.4 1.3 0.7 0.3 0.5 1.1 1.5 2.7 7.4 2.0 1.4 nan nan nan nan 4.1 6.2
9.4 4.1 5.7 6.9 5.6 6.6 3.7 8.1 3.5 16.6 6.6 7.2 6.5 6.7 29.3 10.2 4.3 4.5 5.1 3.4 2.3 2.5 1.7 1.8 1.0 0.9 0.8 0.8 1.3 2.9 1.9 4.0 1.1 1.1 1.8 nan nan nan

GFSNE_prec_sndepth_135.txt.gz
Snowfall_Accumulation
0.0 0.0 0.0 0.0 0.0 0.0 0.0 0.0 0.0 0.0 0.0 0.0 0.0 0.0 0.0 0.0 0.0 0.0 0.0 nan nan nan nan nan nan nan nan nan nan nan nan nan nan nan nan nan nan nan
0.0 0.0 0.0 0.0 0.0 0.0 0.0 0.0 0.0 0.0 0.0 0.0 0.0 0.0 0.0 0.0 0.0 0.0 0.0 nan nan nan nan nan nan nan nan nan nan nan nan nan nan nan nan nan nan nan
0.0 0.0 0.0 0.0 0.0 0.0 0.0 0.0 0.0 0.0 0.0 0.0 0.0 0.0 0.0 0.0 0.0 0.0 0.0 0.0 0.0 nan nan nan nan nan nan nan nan nan nan nan nan nan nan nan nan nan
0.0 0.0 0.0 0.0 0.0 0.0 0.0 0.0 0.0 0.0 0.0 0.0 0.0 0.0 0.0 0.0 0.0 0.0 0.0 0.0 0.0 nan nan nan nan nan nan nan nan nan nan nan nan nan nan nan nan nan
0.0 0.0 0.0 0.0 0.0 0.0 0.0 0.0 0.0 0.0 0.0 0.0 0.0 0.0 0.0 0.0 0.0 0.0 0.0 0.0 0.0 nan nan nan nan nan nan nan nan nan nan nan nan nan nan nan nan nan
0.0 0.0 0.0 0.0 0.0 0.0 0.0 0.0 0.0 0.0 0.0 0.0 0.0 0.0 0.0 0.0 0.0 0.0 0.0 0.0 0.0 0.0 nan nan nan nan nan nan nan nan nan nan nan nan nan nan nan nan
0.7 0.5 0.4 nan nan nan 0.0 0.0 0.0 0.0 0.0 0.0 0.0 0.0 0.0 0.0 0.0 0.0 0.0 0.0 0.0 0.0 0.0 0.0 0.0 0.0 0.0 nan nan nan nan nan nan nan nan nan nan nan
3.1 2.2 0.8 0.9 0.4 nan nan nan nan 0.1 0.0 0.0 0.0 0.0 0.0 0.0 0.0 0.0 0.0 0.0 0.0 0.0 0.0 0.0 0.0 0.0 0.0 0.0 nan nan nan nan nan nan nan nan nan nan
2.9 2.7 2.1 1.3 nan 0.4 nan nan nan nan 0.3 0.0 0.0 0.0 0.0 0.0 0.0 0.0 0.0 0.0 0.0 0.0 0.0 0.2 0.1 0.4 0.3 0.0 nan nan nan nan nan nan nan nan nan nan
0.1 0.0 0.1 0.2 0.4 0.4 0.2 0.1 0.1 0.2 0.2 0.1 0.3 0.4 0.4 0.2 0.1 0.0 0.0 0.0 0.0 0.1 0.0 0.8 1.2 3.0 1.2 0.6 nan nan nan nan nan nan nan nan nan nan
0.3 0.2 0.1 0.1 nan nan 0.0 0.1 0.9 1.7 nan nan nan nan nan nan nan 0.2 0.5 0.4 0.9 1.1 1.9 1.1 3.3 5.2 4.2 3.4 1.8 nan nan nan nan nan nan nan nan nan
1.8 1.5 nan 1.0 nan nan 0.0 0.2 2.8 4.9 4.2 3.8 4.2 4.6 nan nan nan 2.7 1.3 0.7 1.9 3.0 5.0 6.4 6.6 7.1 9.1 7.1 5.6 3.3 2.2 nan nan nan nan nan nan 1.2
4.3 4.5 3.8 nan nan nan nan 3.2 4.3 6.3 7.9 8.3 7.4 8.2 7.2 5.9 5.3 5.5 5.8 5.6 4.9 7.3 6.2 4.3 7.5 8.1 9.8 10.9 7.4 6.1 4.6 4.6 3.2 3.1 nan nan nan 1.2
5.5 6.3 7.2 nan nan nan 4.6 nan nan 3.8 8.4 8.8 8.1 8.3 8.4 8.3 7.4 7.8 8.5 7.9 8.2 9.3 6.5 3.4 7.2 7.5 8.4 9.6 8.4 6.7 6.3 5.7 5.0 5.2 4.7 nan nan nan
5.7 7.7 nan nan nan 1.5 nan nan 3.9 11.5 13.9 16.2 15.2 13.5 11.3 8.6 6.5 6.3 5.9 6.2 8.0 8.6 8.5 6.7 7.2 7.1 8.5 10.8 10.6 8.7 7.3 6.3 4.7 4.4 4.2 3.6 3.4 3.2
1.8 5.7 3.1 4.8 3.0 4.7 6.1 7.4 8.0 10.3 13.1 15.3 15.5 13.8 11.1 10.3 10.2 9.0 9.3 9.2 8.8 8.9 5.9 5.4 5.3 5.8 9.9 8.5 7.3 8.0 5.3 5.4 4.6 4.5 4.2 4.8 4.1 4.1
5.2 6.3 6.8 6.9 7.7 7.6 7.6 8.4 8.0 7.9 10.5 11.6 11.5 10.5 9.1 7.7 7.7 5.9 6.1 6.1 7.7 7.0 6.7 6.6 5.8 5.5 6.4 6.5 9.9 7.8 7.6 7.4 6.3 6.4 5.8 6.1 5.7 4.8
4.9 7.4 13.2 13.9 10.8 9.5 10.1 8.9 7.0 5.2 5.4 4.8 5.5 4.8 4.9 5.4 4.5 3.1 2.9 4.0 4.8 4.0 3.9 3.4 3.7 3.8 3.2 4.1 4.6 5.6 5.4 4.9 5.2 4.7 4.6 5.3 4.9 4.8
6.6 7.8 12.0 12.3 7.4 3.8 3.2 3.1 5.3 4.6 2.4 3.0 3.4 3.6 2.9 2.1 2.5 2.2 2.3 2.1 2.4 1.4 1.2 1.5 2.1 2.7 3.9 7.0 3.5 nan 4.1 3.2 3.7 3.9 2.9 3.4 4.6 4.1
3.1 4.9 6.8 5.6 2.5 2.0 1.8 2.1 2.5 3.1 2.8 1.8 2.9 4.9 6.1 3.6 3.5 2.2 1.9 4.2 2.1 1.2 0.9 0.5 0.8 1.5 4.0 9.5 11.2 5.0 nan 5.4 3.3 3.6 2.9 2.3 2.1 nan
2.8 2.7 4.8 3.4 3.3 2.4 7.9 8.4 11.1 9.5 9.0 11.8 6.4 7.2 14.3 4.5 5.0 3.6 3.9 3.4 2.6 1.3 1.3 0.9 0.9 0.2 0.9 2.0 15.8 5.3 2.1 nan 0.7 1.4 1.5 2.7 2.1 1.7
6.4 4.0 4.1 4.2 5.2 4.4 9.3 15.3 12.8 12.1 8.3 5.7 12.2 16.8 14.3 6.2 6.1 5.2 6.4 6.2 2.0 2.4 1.3 0.7 0.3 0.6 1.1 1.6 2.9 7.7 2.3 1.7 nan nan nan nan 4.2 6.5
9.4 4.1 5.7 6.9 5.6 6.6 3.7 8.1 3.5 16.6 6.6 7.2 6.5 6.7 29.2 10.3 4.4 4.5 5.1 3.4 2.3 2.5 1.6 1.8 1.0 0.9 0.8 0.9 1.4 3.2 2.2 4.2 1.3 1.3 1.9 nan nan nan

GFSNE_prec_sndepth_138.txt.gz
Snowfall_Accumulation
0.0 0.0 0.0 0.0 0.0 0.0 0.0 0.0 0.0 0.0 0.0 0.0 0.0 0.0 0.0 0.0 0.0 0.0 0.0 nan nan nan nan nan nan nan nan nan nan nan nan nan nan nan nan nan nan nan
0.0 0.0 0.0 0.0 0.0 0.0 0.0 0.0 0.0 0.0 0.0 0.0 0.0 0.0 0.0 0.0 0.0 0.0 0.0 nan nan nan nan nan nan nan nan nan nan nan nan nan nan nan nan nan nan nan
0.0 0.0 0.0 0.0 0.0 0.0 0.0 0.0 0.0 0.0 0.0 0.0 0.0 0.0 0.0 0.0 0.0 0.0 0.0 0.0 0.0 nan nan nan nan nan nan nan nan nan nan nan nan nan nan nan nan nan
0.0 0.0 0.0 0.0 0.0 0.0 0.0 0.0 0.0 0.0 0.0 0.0 0.0 0.0 0.0 0.0 0.0 0.0 0.0 0.0 0.0 nan nan nan nan nan nan nan nan nan nan nan nan nan nan nan nan nan
0.0 0.0 0.0 0.0 0.0 0.0 0.0 0.0 0.0 0.0 0.0 0.0 0.0 0.0 0.0 0.0 0.0 0.0 0.0 0.0 0.0 nan nan nan nan nan nan nan nan nan nan nan nan nan nan nan nan nan
0.1 0.1 0.0 0.0 0.0 0.0 0.0 0.0 0.0 0.0 0.0 0.0 0.0 0.0 0.0 0.0 0.0 0.0 0.0 0.0 0.0 0.0 nan nan nan nan nan nan nan nan nan nan nan nan nan nan nan nan
0.6 0.8 0.6 nan nan nan 0.1 0.0 0.0 0.0 0.0 0.0 0.0 0.0 0.0 0.0 0.0 0.0 0.0 0.0 0.0 0.0 0.0 0.0 0.0 0.0 0.0 nan nan nan nan nan nan nan nan nan nan nan
3.9 3.2 1.8 2.1 1.7 nan nan nan nan 0.3 0.0 0.0 0.0 0.0 0.0 0.3 0.1 0.0 0.0 0.0 0.0 0.0 0.0 0.0 0.0 0.0 0.0 0.0 nan nan nan nan nan nan nan nan nan nan
3.9 3.9 3.9 3.3 nan 2.2 nan nan nan nan 0.9 0.5 0.6 1.1 0.9 0.7 0.3 0.1 0.0 0.0 0.0 0.0 0.0 0.1 0.0 0.4 0.3 0.0 nan nan nan nan nan nan nan nan nan nan
0.4 0.3 0.4 0.5 1.2 1.6 1.6 1.8 1.5 1.3 1.2 0.8 0.9 1.1 1.0 0.6 0.4 0.1 0.0 0.0 0.0 0.1 0.0 0.7 1.2 2.8 1.1 0.5 nan nan nan nan nan nan nan nan nan nan
0.4 0.4 0.2 0.2 nan nan 0.1 0.2 0.9 1.8 nan nan nan nan nan nan nan 0.2 0.5 0.4 0.9 1.0 1.9 1.1 3.0 4.7 3.9 3.2 1.7 nan nan nan nan nan nan nan nan nan
1.8 1.5 nan 1.1 nan nan 0.1 0.4 2.9 5.0 4.2 3.8 4.2 4.6 nan nan nan 2.7 1.3 0.7 1.9 2.9 5.0 6.4 6.1 6.5 8.2 6.8 5.4 3.2 2.1 nan nan nan nan nan nan 1.1
4.3 4.5 3.8 nan nan nan nan 3.2 4.3 6.3 7.9 8.3 7.4 8.2 7.2 5.8 5.3 5.5 5.8 5.7 4.9 7.3 6.2 4.3 7.5 7.7 9.2 10.8 7.1 6.0 4.5 4.4 3.1 2.9 nan nan nan 1.1
5.4 6.3 7.1 nan nan nan 4.6 nan nan 3.8 8.4 8.8 8.1 8.3 8.4 8.3 7.4 7.7 8.5 7.9 8.2 9.3 6.5 3.4 7.3 7.5 8.4 9.6 8.3 6.6 6.3 5.6 4.9 5.1 4.6 nan nan nan
5.6 7.7 nan nan nan 1.5 nan nan 3.9 11.5 13.8 16.2 15.2 13.5 11.3 8.6 6.4 6.3 5.9 6.2 8.0 8.6 8.5 6.7 7.3 7.2 8.5 10.8 10.6 8.7 7.3 6.3 4.7 4.4 4.2 3.6 3.4 3.2
1.8 5.7 3.1 4.8 3.0 4.7 6.0 7.4 7.9 10.3 13.1 15.3 15.5 13.7 11.0 10.2 10.2 9.0 9.3 9.2 8.8 8.8 5.9 5.4 5.3 5.8 9.9 8.5 7.3 8.0 5.3 5.4 4.6 4.5 4.2 4.9 4.1 4.1
5.2 6.3 6.8 6.9 7.7 7.6 7.6 8.4 8.0 7.9 10.5 11.6 11.5 10.5 9.1 7.7 7.7 5.9 6.1 6.1 7.7 7.0 6.7 6.5 5.8 5.5 6.4 6.5 9.9 7.8 7.6 7.4 6.4 6.4 5.8 6.1 5.7 4.8
4.9 7.4 13.2 13.9 10.8 9.5 10.1 8.9 7.0 5.2 5.4 4.8 5.5 4.8 4.9 5.4 4.5 3.0 2.9 4.0 4.8 3.9 3.8 3.4 3.7 3.8 3.2 4.1 4.6 5.7 5.4 4.9 5.2 4.8 4.7 5.4 4.9 4.9
6.6 7.8 12.0 12.3 7.4 3.8 3.2 3.1 5.3 4.6 2.4 3.0 3.4 3.6 2.9 2.1 2.5 2.2 2.3 2.1 2.4 1.4 1.2 1.5 2.1 2.8 3.9 7.0 3.5 nan 4.2 3.3 3.8 4.0 3.0 3.5 4.7 4.3
3.1 4.9 6.8 5.6 2.5 2.0 1.8 2.1 2.5 3.1 2.8 1.8 2.9 4.9 6.2 3.6 3.6 2.3 1.9 4.2 2.1 1.2 0.9 0.5 0.8 1.6 4.2 9.7 11.3 5.1 nan 5.7 3.4 3.7 3.1 2.4 2.4 nan
2.8 2.7 4.8 3.4 3.3 2.4 7.9 8.4 11.1 9.5 9.0 11.8 6.4 7.2 14.3 4.5 5.0 3.6 4.0 3.4 2.6 1.3 1.3 0.9 0.9 0.2 1.0 2.2 16.1 5.5 2.3 nan 1.1 1.7 1.8 2.8 2.3 2.0
6.4 4.0 4.1 4.2 5.2 4.4 9.3 15.3 12.7 12.1 8.3 5.7 12.2 16.8 14.4 6.2 6.2 5.2 6.5 6.3 2.0 2.4 1.3 0.7 0.3 0.6 1.2 1.7 3.1 7.9 2.6 2.0 nan nan nan nan 4.4 6.7
9.4 4.1 5.7 6.9 5.6 6.6 3.7 8.1 3.5 16.5 6.6 7.2 6.5 6.7 29.2 10.3 4.4 4.5 5.2 3.4 2.3 2.5 1.6 1.8 1.0 0.9 0.8 0.9 1.6 3.4 2.4 4.6 1.7 1.7 2.2 nan nan nan